<?xml version="1.0" encoding="UTF-8" standalone="no" ?>
<gpx xmlns="http://www.topografix.com/GPX/1/1" xmlns:xsi="http://www.w3.org/2001/XMLSchema-instance" xsi:schemaLocation="http://www.topografix.com/GPX/1/1 http://www.topografix.com/GPX/1/1/gpx.xsd" version="1.1" creator="VisuGPX - https://www.visugpx.com">
  <metadata>
    <name>Tour des Voirons</name>
    <desc><![CDATA[Annemasse Saxel boege col de ludran Pont de Fillinges Lucinge les voirons]]></desc>
  </metadata>
  <trk>
    <name><![CDATA[Tour des Voirons_1]]></name>
    <trkseg>
      <trkpt lat="46.19292" lon="6.25017">
        <ele>512</ele>
        <time>2018-07-14T05:00:08Z</time>
      </trkpt>
      <trkpt lat="46.19292" lon="6.25017">
        <ele>512</ele>
        <time>2018-07-14T05:11:51Z</time>
      </trkpt>
      <trkpt lat="46.19293" lon="6.25017">
        <ele>512</ele>
        <time>2018-07-14T05:11:52Z</time>
      </trkpt>
      <trkpt lat="46.19294" lon="6.25019">
        <ele>513</ele>
        <time>2018-07-14T05:11:58Z</time>
      </trkpt>
      <trkpt lat="46.19288" lon="6.25068">
        <ele>511</ele>
        <time>2018-07-14T05:12:14Z</time>
      </trkpt>
      <trkpt lat="46.19286" lon="6.25082">
        <ele>513</ele>
        <time>2018-07-14T05:12:20Z</time>
      </trkpt>
      <trkpt lat="46.19285" lon="6.25088">
        <ele>513</ele>
        <time>2018-07-14T05:12:30Z</time>
      </trkpt>
      <trkpt lat="46.19285" lon="6.25092">
        <ele>513</ele>
        <time>2018-07-14T05:12:32Z</time>
      </trkpt>
      <trkpt lat="46.19285" lon="6.25094">
        <ele>512</ele>
        <time>2018-07-14T05:12:33Z</time>
      </trkpt>
      <trkpt lat="46.19285" lon="6.25097">
        <ele>512</ele>
        <time>2018-07-14T05:12:34Z</time>
      </trkpt>
      <trkpt lat="46.19285" lon="6.251">
        <ele>512</ele>
        <time>2018-07-14T05:12:35Z</time>
      </trkpt>
      <trkpt lat="46.19286" lon="6.25102">
        <ele>512</ele>
        <time>2018-07-14T05:12:36Z</time>
      </trkpt>
      <trkpt lat="46.19288" lon="6.25104">
        <ele>512</ele>
        <time>2018-07-14T05:12:37Z</time>
      </trkpt>
      <trkpt lat="46.1929" lon="6.25105">
        <ele>512</ele>
        <time>2018-07-14T05:12:38Z</time>
      </trkpt>
      <trkpt lat="46.19292" lon="6.25107">
        <ele>512</ele>
        <time>2018-07-14T05:12:39Z</time>
      </trkpt>
      <trkpt lat="46.193" lon="6.25109">
        <ele>511</ele>
        <time>2018-07-14T05:12:40Z</time>
      </trkpt>
      <trkpt lat="46.19304" lon="6.25109">
        <ele>512</ele>
        <time>2018-07-14T05:12:41Z</time>
      </trkpt>
      <trkpt lat="46.19343" lon="6.25105">
        <ele>510</ele>
        <time>2018-07-14T05:12:49Z</time>
      </trkpt>
      <trkpt lat="46.19375" lon="6.25102">
        <ele>508</ele>
        <time>2018-07-14T05:12:54Z</time>
      </trkpt>
      <trkpt lat="46.19388" lon="6.25104">
        <ele>507</ele>
        <time>2018-07-14T05:12:56Z</time>
      </trkpt>
      <trkpt lat="46.19403" lon="6.25101">
        <ele>507</ele>
        <time>2018-07-14T05:12:58Z</time>
      </trkpt>
      <trkpt lat="46.19425" lon="6.2511">
        <ele>505</ele>
        <time>2018-07-14T05:13:01Z</time>
      </trkpt>
      <trkpt lat="46.19432" lon="6.25114">
        <ele>505</ele>
        <time>2018-07-14T05:13:02Z</time>
      </trkpt>
      <trkpt lat="46.19448" lon="6.2513">
        <ele>502</ele>
        <time>2018-07-14T05:13:05Z</time>
      </trkpt>
      <trkpt lat="46.19453" lon="6.2513">
        <ele>502</ele>
        <time>2018-07-14T05:13:06Z</time>
      </trkpt>
      <trkpt lat="46.19464" lon="6.25124">
        <ele>502</ele>
        <time>2018-07-14T05:13:08Z</time>
      </trkpt>
      <trkpt lat="46.1947" lon="6.25124">
        <ele>501</ele>
        <time>2018-07-14T05:13:09Z</time>
      </trkpt>
      <trkpt lat="46.19509" lon="6.25135">
        <ele>500</ele>
        <time>2018-07-14T05:13:15Z</time>
      </trkpt>
      <trkpt lat="46.19548" lon="6.25146">
        <ele>499</ele>
        <time>2018-07-14T05:13:21Z</time>
      </trkpt>
      <trkpt lat="46.19568" lon="6.25155">
        <ele>499</ele>
        <time>2018-07-14T05:13:24Z</time>
      </trkpt>
      <trkpt lat="46.19601" lon="6.25179">
        <ele>498</ele>
        <time>2018-07-14T05:13:29Z</time>
      </trkpt>
      <trkpt lat="46.19633" lon="6.25199">
        <ele>497</ele>
        <time>2018-07-14T05:13:33Z</time>
      </trkpt>
      <trkpt lat="46.19638" lon="6.25205">
        <ele>498</ele>
        <time>2018-07-14T05:13:34Z</time>
      </trkpt>
      <trkpt lat="46.19645" lon="6.25208">
        <ele>498</ele>
        <time>2018-07-14T05:13:35Z</time>
      </trkpt>
      <trkpt lat="46.19667" lon="6.25214">
        <ele>498</ele>
        <time>2018-07-14T05:13:38Z</time>
      </trkpt>
      <trkpt lat="46.19703" lon="6.25219">
        <ele>499</ele>
        <time>2018-07-14T05:13:43Z</time>
      </trkpt>
      <trkpt lat="46.1974" lon="6.25218">
        <ele>496</ele>
        <time>2018-07-14T05:13:48Z</time>
      </trkpt>
      <trkpt lat="46.19779" lon="6.25225">
        <ele>497</ele>
        <time>2018-07-14T05:13:54Z</time>
      </trkpt>
      <trkpt lat="46.19797" lon="6.25225">
        <ele>496</ele>
        <time>2018-07-14T05:13:57Z</time>
      </trkpt>
      <trkpt lat="46.19803" lon="6.25224">
        <ele>496</ele>
        <time>2018-07-14T05:13:58Z</time>
      </trkpt>
      <trkpt lat="46.19843" lon="6.25219">
        <ele>497</ele>
        <time>2018-07-14T05:14:04Z</time>
      </trkpt>
      <trkpt lat="46.19882" lon="6.2521">
        <ele>498</ele>
        <time>2018-07-14T05:14:10Z</time>
      </trkpt>
      <trkpt lat="46.19916" lon="6.25197">
        <ele>499</ele>
        <time>2018-07-14T05:14:15Z</time>
      </trkpt>
      <trkpt lat="46.19948" lon="6.25181">
        <ele>500</ele>
        <time>2018-07-14T05:14:20Z</time>
      </trkpt>
      <trkpt lat="46.19979" lon="6.25163">
        <ele>500</ele>
        <time>2018-07-14T05:14:25Z</time>
      </trkpt>
      <trkpt lat="46.19985" lon="6.2516">
        <ele>500</ele>
        <time>2018-07-14T05:14:26Z</time>
      </trkpt>
      <trkpt lat="46.20005" lon="6.25158">
        <ele>499</ele>
        <time>2018-07-14T05:14:29Z</time>
      </trkpt>
      <trkpt lat="46.20038" lon="6.2516">
        <ele>498</ele>
        <time>2018-07-14T05:14:34Z</time>
      </trkpt>
      <trkpt lat="46.2008" lon="6.25165">
        <ele>500</ele>
        <time>2018-07-14T05:14:40Z</time>
      </trkpt>
      <trkpt lat="46.20118" lon="6.25167">
        <ele>499</ele>
        <time>2018-07-14T05:14:45Z</time>
      </trkpt>
      <trkpt lat="46.20155" lon="6.25173">
        <ele>498</ele>
        <time>2018-07-14T05:14:50Z</time>
      </trkpt>
      <trkpt lat="46.20223" lon="6.25199">
        <ele>499</ele>
        <time>2018-07-14T05:15:00Z</time>
      </trkpt>
      <trkpt lat="46.20248" lon="6.25209">
        <ele>499</ele>
        <time>2018-07-14T05:15:05Z</time>
      </trkpt>
      <trkpt lat="46.20252" lon="6.25212">
        <ele>499</ele>
        <time>2018-07-14T05:15:06Z</time>
      </trkpt>
      <trkpt lat="46.20288" lon="6.25221">
        <ele>499</ele>
        <time>2018-07-14T05:15:14Z</time>
      </trkpt>
      <trkpt lat="46.20306" lon="6.25224">
        <ele>497</ele>
        <time>2018-07-14T05:15:17Z</time>
      </trkpt>
      <trkpt lat="46.20312" lon="6.25223">
        <ele>497</ele>
        <time>2018-07-14T05:15:18Z</time>
      </trkpt>
      <trkpt lat="46.20319" lon="6.2522">
        <ele>496</ele>
        <time>2018-07-14T05:15:19Z</time>
      </trkpt>
      <trkpt lat="46.20325" lon="6.25216">
        <ele>496</ele>
        <time>2018-07-14T05:15:20Z</time>
      </trkpt>
      <trkpt lat="46.2033" lon="6.2521">
        <ele>496</ele>
        <time>2018-07-14T05:15:21Z</time>
      </trkpt>
      <trkpt lat="46.20336" lon="6.25203">
        <ele>495</ele>
        <time>2018-07-14T05:15:22Z</time>
      </trkpt>
      <trkpt lat="46.20339" lon="6.25194">
        <ele>496</ele>
        <time>2018-07-14T05:15:23Z</time>
      </trkpt>
      <trkpt lat="46.20342" lon="6.25183">
        <ele>496</ele>
        <time>2018-07-14T05:15:24Z</time>
      </trkpt>
      <trkpt lat="46.20343" lon="6.25172">
        <ele>494</ele>
        <time>2018-07-14T05:15:25Z</time>
      </trkpt>
      <trkpt lat="46.20346" lon="6.25112">
        <ele>492</ele>
        <time>2018-07-14T05:15:30Z</time>
      </trkpt>
      <trkpt lat="46.20342" lon="6.25057">
        <ele>491</ele>
        <time>2018-07-14T05:15:35Z</time>
      </trkpt>
      <trkpt lat="46.20338" lon="6.25003">
        <ele>489</ele>
        <time>2018-07-14T05:15:40Z</time>
      </trkpt>
      <trkpt lat="46.20338" lon="6.24995">
        <ele>489</ele>
        <time>2018-07-14T05:15:41Z</time>
      </trkpt>
      <trkpt lat="46.20341" lon="6.24989">
        <ele>489</ele>
        <time>2018-07-14T05:15:42Z</time>
      </trkpt>
      <trkpt lat="46.20345" lon="6.24985">
        <ele>489</ele>
        <time>2018-07-14T05:15:43Z</time>
      </trkpt>
      <trkpt lat="46.20373" lon="6.24981">
        <ele>491</ele>
        <time>2018-07-14T05:15:48Z</time>
      </trkpt>
      <trkpt lat="46.20397" lon="6.2497">
        <ele>491</ele>
        <time>2018-07-14T05:15:52Z</time>
      </trkpt>
      <trkpt lat="46.2042" lon="6.24955">
        <ele>491</ele>
        <time>2018-07-14T05:15:56Z</time>
      </trkpt>
      <trkpt lat="46.20426" lon="6.24953">
        <ele>491</ele>
        <time>2018-07-14T05:15:57Z</time>
      </trkpt>
      <trkpt lat="46.20431" lon="6.24952">
        <ele>491</ele>
        <time>2018-07-14T05:15:58Z</time>
      </trkpt>
      <trkpt lat="46.20437" lon="6.24954">
        <ele>492</ele>
        <time>2018-07-14T05:15:59Z</time>
      </trkpt>
      <trkpt lat="46.20475" lon="6.24956">
        <ele>491</ele>
        <time>2018-07-14T05:16:05Z</time>
      </trkpt>
      <trkpt lat="46.20482" lon="6.24957">
        <ele>491</ele>
        <time>2018-07-14T05:16:06Z</time>
      </trkpt>
      <trkpt lat="46.20488" lon="6.24959">
        <ele>492</ele>
        <time>2018-07-14T05:16:07Z</time>
      </trkpt>
      <trkpt lat="46.20524" lon="6.24971">
        <ele>493</ele>
        <time>2018-07-14T05:16:15Z</time>
      </trkpt>
      <trkpt lat="46.20529" lon="6.24971">
        <ele>493</ele>
        <time>2018-07-14T05:16:16Z</time>
      </trkpt>
      <trkpt lat="46.20533" lon="6.2497">
        <ele>494</ele>
        <time>2018-07-14T05:16:17Z</time>
      </trkpt>
      <trkpt lat="46.20537" lon="6.24968">
        <ele>493</ele>
        <time>2018-07-14T05:16:18Z</time>
      </trkpt>
      <trkpt lat="46.20566" lon="6.24942">
        <ele>493</ele>
        <time>2018-07-14T05:16:25Z</time>
      </trkpt>
      <trkpt lat="46.20574" lon="6.24937">
        <ele>494</ele>
        <time>2018-07-14T05:16:27Z</time>
      </trkpt>
      <trkpt lat="46.20579" lon="6.24934">
        <ele>494</ele>
        <time>2018-07-14T05:16:28Z</time>
      </trkpt>
      <trkpt lat="46.20584" lon="6.24935">
        <ele>494</ele>
        <time>2018-07-14T05:16:29Z</time>
      </trkpt>
      <trkpt lat="46.20589" lon="6.24937">
        <ele>495</ele>
        <time>2018-07-14T05:16:30Z</time>
      </trkpt>
      <trkpt lat="46.20594" lon="6.24941">
        <ele>495</ele>
        <time>2018-07-14T05:16:31Z</time>
      </trkpt>
      <trkpt lat="46.20618" lon="6.24974">
        <ele>494</ele>
        <time>2018-07-14T05:16:37Z</time>
      </trkpt>
      <trkpt lat="46.20643" lon="6.25015">
        <ele>496</ele>
        <time>2018-07-14T05:16:44Z</time>
      </trkpt>
      <trkpt lat="46.20662" lon="6.25058">
        <ele>495</ele>
        <time>2018-07-14T05:16:51Z</time>
      </trkpt>
      <trkpt lat="46.20682" lon="6.25099">
        <ele>496</ele>
        <time>2018-07-14T05:16:58Z</time>
      </trkpt>
      <trkpt lat="46.20703" lon="6.25141">
        <ele>496</ele>
        <time>2018-07-14T05:17:05Z</time>
      </trkpt>
      <trkpt lat="46.20729" lon="6.25182">
        <ele>497</ele>
        <time>2018-07-14T05:17:12Z</time>
      </trkpt>
      <trkpt lat="46.20758" lon="6.2522">
        <ele>499</ele>
        <time>2018-07-14T05:17:19Z</time>
      </trkpt>
      <trkpt lat="46.20786" lon="6.25255">
        <ele>500</ele>
        <time>2018-07-14T05:17:26Z</time>
      </trkpt>
      <trkpt lat="46.20794" lon="6.25265">
        <ele>500</ele>
        <time>2018-07-14T05:17:28Z</time>
      </trkpt>
      <trkpt lat="46.20814" lon="6.25283">
        <ele>502</ele>
        <time>2018-07-14T05:17:34Z</time>
      </trkpt>
      <trkpt lat="46.20836" lon="6.2531">
        <ele>505</ele>
        <time>2018-07-14T05:17:42Z</time>
      </trkpt>
      <trkpt lat="46.20839" lon="6.25314">
        <ele>504</ele>
        <time>2018-07-14T05:17:43Z</time>
      </trkpt>
      <trkpt lat="46.20846" lon="6.25321">
        <ele>504</ele>
        <time>2018-07-14T05:17:45Z</time>
      </trkpt>
      <trkpt lat="46.20852" lon="6.25331">
        <ele>504</ele>
        <time>2018-07-14T05:17:48Z</time>
      </trkpt>
      <trkpt lat="46.20857" lon="6.25335">
        <ele>504</ele>
        <time>2018-07-14T05:17:49Z</time>
      </trkpt>
      <trkpt lat="46.20862" lon="6.25344">
        <ele>502</ele>
        <time>2018-07-14T05:17:51Z</time>
      </trkpt>
      <trkpt lat="46.20869" lon="6.25351">
        <ele>504</ele>
        <time>2018-07-14T05:17:53Z</time>
      </trkpt>
      <trkpt lat="46.20881" lon="6.25366">
        <ele>505</ele>
        <time>2018-07-14T05:17:57Z</time>
      </trkpt>
      <trkpt lat="46.20884" lon="6.25368">
        <ele>506</ele>
        <time>2018-07-14T05:17:58Z</time>
      </trkpt>
      <trkpt lat="46.20893" lon="6.25381">
        <ele>506</ele>
        <time>2018-07-14T05:18:02Z</time>
      </trkpt>
      <trkpt lat="46.20908" lon="6.25395">
        <ele>507</ele>
        <time>2018-07-14T05:18:06Z</time>
      </trkpt>
      <trkpt lat="46.20917" lon="6.25407">
        <ele>507</ele>
        <time>2018-07-14T05:18:09Z</time>
      </trkpt>
      <trkpt lat="46.20919" lon="6.25411">
        <ele>507</ele>
        <time>2018-07-14T05:18:10Z</time>
      </trkpt>
      <trkpt lat="46.20921" lon="6.25416">
        <ele>507</ele>
        <time>2018-07-14T05:18:11Z</time>
      </trkpt>
      <trkpt lat="46.20921" lon="6.25422">
        <ele>509</ele>
        <time>2018-07-14T05:18:12Z</time>
      </trkpt>
      <trkpt lat="46.20918" lon="6.25434">
        <ele>509</ele>
        <time>2018-07-14T05:18:14Z</time>
      </trkpt>
      <trkpt lat="46.20913" lon="6.25442">
        <ele>510</ele>
        <time>2018-07-14T05:18:16Z</time>
      </trkpt>
      <trkpt lat="46.20912" lon="6.25454">
        <ele>510</ele>
        <time>2018-07-14T05:18:18Z</time>
      </trkpt>
      <trkpt lat="46.20912" lon="6.25459">
        <ele>510</ele>
        <time>2018-07-14T05:18:19Z</time>
      </trkpt>
      <trkpt lat="46.20914" lon="6.25468">
        <ele>511</ele>
        <time>2018-07-14T05:18:21Z</time>
      </trkpt>
      <trkpt lat="46.20917" lon="6.25475">
        <ele>511</ele>
        <time>2018-07-14T05:18:22Z</time>
      </trkpt>
      <trkpt lat="46.20919" lon="6.25479">
        <ele>510</ele>
        <time>2018-07-14T05:18:23Z</time>
      </trkpt>
      <trkpt lat="46.20949" lon="6.25518">
        <ele>510</ele>
        <time>2018-07-14T05:18:32Z</time>
      </trkpt>
      <trkpt lat="46.20977" lon="6.25555">
        <ele>511</ele>
        <time>2018-07-14T05:18:40Z</time>
      </trkpt>
      <trkpt lat="46.20995" lon="6.25589">
        <ele>513</ele>
        <time>2018-07-14T05:18:47Z</time>
      </trkpt>
      <trkpt lat="46.20999" lon="6.256">
        <ele>514</ele>
        <time>2018-07-14T05:18:49Z</time>
      </trkpt>
      <trkpt lat="46.21014" lon="6.25652">
        <ele>515</ele>
        <time>2018-07-14T05:18:58Z</time>
      </trkpt>
      <trkpt lat="46.21026" lon="6.25708">
        <ele>517</ele>
        <time>2018-07-14T05:19:07Z</time>
      </trkpt>
      <trkpt lat="46.21038" lon="6.25758">
        <ele>518</ele>
        <time>2018-07-14T05:19:15Z</time>
      </trkpt>
      <trkpt lat="46.21053" lon="6.2581">
        <ele>518</ele>
        <time>2018-07-14T05:19:23Z</time>
      </trkpt>
      <trkpt lat="46.21066" lon="6.25852">
        <ele>520</ele>
        <time>2018-07-14T05:19:30Z</time>
      </trkpt>
      <trkpt lat="46.21081" lon="6.25898">
        <ele>523</ele>
        <time>2018-07-14T05:19:39Z</time>
      </trkpt>
      <trkpt lat="46.21097" lon="6.25945">
        <ele>523</ele>
        <time>2018-07-14T05:19:48Z</time>
      </trkpt>
      <trkpt lat="46.21111" lon="6.25983">
        <ele>526</ele>
        <time>2018-07-14T05:19:56Z</time>
      </trkpt>
      <trkpt lat="46.21131" lon="6.26031">
        <ele>529</ele>
        <time>2018-07-14T05:20:06Z</time>
      </trkpt>
      <trkpt lat="46.21151" lon="6.2608">
        <ele>530</ele>
        <time>2018-07-14T05:20:16Z</time>
      </trkpt>
      <trkpt lat="46.21169" lon="6.26127">
        <ele>532</ele>
        <time>2018-07-14T05:20:26Z</time>
      </trkpt>
      <trkpt lat="46.21185" lon="6.26172">
        <ele>533</ele>
        <time>2018-07-14T05:20:34Z</time>
      </trkpt>
      <trkpt lat="46.21186" lon="6.26174">
        <ele>533</ele>
        <time>2018-07-14T05:20:35Z</time>
      </trkpt>
      <trkpt lat="46.21202" lon="6.26225">
        <ele>532</ele>
        <time>2018-07-14T05:22:06Z</time>
      </trkpt>
      <trkpt lat="46.21217" lon="6.26275">
        <ele>529</ele>
        <time>2018-07-14T05:22:12Z</time>
      </trkpt>
      <trkpt lat="46.21229" lon="6.26327">
        <ele>528</ele>
        <time>2018-07-14T05:22:17Z</time>
      </trkpt>
      <trkpt lat="46.21242" lon="6.26397">
        <ele>525</ele>
        <time>2018-07-14T05:22:23Z</time>
      </trkpt>
      <trkpt lat="46.21258" lon="6.26459">
        <ele>521</ele>
        <time>2018-07-14T05:22:28Z</time>
      </trkpt>
      <trkpt lat="46.21271" lon="6.26524">
        <ele>520</ele>
        <time>2018-07-14T05:22:33Z</time>
      </trkpt>
      <trkpt lat="46.21284" lon="6.26588">
        <ele>519</ele>
        <time>2018-07-14T05:22:38Z</time>
      </trkpt>
      <trkpt lat="46.21298" lon="6.26652">
        <ele>517</ele>
        <time>2018-07-14T05:22:43Z</time>
      </trkpt>
      <trkpt lat="46.2131" lon="6.2671">
        <ele>517</ele>
        <time>2018-07-14T05:22:48Z</time>
      </trkpt>
      <trkpt lat="46.2132" lon="6.26763">
        <ele>517</ele>
        <time>2018-07-14T05:22:53Z</time>
      </trkpt>
      <trkpt lat="46.21331" lon="6.26812">
        <ele>518</ele>
        <time>2018-07-14T05:22:59Z</time>
      </trkpt>
      <trkpt lat="46.21343" lon="6.26858">
        <ele>520</ele>
        <time>2018-07-14T05:23:06Z</time>
      </trkpt>
      <trkpt lat="46.21354" lon="6.26908">
        <ele>523</ele>
        <time>2018-07-14T05:23:14Z</time>
      </trkpt>
      <trkpt lat="46.21363" lon="6.26935">
        <ele>525</ele>
        <time>2018-07-14T05:23:19Z</time>
      </trkpt>
      <trkpt lat="46.21381" lon="6.26976">
        <ele>527</ele>
        <time>2018-07-14T05:23:27Z</time>
      </trkpt>
      <trkpt lat="46.21401" lon="6.27018">
        <ele>530</ele>
        <time>2018-07-14T05:23:36Z</time>
      </trkpt>
      <trkpt lat="46.21415" lon="6.27052">
        <ele>532</ele>
        <time>2018-07-14T05:23:43Z</time>
      </trkpt>
      <trkpt lat="46.21419" lon="6.27067">
        <ele>532</ele>
        <time>2018-07-14T05:23:46Z</time>
      </trkpt>
      <trkpt lat="46.21429" lon="6.27115">
        <ele>535</ele>
        <time>2018-07-14T05:23:55Z</time>
      </trkpt>
      <trkpt lat="46.21433" lon="6.27132">
        <ele>534</ele>
        <time>2018-07-14T05:23:58Z</time>
      </trkpt>
      <trkpt lat="46.2144" lon="6.27177">
        <ele>535</ele>
        <time>2018-07-14T05:24:06Z</time>
      </trkpt>
      <trkpt lat="46.21447" lon="6.27213">
        <ele>538</ele>
        <time>2018-07-14T05:24:13Z</time>
      </trkpt>
      <trkpt lat="46.21447" lon="6.27224">
        <ele>537</ele>
        <time>2018-07-14T05:24:15Z</time>
      </trkpt>
      <trkpt lat="46.21449" lon="6.2723">
        <ele>537</ele>
        <time>2018-07-14T05:24:16Z</time>
      </trkpt>
      <trkpt lat="46.21449" lon="6.27234">
        <ele>537</ele>
        <time>2018-07-14T05:24:17Z</time>
      </trkpt>
      <trkpt lat="46.21461" lon="6.27287">
        <ele>539</ele>
        <time>2018-07-14T05:24:27Z</time>
      </trkpt>
      <trkpt lat="46.21473" lon="6.27337">
        <ele>539</ele>
        <time>2018-07-14T05:24:36Z</time>
      </trkpt>
      <trkpt lat="46.21479" lon="6.27386">
        <ele>540</ele>
        <time>2018-07-14T05:24:44Z</time>
      </trkpt>
      <trkpt lat="46.21485" lon="6.27436">
        <ele>542</ele>
        <time>2018-07-14T05:24:52Z</time>
      </trkpt>
      <trkpt lat="46.21495" lon="6.27489">
        <ele>543</ele>
        <time>2018-07-14T05:25:00Z</time>
      </trkpt>
      <trkpt lat="46.21505" lon="6.27536">
        <ele>543</ele>
        <time>2018-07-14T05:25:07Z</time>
      </trkpt>
      <trkpt lat="46.21517" lon="6.27586">
        <ele>544</ele>
        <time>2018-07-14T05:25:14Z</time>
      </trkpt>
      <trkpt lat="46.21532" lon="6.2764">
        <ele>542</ele>
        <time>2018-07-14T05:25:21Z</time>
      </trkpt>
      <trkpt lat="46.21544" lon="6.27689">
        <ele>544</ele>
        <time>2018-07-14T05:25:27Z</time>
      </trkpt>
      <trkpt lat="46.21554" lon="6.27711">
        <ele>544</ele>
        <time>2018-07-14T05:25:30Z</time>
      </trkpt>
      <trkpt lat="46.21558" lon="6.27718">
        <ele>544</ele>
        <time>2018-07-14T05:25:31Z</time>
      </trkpt>
      <trkpt lat="46.21585" lon="6.27755">
        <ele>545</ele>
        <time>2018-07-14T05:25:37Z</time>
      </trkpt>
      <trkpt lat="46.21613" lon="6.27791">
        <ele>545</ele>
        <time>2018-07-14T05:25:43Z</time>
      </trkpt>
      <trkpt lat="46.21634" lon="6.27821">
        <ele>544</ele>
        <time>2018-07-14T05:25:48Z</time>
      </trkpt>
      <trkpt lat="46.21637" lon="6.27827">
        <ele>544</ele>
        <time>2018-07-14T05:25:49Z</time>
      </trkpt>
      <trkpt lat="46.21639" lon="6.27834">
        <ele>544</ele>
        <time>2018-07-14T05:25:50Z</time>
      </trkpt>
      <trkpt lat="46.2164" lon="6.27843">
        <ele>543</ele>
        <time>2018-07-14T05:25:51Z</time>
      </trkpt>
      <trkpt lat="46.21638" lon="6.27852">
        <ele>543</ele>
        <time>2018-07-14T05:25:52Z</time>
      </trkpt>
      <trkpt lat="46.21633" lon="6.27859">
        <ele>542</ele>
        <time>2018-07-14T05:25:53Z</time>
      </trkpt>
      <trkpt lat="46.21606" lon="6.27903">
        <ele>540</ele>
        <time>2018-07-14T05:25:58Z</time>
      </trkpt>
      <trkpt lat="46.21595" lon="6.27925">
        <ele>537</ele>
        <time>2018-07-14T05:26:00Z</time>
      </trkpt>
      <trkpt lat="46.2159" lon="6.27937">
        <ele>537</ele>
        <time>2018-07-14T05:26:01Z</time>
      </trkpt>
      <trkpt lat="46.21574" lon="6.28">
        <ele>535</ele>
        <time>2018-07-14T05:26:06Z</time>
      </trkpt>
      <trkpt lat="46.21567" lon="6.28035">
        <ele>534</ele>
        <time>2018-07-14T05:26:10Z</time>
      </trkpt>
      <trkpt lat="46.21563" lon="6.28049">
        <ele>534</ele>
        <time>2018-07-14T05:26:12Z</time>
      </trkpt>
      <trkpt lat="46.21563" lon="6.28055">
        <ele>533</ele>
        <time>2018-07-14T05:26:13Z</time>
      </trkpt>
      <trkpt lat="46.21567" lon="6.28061">
        <ele>534</ele>
        <time>2018-07-14T05:26:14Z</time>
      </trkpt>
      <trkpt lat="46.21593" lon="6.28094">
        <ele>535</ele>
        <time>2018-07-14T05:26:22Z</time>
      </trkpt>
      <trkpt lat="46.21629" lon="6.28128">
        <ele>536</ele>
        <time>2018-07-14T05:26:31Z</time>
      </trkpt>
      <trkpt lat="46.21642" lon="6.28142">
        <ele>538</ele>
        <time>2018-07-14T05:26:35Z</time>
      </trkpt>
      <trkpt lat="46.21664" lon="6.28186">
        <ele>538</ele>
        <time>2018-07-14T05:26:43Z</time>
      </trkpt>
      <trkpt lat="46.21684" lon="6.28231">
        <ele>539</ele>
        <time>2018-07-14T05:26:50Z</time>
      </trkpt>
      <trkpt lat="46.21703" lon="6.28271">
        <ele>541</ele>
        <time>2018-07-14T05:26:57Z</time>
      </trkpt>
      <trkpt lat="46.2171" lon="6.2828">
        <ele>542</ele>
        <time>2018-07-14T05:26:59Z</time>
      </trkpt>
      <trkpt lat="46.2174" lon="6.28312">
        <ele>543</ele>
        <time>2018-07-14T05:27:08Z</time>
      </trkpt>
      <trkpt lat="46.2176" lon="6.28332">
        <ele>545</ele>
        <time>2018-07-14T05:27:14Z</time>
      </trkpt>
      <trkpt lat="46.21772" lon="6.28351">
        <ele>546</ele>
        <time>2018-07-14T05:27:18Z</time>
      </trkpt>
      <trkpt lat="46.21787" lon="6.28394">
        <ele>542</ele>
        <time>2018-07-14T05:27:25Z</time>
      </trkpt>
      <trkpt lat="46.21802" lon="6.28445">
        <ele>541</ele>
        <time>2018-07-14T05:27:31Z</time>
      </trkpt>
      <trkpt lat="46.21819" lon="6.28502">
        <ele>538</ele>
        <time>2018-07-14T05:27:37Z</time>
      </trkpt>
      <trkpt lat="46.21828" lon="6.28557">
        <ele>537</ele>
        <time>2018-07-14T05:27:43Z</time>
      </trkpt>
      <trkpt lat="46.21839" lon="6.28611">
        <ele>538</ele>
        <time>2018-07-14T05:27:49Z</time>
      </trkpt>
      <trkpt lat="46.2185" lon="6.28659">
        <ele>539</ele>
        <time>2018-07-14T05:27:55Z</time>
      </trkpt>
      <trkpt lat="46.21861" lon="6.28711">
        <ele>541</ele>
        <time>2018-07-14T05:28:02Z</time>
      </trkpt>
      <trkpt lat="46.21876" lon="6.28766">
        <ele>542</ele>
        <time>2018-07-14T05:28:09Z</time>
      </trkpt>
      <trkpt lat="46.21894" lon="6.28812">
        <ele>543</ele>
        <time>2018-07-14T05:28:15Z</time>
      </trkpt>
      <trkpt lat="46.21913" lon="6.28858">
        <ele>543</ele>
        <time>2018-07-14T05:28:21Z</time>
      </trkpt>
      <trkpt lat="46.21931" lon="6.28906">
        <ele>543</ele>
        <time>2018-07-14T05:28:27Z</time>
      </trkpt>
      <trkpt lat="46.21949" lon="6.28951">
        <ele>545</ele>
        <time>2018-07-14T05:28:33Z</time>
      </trkpt>
      <trkpt lat="46.21967" lon="6.28997">
        <ele>546</ele>
        <time>2018-07-14T05:28:40Z</time>
      </trkpt>
      <trkpt lat="46.21971" lon="6.29008">
        <ele>546</ele>
        <time>2018-07-14T05:28:42Z</time>
      </trkpt>
      <trkpt lat="46.21974" lon="6.29011">
        <ele>547</ele>
        <time>2018-07-14T05:28:43Z</time>
      </trkpt>
      <trkpt lat="46.21985" lon="6.29042">
        <ele>549</ele>
        <time>2018-07-14T05:28:49Z</time>
      </trkpt>
      <trkpt lat="46.21988" lon="6.29054">
        <ele>550</ele>
        <time>2018-07-14T05:28:51Z</time>
      </trkpt>
      <trkpt lat="46.2199" lon="6.29072">
        <ele>551</ele>
        <time>2018-07-14T05:28:54Z</time>
      </trkpt>
      <trkpt lat="46.2199" lon="6.29078">
        <ele>551</ele>
        <time>2018-07-14T05:28:55Z</time>
      </trkpt>
      <trkpt lat="46.21986" lon="6.29128">
        <ele>552</ele>
        <time>2018-07-14T05:29:03Z</time>
      </trkpt>
      <trkpt lat="46.21982" lon="6.29153">
        <ele>552</ele>
        <time>2018-07-14T05:29:07Z</time>
      </trkpt>
      <trkpt lat="46.21978" lon="6.29166">
        <ele>552</ele>
        <time>2018-07-14T05:29:09Z</time>
      </trkpt>
      <trkpt lat="46.21976" lon="6.29178">
        <ele>553</ele>
        <time>2018-07-14T05:29:11Z</time>
      </trkpt>
      <trkpt lat="46.21964" lon="6.29215">
        <ele>546</ele>
        <time>2018-07-14T05:29:18Z</time>
      </trkpt>
      <trkpt lat="46.21963" lon="6.29222">
        <ele>549</ele>
        <time>2018-07-14T05:29:19Z</time>
      </trkpt>
      <trkpt lat="46.21964" lon="6.2923">
        <ele>552</ele>
        <time>2018-07-14T05:29:20Z</time>
      </trkpt>
      <trkpt lat="46.21966" lon="6.29235">
        <ele>553</ele>
        <time>2018-07-14T05:29:21Z</time>
      </trkpt>
      <trkpt lat="46.21988" lon="6.29277">
        <ele>555</ele>
        <time>2018-07-14T05:29:29Z</time>
      </trkpt>
      <trkpt lat="46.22016" lon="6.2932">
        <ele>554</ele>
        <time>2018-07-14T05:29:37Z</time>
      </trkpt>
      <trkpt lat="46.2202" lon="6.29326">
        <ele>554</ele>
        <time>2018-07-14T05:29:38Z</time>
      </trkpt>
      <trkpt lat="46.22048" lon="6.29353">
        <ele>554</ele>
        <time>2018-07-14T05:29:44Z</time>
      </trkpt>
      <trkpt lat="46.22078" lon="6.29382">
        <ele>553</ele>
        <time>2018-07-14T05:29:50Z</time>
      </trkpt>
      <trkpt lat="46.22083" lon="6.29388">
        <ele>552</ele>
        <time>2018-07-14T05:29:51Z</time>
      </trkpt>
      <trkpt lat="46.22113" lon="6.29412">
        <ele>550</ele>
        <time>2018-07-14T05:29:56Z</time>
      </trkpt>
      <trkpt lat="46.22145" lon="6.29428">
        <ele>548</ele>
        <time>2018-07-14T05:30:01Z</time>
      </trkpt>
      <trkpt lat="46.22149" lon="6.2943">
        <ele>549</ele>
        <time>2018-07-14T05:30:02Z</time>
      </trkpt>
      <trkpt lat="46.22157" lon="6.29432">
        <ele>549</ele>
        <time>2018-07-14T05:30:04Z</time>
      </trkpt>
      <trkpt lat="46.22161" lon="6.29434">
        <ele>549</ele>
        <time>2018-07-14T05:30:05Z</time>
      </trkpt>
      <trkpt lat="46.22187" lon="6.29452">
        <ele>550</ele>
        <time>2018-07-14T05:30:11Z</time>
      </trkpt>
      <trkpt lat="46.22201" lon="6.29467">
        <ele>552</ele>
        <time>2018-07-14T05:30:15Z</time>
      </trkpt>
      <trkpt lat="46.22212" lon="6.29473">
        <ele>552</ele>
        <time>2018-07-14T05:30:18Z</time>
      </trkpt>
      <trkpt lat="46.22248" lon="6.29476">
        <ele>551</ele>
        <time>2018-07-14T05:30:26Z</time>
      </trkpt>
      <trkpt lat="46.22256" lon="6.29477">
        <ele>552</ele>
        <time>2018-07-14T05:30:28Z</time>
      </trkpt>
      <trkpt lat="46.22296" lon="6.29487">
        <ele>554</ele>
        <time>2018-07-14T05:30:36Z</time>
      </trkpt>
      <trkpt lat="46.22329" lon="6.29504">
        <ele>553</ele>
        <time>2018-07-14T05:30:43Z</time>
      </trkpt>
      <trkpt lat="46.22361" lon="6.29527">
        <ele>553</ele>
        <time>2018-07-14T05:30:50Z</time>
      </trkpt>
      <trkpt lat="46.22393" lon="6.29554">
        <ele>555</ele>
        <time>2018-07-14T05:30:57Z</time>
      </trkpt>
      <trkpt lat="46.22422" lon="6.29581">
        <ele>557</ele>
        <time>2018-07-14T05:31:04Z</time>
      </trkpt>
      <trkpt lat="46.22431" lon="6.29588">
        <ele>557</ele>
        <time>2018-07-14T05:31:06Z</time>
      </trkpt>
      <trkpt lat="46.22457" lon="6.29623">
        <ele>558</ele>
        <time>2018-07-14T05:31:14Z</time>
      </trkpt>
      <trkpt lat="46.22477" lon="6.29666">
        <ele>559</ele>
        <time>2018-07-14T05:31:21Z</time>
      </trkpt>
      <trkpt lat="46.225" lon="6.29707">
        <ele>559</ele>
        <time>2018-07-14T05:31:28Z</time>
      </trkpt>
      <trkpt lat="46.22516" lon="6.29738">
        <ele>559</ele>
        <time>2018-07-14T05:31:33Z</time>
      </trkpt>
      <trkpt lat="46.22539" lon="6.29786">
        <ele>561</ele>
        <time>2018-07-14T05:31:41Z</time>
      </trkpt>
      <trkpt lat="46.22557" lon="6.29833">
        <ele>561</ele>
        <time>2018-07-14T05:31:48Z</time>
      </trkpt>
      <trkpt lat="46.22581" lon="6.29891">
        <ele>562</ele>
        <time>2018-07-14T05:31:57Z</time>
      </trkpt>
      <trkpt lat="46.226" lon="6.29937">
        <ele>562</ele>
        <time>2018-07-14T05:32:04Z</time>
      </trkpt>
      <trkpt lat="46.2262" lon="6.29986">
        <ele>560</ele>
        <time>2018-07-14T05:32:11Z</time>
      </trkpt>
      <trkpt lat="46.22639" lon="6.30027">
        <ele>560</ele>
        <time>2018-07-14T05:32:17Z</time>
      </trkpt>
      <trkpt lat="46.22657" lon="6.30077">
        <ele>562</ele>
        <time>2018-07-14T05:32:24Z</time>
      </trkpt>
      <trkpt lat="46.22667" lon="6.30105">
        <ele>562</ele>
        <time>2018-07-14T05:32:28Z</time>
      </trkpt>
      <trkpt lat="46.22671" lon="6.30111">
        <ele>562</ele>
        <time>2018-07-14T05:32:29Z</time>
      </trkpt>
      <trkpt lat="46.22675" lon="6.30116">
        <ele>562</ele>
        <time>2018-07-14T05:32:30Z</time>
      </trkpt>
      <trkpt lat="46.22682" lon="6.30124">
        <ele>562</ele>
        <time>2018-07-14T05:32:32Z</time>
      </trkpt>
      <trkpt lat="46.22696" lon="6.30134">
        <ele>563</ele>
        <time>2018-07-14T05:32:35Z</time>
      </trkpt>
      <trkpt lat="46.22701" lon="6.30139">
        <ele>563</ele>
        <time>2018-07-14T05:32:36Z</time>
      </trkpt>
      <trkpt lat="46.22706" lon="6.30141">
        <ele>564</ele>
        <time>2018-07-14T05:32:37Z</time>
      </trkpt>
      <trkpt lat="46.22741" lon="6.30152">
        <ele>563</ele>
        <time>2018-07-14T05:32:44Z</time>
      </trkpt>
      <trkpt lat="46.22779" lon="6.30153">
        <ele>563</ele>
        <time>2018-07-14T05:32:50Z</time>
      </trkpt>
      <trkpt lat="46.22803" lon="6.30156">
        <ele>564</ele>
        <time>2018-07-14T05:32:54Z</time>
      </trkpt>
      <trkpt lat="46.22838" lon="6.3015">
        <ele>562</ele>
        <time>2018-07-14T05:33:00Z</time>
      </trkpt>
      <trkpt lat="46.22855" lon="6.30148">
        <ele>562</ele>
        <time>2018-07-14T05:33:03Z</time>
      </trkpt>
      <trkpt lat="46.22889" lon="6.30152">
        <ele>564</ele>
        <time>2018-07-14T05:33:09Z</time>
      </trkpt>
      <trkpt lat="46.22925" lon="6.30164">
        <ele>563</ele>
        <time>2018-07-14T05:33:15Z</time>
      </trkpt>
      <trkpt lat="46.22954" lon="6.30182">
        <ele>562</ele>
        <time>2018-07-14T05:33:20Z</time>
      </trkpt>
      <trkpt lat="46.22992" lon="6.30208">
        <ele>562</ele>
        <time>2018-07-14T05:33:26Z</time>
      </trkpt>
      <trkpt lat="46.23018" lon="6.30225">
        <ele>560</ele>
        <time>2018-07-14T05:33:30Z</time>
      </trkpt>
      <trkpt lat="46.23035" lon="6.30243">
        <ele>558</ele>
        <time>2018-07-14T05:33:33Z</time>
      </trkpt>
      <trkpt lat="46.23042" lon="6.30245">
        <ele>557</ele>
        <time>2018-07-14T05:33:34Z</time>
      </trkpt>
      <trkpt lat="46.23075" lon="6.3027">
        <ele>555</ele>
        <time>2018-07-14T05:33:39Z</time>
      </trkpt>
      <trkpt lat="46.23106" lon="6.30296">
        <ele>556</ele>
        <time>2018-07-14T05:33:44Z</time>
      </trkpt>
      <trkpt lat="46.23142" lon="6.30318">
        <ele>558</ele>
        <time>2018-07-14T05:33:50Z</time>
      </trkpt>
      <trkpt lat="46.23175" lon="6.3034">
        <ele>559</ele>
        <time>2018-07-14T05:33:56Z</time>
      </trkpt>
      <trkpt lat="46.23207" lon="6.3036">
        <ele>559</ele>
        <time>2018-07-14T05:34:02Z</time>
      </trkpt>
      <trkpt lat="46.2322" lon="6.3037">
        <ele>559</ele>
        <time>2018-07-14T05:34:05Z</time>
      </trkpt>
      <trkpt lat="46.23245" lon="6.30399">
        <ele>563</ele>
        <time>2018-07-14T05:34:12Z</time>
      </trkpt>
      <trkpt lat="46.23271" lon="6.30434">
        <ele>566</ele>
        <time>2018-07-14T05:34:20Z</time>
      </trkpt>
      <trkpt lat="46.23277" lon="6.30445">
        <ele>566</ele>
        <time>2018-07-14T05:34:22Z</time>
      </trkpt>
      <trkpt lat="46.233" lon="6.30479">
        <ele>567</ele>
        <time>2018-07-14T05:34:29Z</time>
      </trkpt>
      <trkpt lat="46.23303" lon="6.30485">
        <ele>567</ele>
        <time>2018-07-14T05:34:30Z</time>
      </trkpt>
      <trkpt lat="46.23304" lon="6.30491">
        <ele>568</ele>
        <time>2018-07-14T05:34:31Z</time>
      </trkpt>
      <trkpt lat="46.23305" lon="6.30497">
        <ele>568</ele>
        <time>2018-07-14T05:34:32Z</time>
      </trkpt>
      <trkpt lat="46.23306" lon="6.30504">
        <ele>568</ele>
        <time>2018-07-14T05:34:33Z</time>
      </trkpt>
      <trkpt lat="46.23305" lon="6.30511">
        <ele>569</ele>
        <time>2018-07-14T05:34:34Z</time>
      </trkpt>
      <trkpt lat="46.23302" lon="6.30528">
        <ele>570</ele>
        <time>2018-07-14T05:34:37Z</time>
      </trkpt>
      <trkpt lat="46.23302" lon="6.30535">
        <ele>570</ele>
        <time>2018-07-14T05:34:38Z</time>
      </trkpt>
      <trkpt lat="46.23304" lon="6.30541">
        <ele>570</ele>
        <time>2018-07-14T05:34:39Z</time>
      </trkpt>
      <trkpt lat="46.23307" lon="6.30546">
        <ele>569</ele>
        <time>2018-07-14T05:34:40Z</time>
      </trkpt>
      <trkpt lat="46.2331" lon="6.30551">
        <ele>569</ele>
        <time>2018-07-14T05:34:41Z</time>
      </trkpt>
      <trkpt lat="46.23341" lon="6.30583">
        <ele>569</ele>
        <time>2018-07-14T05:34:48Z</time>
      </trkpt>
      <trkpt lat="46.23376" lon="6.30616">
        <ele>570</ele>
        <time>2018-07-14T05:34:56Z</time>
      </trkpt>
      <trkpt lat="46.2339" lon="6.30626">
        <ele>570</ele>
        <time>2018-07-14T05:34:59Z</time>
      </trkpt>
      <trkpt lat="46.23426" lon="6.3064">
        <ele>569</ele>
        <time>2018-07-14T05:35:05Z</time>
      </trkpt>
      <trkpt lat="46.23445" lon="6.3065">
        <ele>569</ele>
        <time>2018-07-14T05:35:08Z</time>
      </trkpt>
      <trkpt lat="46.23451" lon="6.30654">
        <ele>569</ele>
        <time>2018-07-14T05:35:09Z</time>
      </trkpt>
      <trkpt lat="46.23486" lon="6.30688">
        <ele>568</ele>
        <time>2018-07-14T05:35:15Z</time>
      </trkpt>
      <trkpt lat="46.23518" lon="6.30717">
        <ele>566</ele>
        <time>2018-07-14T05:35:20Z</time>
      </trkpt>
      <trkpt lat="46.23525" lon="6.30722">
        <ele>565</ele>
        <time>2018-07-14T05:35:21Z</time>
      </trkpt>
      <trkpt lat="46.23546" lon="6.30733">
        <ele>565</ele>
        <time>2018-07-14T05:35:24Z</time>
      </trkpt>
      <trkpt lat="46.23583" lon="6.30742">
        <ele>564</ele>
        <time>2018-07-14T05:35:29Z</time>
      </trkpt>
      <trkpt lat="46.23623" lon="6.30761">
        <ele>564</ele>
        <time>2018-07-14T05:35:35Z</time>
      </trkpt>
      <trkpt lat="46.23658" lon="6.30772">
        <ele>563</ele>
        <time>2018-07-14T05:35:40Z</time>
      </trkpt>
      <trkpt lat="46.23689" lon="6.30788">
        <ele>565</ele>
        <time>2018-07-14T05:35:45Z</time>
      </trkpt>
      <trkpt lat="46.23722" lon="6.30808">
        <ele>566</ele>
        <time>2018-07-14T05:35:50Z</time>
      </trkpt>
      <trkpt lat="46.23734" lon="6.30815">
        <ele>567</ele>
        <time>2018-07-14T05:35:52Z</time>
      </trkpt>
      <trkpt lat="46.23768" lon="6.30821">
        <ele>569</ele>
        <time>2018-07-14T05:35:57Z</time>
      </trkpt>
      <trkpt lat="46.23773" lon="6.30824">
        <ele>561</ele>
        <time>2018-07-14T05:35:58Z</time>
      </trkpt>
      <trkpt lat="46.2381" lon="6.30845">
        <ele>570</ele>
        <time>2018-07-14T05:36:04Z</time>
      </trkpt>
      <trkpt lat="46.23845" lon="6.30876">
        <ele>571</ele>
        <time>2018-07-14T05:36:10Z</time>
      </trkpt>
      <trkpt lat="46.23877" lon="6.309">
        <ele>572</ele>
        <time>2018-07-14T05:36:15Z</time>
      </trkpt>
      <trkpt lat="46.23899" lon="6.30916">
        <ele>572</ele>
        <time>2018-07-14T05:36:19Z</time>
      </trkpt>
      <trkpt lat="46.23904" lon="6.30918">
        <ele>572</ele>
        <time>2018-07-14T05:36:20Z</time>
      </trkpt>
      <trkpt lat="46.23908" lon="6.30919">
        <ele>573</ele>
        <time>2018-07-14T05:36:21Z</time>
      </trkpt>
      <trkpt lat="46.23909" lon="6.30919">
        <ele>573</ele>
        <time>2018-07-14T05:36:22Z</time>
      </trkpt>
      <trkpt lat="46.23911" lon="6.30919">
        <ele>572</ele>
        <time>2018-07-14T05:36:23Z</time>
      </trkpt>
      <trkpt lat="46.23914" lon="6.30916">
        <ele>570</ele>
        <time>2018-07-14T05:36:24Z</time>
      </trkpt>
      <trkpt lat="46.2392" lon="6.3091">
        <ele>571</ele>
        <time>2018-07-14T05:36:25Z</time>
      </trkpt>
      <trkpt lat="46.23926" lon="6.3089">
        <ele>571</ele>
        <time>2018-07-14T05:36:28Z</time>
      </trkpt>
      <trkpt lat="46.23938" lon="6.30836">
        <ele>568</ele>
        <time>2018-07-14T05:36:35Z</time>
      </trkpt>
      <trkpt lat="46.23952" lon="6.30782">
        <ele>569</ele>
        <time>2018-07-14T05:36:41Z</time>
      </trkpt>
      <trkpt lat="46.23961" lon="6.30745">
        <ele>569</ele>
        <time>2018-07-14T05:36:45Z</time>
      </trkpt>
      <trkpt lat="46.23964" lon="6.30735">
        <ele>568</ele>
        <time>2018-07-14T05:36:46Z</time>
      </trkpt>
      <trkpt lat="46.23968" lon="6.30727">
        <ele>567</ele>
        <time>2018-07-14T05:36:47Z</time>
      </trkpt>
      <trkpt lat="46.23973" lon="6.30721">
        <ele>568</ele>
        <time>2018-07-14T05:36:48Z</time>
      </trkpt>
      <trkpt lat="46.23978" lon="6.30716">
        <ele>568</ele>
        <time>2018-07-14T05:36:49Z</time>
      </trkpt>
      <trkpt lat="46.23985" lon="6.30717">
        <ele>569</ele>
        <time>2018-07-14T05:36:50Z</time>
      </trkpt>
      <trkpt lat="46.24016" lon="6.30739">
        <ele>568</ele>
        <time>2018-07-14T05:36:55Z</time>
      </trkpt>
      <trkpt lat="46.24056" lon="6.30771">
        <ele>551</ele>
        <time>2018-07-14T05:37:02Z</time>
      </trkpt>
      <trkpt lat="46.24069" lon="6.30782">
        <ele>558</ele>
        <time>2018-07-14T05:37:04Z</time>
      </trkpt>
      <trkpt lat="46.24081" lon="6.30788">
        <ele>563</ele>
        <time>2018-07-14T05:37:06Z</time>
      </trkpt>
      <trkpt lat="46.24087" lon="6.30792">
        <ele>564</ele>
        <time>2018-07-14T05:37:07Z</time>
      </trkpt>
      <trkpt lat="46.24119" lon="6.30821">
        <ele>566</ele>
        <time>2018-07-14T05:37:13Z</time>
      </trkpt>
      <trkpt lat="46.24145" lon="6.30843">
        <ele>566</ele>
        <time>2018-07-14T05:37:18Z</time>
      </trkpt>
      <trkpt lat="46.2418" lon="6.30868">
        <ele>566</ele>
        <time>2018-07-14T05:37:24Z</time>
      </trkpt>
      <trkpt lat="46.24214" lon="6.30897">
        <ele>565</ele>
        <time>2018-07-14T05:37:30Z</time>
      </trkpt>
      <trkpt lat="46.24245" lon="6.30923">
        <ele>566</ele>
        <time>2018-07-14T05:37:35Z</time>
      </trkpt>
      <trkpt lat="46.24251" lon="6.30932">
        <ele>567</ele>
        <time>2018-07-14T05:37:36Z</time>
      </trkpt>
      <trkpt lat="46.24256" lon="6.30937">
        <ele>567</ele>
        <time>2018-07-14T05:37:37Z</time>
      </trkpt>
      <trkpt lat="46.24261" lon="6.30939">
        <ele>566</ele>
        <time>2018-07-14T05:37:38Z</time>
      </trkpt>
      <trkpt lat="46.24273" lon="6.30952">
        <ele>564</ele>
        <time>2018-07-14T05:37:41Z</time>
      </trkpt>
      <trkpt lat="46.24276" lon="6.30957">
        <ele>565</ele>
        <time>2018-07-14T05:37:42Z</time>
      </trkpt>
      <trkpt lat="46.24281" lon="6.30957">
        <ele>563</ele>
        <time>2018-07-14T05:37:43Z</time>
      </trkpt>
      <trkpt lat="46.24309" lon="6.30971">
        <ele>564</ele>
        <time>2018-07-14T05:37:48Z</time>
      </trkpt>
      <trkpt lat="46.24338" lon="6.30991">
        <ele>563</ele>
        <time>2018-07-14T05:37:53Z</time>
      </trkpt>
      <trkpt lat="46.24353" lon="6.30996">
        <ele>563</ele>
        <time>2018-07-14T05:37:55Z</time>
      </trkpt>
      <trkpt lat="46.24367" lon="6.31006">
        <ele>563</ele>
        <time>2018-07-14T05:37:57Z</time>
      </trkpt>
      <trkpt lat="46.24378" lon="6.3102">
        <ele>564</ele>
        <time>2018-07-14T05:37:59Z</time>
      </trkpt>
      <trkpt lat="46.24394" lon="6.31043">
        <ele>567</ele>
        <time>2018-07-14T05:38:02Z</time>
      </trkpt>
      <trkpt lat="46.24408" lon="6.31076">
        <ele>564</ele>
        <time>2018-07-14T05:38:06Z</time>
      </trkpt>
      <trkpt lat="46.24433" lon="6.31113">
        <ele>565</ele>
        <time>2018-07-14T05:38:12Z</time>
      </trkpt>
      <trkpt lat="46.24457" lon="6.31157">
        <ele>563</ele>
        <time>2018-07-14T05:38:19Z</time>
      </trkpt>
      <trkpt lat="46.24484" lon="6.31197">
        <ele>563</ele>
        <time>2018-07-14T05:38:26Z</time>
      </trkpt>
      <trkpt lat="46.2451" lon="6.31237">
        <ele>566</ele>
        <time>2018-07-14T05:38:33Z</time>
      </trkpt>
      <trkpt lat="46.24514" lon="6.31241">
        <ele>567</ele>
        <time>2018-07-14T05:38:34Z</time>
      </trkpt>
      <trkpt lat="46.24546" lon="6.31267">
        <ele>568</ele>
        <time>2018-07-14T05:38:41Z</time>
      </trkpt>
      <trkpt lat="46.24558" lon="6.31274">
        <ele>567</ele>
        <time>2018-07-14T05:38:43Z</time>
      </trkpt>
      <trkpt lat="46.24586" lon="6.31298">
        <ele>567</ele>
        <time>2018-07-14T05:38:49Z</time>
      </trkpt>
      <trkpt lat="46.2461" lon="6.31335">
        <ele>567</ele>
        <time>2018-07-14T05:38:55Z</time>
      </trkpt>
      <trkpt lat="46.2464" lon="6.31376">
        <ele>567</ele>
        <time>2018-07-14T05:39:02Z</time>
      </trkpt>
      <trkpt lat="46.24675" lon="6.3143">
        <ele>567</ele>
        <time>2018-07-14T05:39:11Z</time>
      </trkpt>
      <trkpt lat="46.24701" lon="6.31468">
        <ele>566</ele>
        <time>2018-07-14T05:39:17Z</time>
      </trkpt>
      <trkpt lat="46.24728" lon="6.3151">
        <ele>566</ele>
        <time>2018-07-14T05:39:23Z</time>
      </trkpt>
      <trkpt lat="46.24747" lon="6.31537">
        <ele>565</ele>
        <time>2018-07-14T05:39:27Z</time>
      </trkpt>
      <trkpt lat="46.24754" lon="6.31552">
        <ele>566</ele>
        <time>2018-07-14T05:39:29Z</time>
      </trkpt>
      <trkpt lat="46.24756" lon="6.3156">
        <ele>565</ele>
        <time>2018-07-14T05:39:30Z</time>
      </trkpt>
      <trkpt lat="46.2477" lon="6.31604">
        <ele>569</ele>
        <time>2018-07-14T05:39:36Z</time>
      </trkpt>
      <trkpt lat="46.24774" lon="6.31618">
        <ele>569</ele>
        <time>2018-07-14T05:39:38Z</time>
      </trkpt>
      <trkpt lat="46.24792" lon="6.3167">
        <ele>572</ele>
        <time>2018-07-14T05:39:47Z</time>
      </trkpt>
      <trkpt lat="46.24808" lon="6.31717">
        <ele>573</ele>
        <time>2018-07-14T05:39:55Z</time>
      </trkpt>
      <trkpt lat="46.24827" lon="6.31767">
        <ele>575</ele>
        <time>2018-07-14T05:40:04Z</time>
      </trkpt>
      <trkpt lat="46.24842" lon="6.31813">
        <ele>577</ele>
        <time>2018-07-14T05:40:12Z</time>
      </trkpt>
      <trkpt lat="46.2486" lon="6.31867">
        <ele>578</ele>
        <time>2018-07-14T05:40:21Z</time>
      </trkpt>
      <trkpt lat="46.24872" lon="6.31903">
        <ele>579</ele>
        <time>2018-07-14T05:40:27Z</time>
      </trkpt>
      <trkpt lat="46.24886" lon="6.31955">
        <ele>580</ele>
        <time>2018-07-14T05:40:35Z</time>
      </trkpt>
      <trkpt lat="46.24901" lon="6.32008">
        <ele>580</ele>
        <time>2018-07-14T05:40:42Z</time>
      </trkpt>
      <trkpt lat="46.24914" lon="6.32056">
        <ele>580</ele>
        <time>2018-07-14T05:40:48Z</time>
      </trkpt>
      <trkpt lat="46.24916" lon="6.32064">
        <ele>580</ele>
        <time>2018-07-14T05:40:49Z</time>
      </trkpt>
      <trkpt lat="46.24921" lon="6.3212">
        <ele>580</ele>
        <time>2018-07-14T05:40:55Z</time>
      </trkpt>
      <trkpt lat="46.24922" lon="6.32177">
        <ele>580</ele>
        <time>2018-07-14T05:41:01Z</time>
      </trkpt>
      <trkpt lat="46.24921" lon="6.32235">
        <ele>580</ele>
        <time>2018-07-14T05:41:07Z</time>
      </trkpt>
      <trkpt lat="46.24922" lon="6.32243">
        <ele>580</ele>
        <time>2018-07-14T05:41:08Z</time>
      </trkpt>
      <trkpt lat="46.24922" lon="6.32251">
        <ele>580</ele>
        <time>2018-07-14T05:41:09Z</time>
      </trkpt>
      <trkpt lat="46.24931" lon="6.32286">
        <ele>582</ele>
        <time>2018-07-14T05:41:14Z</time>
      </trkpt>
      <trkpt lat="46.24948" lon="6.32333">
        <ele>585</ele>
        <time>2018-07-14T05:41:21Z</time>
      </trkpt>
      <trkpt lat="46.24964" lon="6.3238">
        <ele>586</ele>
        <time>2018-07-14T05:41:28Z</time>
      </trkpt>
      <trkpt lat="46.2498" lon="6.32427">
        <ele>585</ele>
        <time>2018-07-14T05:41:34Z</time>
      </trkpt>
      <trkpt lat="46.24988" lon="6.32455">
        <ele>584</ele>
        <time>2018-07-14T05:41:37Z</time>
      </trkpt>
      <trkpt lat="46.2499" lon="6.32466">
        <ele>583</ele>
        <time>2018-07-14T05:41:38Z</time>
      </trkpt>
      <trkpt lat="46.24991" lon="6.32478">
        <ele>582</ele>
        <time>2018-07-14T05:41:39Z</time>
      </trkpt>
      <trkpt lat="46.24992" lon="6.3249">
        <ele>581</ele>
        <time>2018-07-14T05:41:40Z</time>
      </trkpt>
      <trkpt lat="46.24991" lon="6.32503">
        <ele>579</ele>
        <time>2018-07-14T05:41:41Z</time>
      </trkpt>
      <trkpt lat="46.24974" lon="6.32586">
        <ele>576</ele>
        <time>2018-07-14T05:41:47Z</time>
      </trkpt>
      <trkpt lat="46.24968" lon="6.32613">
        <ele>575</ele>
        <time>2018-07-14T05:41:49Z</time>
      </trkpt>
      <trkpt lat="46.24969" lon="6.32626">
        <ele>576</ele>
        <time>2018-07-14T05:41:50Z</time>
      </trkpt>
      <trkpt lat="46.24977" lon="6.32674">
        <ele>574</ele>
        <time>2018-07-14T05:41:54Z</time>
      </trkpt>
      <trkpt lat="46.24981" lon="6.32685">
        <ele>574</ele>
        <time>2018-07-14T05:41:55Z</time>
      </trkpt>
      <trkpt lat="46.25003" lon="6.32716">
        <ele>573</ele>
        <time>2018-07-14T05:41:59Z</time>
      </trkpt>
      <trkpt lat="46.25036" lon="6.32741">
        <ele>573</ele>
        <time>2018-07-14T05:42:04Z</time>
      </trkpt>
      <trkpt lat="46.25073" lon="6.32762">
        <ele>572</ele>
        <time>2018-07-14T05:42:09Z</time>
      </trkpt>
      <trkpt lat="46.25093" lon="6.32774">
        <ele>573</ele>
        <time>2018-07-14T05:42:12Z</time>
      </trkpt>
      <trkpt lat="46.25127" lon="6.32784">
        <ele>573</ele>
        <time>2018-07-14T05:42:17Z</time>
      </trkpt>
      <trkpt lat="46.25146" lon="6.32785">
        <ele>572</ele>
        <time>2018-07-14T05:42:21Z</time>
      </trkpt>
      <trkpt lat="46.2515" lon="6.32785">
        <ele>572</ele>
        <time>2018-07-14T05:42:22Z</time>
      </trkpt>
      <trkpt lat="46.25154" lon="6.32784">
        <ele>572</ele>
        <time>2018-07-14T05:42:23Z</time>
      </trkpt>
      <trkpt lat="46.25177" lon="6.32769">
        <ele>572</ele>
        <time>2018-07-14T05:42:28Z</time>
      </trkpt>
      <trkpt lat="46.2521" lon="6.32758">
        <ele>574</ele>
        <time>2018-07-14T05:42:35Z</time>
      </trkpt>
      <trkpt lat="46.25219" lon="6.32753">
        <ele>575</ele>
        <time>2018-07-14T05:42:37Z</time>
      </trkpt>
      <trkpt lat="46.2524" lon="6.32737">
        <ele>577</ele>
        <time>2018-07-14T05:42:42Z</time>
      </trkpt>
      <trkpt lat="46.2527" lon="6.32708">
        <ele>578</ele>
        <time>2018-07-14T05:42:49Z</time>
      </trkpt>
      <trkpt lat="46.253" lon="6.3268">
        <ele>578</ele>
        <time>2018-07-14T05:42:56Z</time>
      </trkpt>
      <trkpt lat="46.25335" lon="6.32655">
        <ele>580</ele>
        <time>2018-07-14T05:43:04Z</time>
      </trkpt>
      <trkpt lat="46.25367" lon="6.32633">
        <ele>583</ele>
        <time>2018-07-14T05:43:12Z</time>
      </trkpt>
      <trkpt lat="46.25381" lon="6.32617">
        <ele>583</ele>
        <time>2018-07-14T05:43:16Z</time>
      </trkpt>
      <trkpt lat="46.25394" lon="6.32598">
        <ele>582</ele>
        <time>2018-07-14T05:43:20Z</time>
      </trkpt>
      <trkpt lat="46.25409" lon="6.32563">
        <ele>583</ele>
        <time>2018-07-14T05:43:26Z</time>
      </trkpt>
      <trkpt lat="46.25424" lon="6.32515">
        <ele>584</ele>
        <time>2018-07-14T05:43:34Z</time>
      </trkpt>
      <trkpt lat="46.25426" lon="6.32508">
        <ele>584</ele>
        <time>2018-07-14T05:43:35Z</time>
      </trkpt>
      <trkpt lat="46.2543" lon="6.32503">
        <ele>585</ele>
        <time>2018-07-14T05:43:36Z</time>
      </trkpt>
      <trkpt lat="46.25433" lon="6.32498">
        <ele>585</ele>
        <time>2018-07-14T05:43:37Z</time>
      </trkpt>
      <trkpt lat="46.25437" lon="6.32495">
        <ele>585</ele>
        <time>2018-07-14T05:43:38Z</time>
      </trkpt>
      <trkpt lat="46.25465" lon="6.32486">
        <ele>586</ele>
        <time>2018-07-14T05:43:44Z</time>
      </trkpt>
      <trkpt lat="46.255" lon="6.32474">
        <ele>587</ele>
        <time>2018-07-14T05:43:51Z</time>
      </trkpt>
      <trkpt lat="46.25534" lon="6.32459">
        <ele>586</ele>
        <time>2018-07-14T05:43:58Z</time>
      </trkpt>
      <trkpt lat="46.25554" lon="6.32448">
        <ele>586</ele>
        <time>2018-07-14T05:44:02Z</time>
      </trkpt>
      <trkpt lat="46.25565" lon="6.32446">
        <ele>586</ele>
        <time>2018-07-14T05:44:04Z</time>
      </trkpt>
      <trkpt lat="46.25602" lon="6.32446">
        <ele>585</ele>
        <time>2018-07-14T05:44:11Z</time>
      </trkpt>
      <trkpt lat="46.25621" lon="6.32447">
        <ele>587</ele>
        <time>2018-07-14T05:44:15Z</time>
      </trkpt>
      <trkpt lat="46.25647" lon="6.32453">
        <ele>586</ele>
        <time>2018-07-14T05:44:20Z</time>
      </trkpt>
      <trkpt lat="46.25662" lon="6.32461">
        <ele>587</ele>
        <time>2018-07-14T05:44:23Z</time>
      </trkpt>
      <trkpt lat="46.2569" lon="6.32483">
        <ele>589</ele>
        <time>2018-07-14T05:44:29Z</time>
      </trkpt>
      <trkpt lat="46.257" lon="6.32497">
        <ele>591</ele>
        <time>2018-07-14T05:44:32Z</time>
      </trkpt>
      <trkpt lat="46.25706" lon="6.32507">
        <ele>591</ele>
        <time>2018-07-14T05:44:34Z</time>
      </trkpt>
      <trkpt lat="46.25732" lon="6.32537">
        <ele>594</ele>
        <time>2018-07-14T05:44:41Z</time>
      </trkpt>
      <trkpt lat="46.25752" lon="6.32566">
        <ele>593</ele>
        <time>2018-07-14T05:44:47Z</time>
      </trkpt>
      <trkpt lat="46.25763" lon="6.32598">
        <ele>594</ele>
        <time>2018-07-14T05:44:53Z</time>
      </trkpt>
      <trkpt lat="46.25773" lon="6.32609">
        <ele>593</ele>
        <time>2018-07-14T05:44:56Z</time>
      </trkpt>
      <trkpt lat="46.25806" lon="6.32638">
        <ele>591</ele>
        <time>2018-07-14T05:45:05Z</time>
      </trkpt>
      <trkpt lat="46.25835" lon="6.32669">
        <ele>594</ele>
        <time>2018-07-14T05:45:13Z</time>
      </trkpt>
      <trkpt lat="46.25849" lon="6.32684">
        <ele>594</ele>
        <time>2018-07-14T05:45:17Z</time>
      </trkpt>
      <trkpt lat="46.25857" lon="6.32689">
        <ele>594</ele>
        <time>2018-07-14T05:45:19Z</time>
      </trkpt>
      <trkpt lat="46.2586" lon="6.32693">
        <ele>594</ele>
        <time>2018-07-14T05:45:20Z</time>
      </trkpt>
      <trkpt lat="46.25865" lon="6.32695">
        <ele>595</ele>
        <time>2018-07-14T05:45:21Z</time>
      </trkpt>
      <trkpt lat="46.25873" lon="6.32699">
        <ele>595</ele>
        <time>2018-07-14T05:45:23Z</time>
      </trkpt>
      <trkpt lat="46.25886" lon="6.32709">
        <ele>596</ele>
        <time>2018-07-14T05:45:26Z</time>
      </trkpt>
      <trkpt lat="46.25915" lon="6.32728">
        <ele>595</ele>
        <time>2018-07-14T05:45:33Z</time>
      </trkpt>
      <trkpt lat="46.2594" lon="6.32748">
        <ele>596</ele>
        <time>2018-07-14T05:45:39Z</time>
      </trkpt>
      <trkpt lat="46.25944" lon="6.32753">
        <ele>597</ele>
        <time>2018-07-14T05:45:40Z</time>
      </trkpt>
      <trkpt lat="46.25947" lon="6.32759">
        <ele>597</ele>
        <time>2018-07-14T05:45:41Z</time>
      </trkpt>
      <trkpt lat="46.25949" lon="6.32765">
        <ele>597</ele>
        <time>2018-07-14T05:45:42Z</time>
      </trkpt>
      <trkpt lat="46.25957" lon="6.32809">
        <ele>601</ele>
        <time>2018-07-14T05:45:49Z</time>
      </trkpt>
      <trkpt lat="46.25959" lon="6.32815">
        <ele>602</ele>
        <time>2018-07-14T05:45:50Z</time>
      </trkpt>
      <trkpt lat="46.2598" lon="6.32857">
        <ele>601</ele>
        <time>2018-07-14T05:45:58Z</time>
      </trkpt>
      <trkpt lat="46.25989" lon="6.32872">
        <ele>602</ele>
        <time>2018-07-14T05:46:01Z</time>
      </trkpt>
      <trkpt lat="46.26019" lon="6.32907">
        <ele>603</ele>
        <time>2018-07-14T05:46:10Z</time>
      </trkpt>
      <trkpt lat="46.26051" lon="6.32935">
        <ele>603</ele>
        <time>2018-07-14T05:46:19Z</time>
      </trkpt>
      <trkpt lat="46.26081" lon="6.32959">
        <ele>605</ele>
        <time>2018-07-14T05:46:27Z</time>
      </trkpt>
      <trkpt lat="46.26114" lon="6.32979">
        <ele>608</ele>
        <time>2018-07-14T05:46:36Z</time>
      </trkpt>
      <trkpt lat="46.26149" lon="6.32998">
        <ele>609</ele>
        <time>2018-07-14T05:46:45Z</time>
      </trkpt>
      <trkpt lat="46.26186" lon="6.33015">
        <ele>611</ele>
        <time>2018-07-14T05:46:54Z</time>
      </trkpt>
      <trkpt lat="46.26223" lon="6.33032">
        <ele>613</ele>
        <time>2018-07-14T05:47:03Z</time>
      </trkpt>
      <trkpt lat="46.26254" lon="6.33048">
        <ele>616</ele>
        <time>2018-07-14T05:47:11Z</time>
      </trkpt>
      <trkpt lat="46.26286" lon="6.33071">
        <ele>615</ele>
        <time>2018-07-14T05:47:20Z</time>
      </trkpt>
      <trkpt lat="46.26313" lon="6.33106">
        <ele>617</ele>
        <time>2018-07-14T05:47:28Z</time>
      </trkpt>
      <trkpt lat="46.26343" lon="6.33144">
        <ele>618</ele>
        <time>2018-07-14T05:47:37Z</time>
      </trkpt>
      <trkpt lat="46.26361" lon="6.33166">
        <ele>617</ele>
        <time>2018-07-14T05:47:42Z</time>
      </trkpt>
      <trkpt lat="46.2638" lon="6.33197">
        <ele>618</ele>
        <time>2018-07-14T05:47:48Z</time>
      </trkpt>
      <trkpt lat="46.26406" lon="6.33232">
        <ele>618</ele>
        <time>2018-07-14T05:47:55Z</time>
      </trkpt>
      <trkpt lat="46.26429" lon="6.33269">
        <ele>618</ele>
        <time>2018-07-14T05:48:02Z</time>
      </trkpt>
      <trkpt lat="46.2644" lon="6.33293">
        <ele>619</ele>
        <time>2018-07-14T05:48:06Z</time>
      </trkpt>
      <trkpt lat="46.26456" lon="6.3334">
        <ele>620</ele>
        <time>2018-07-14T05:48:13Z</time>
      </trkpt>
      <trkpt lat="46.26468" lon="6.33372">
        <ele>621</ele>
        <time>2018-07-14T05:48:18Z</time>
      </trkpt>
      <trkpt lat="46.26469" lon="6.33378">
        <ele>621</ele>
        <time>2018-07-14T05:48:19Z</time>
      </trkpt>
      <trkpt lat="46.26469" lon="6.33385">
        <ele>622</ele>
        <time>2018-07-14T05:48:20Z</time>
      </trkpt>
      <trkpt lat="46.26469" lon="6.33392">
        <ele>622</ele>
        <time>2018-07-14T05:48:21Z</time>
      </trkpt>
      <trkpt lat="46.26459" lon="6.33441">
        <ele>623</ele>
        <time>2018-07-14T05:48:28Z</time>
      </trkpt>
      <trkpt lat="46.26449" lon="6.33496">
        <ele>623</ele>
        <time>2018-07-14T05:48:35Z</time>
      </trkpt>
      <trkpt lat="46.26441" lon="6.33545">
        <ele>623</ele>
        <time>2018-07-14T05:48:41Z</time>
      </trkpt>
      <trkpt lat="46.26433" lon="6.33596">
        <ele>623</ele>
        <time>2018-07-14T05:48:47Z</time>
      </trkpt>
      <trkpt lat="46.26431" lon="6.33622">
        <ele>623</ele>
        <time>2018-07-14T05:48:50Z</time>
      </trkpt>
      <trkpt lat="46.26421" lon="6.33671">
        <ele>623</ele>
        <time>2018-07-14T05:48:56Z</time>
      </trkpt>
      <trkpt lat="46.26412" lon="6.33723">
        <ele>623</ele>
        <time>2018-07-14T05:49:02Z</time>
      </trkpt>
      <trkpt lat="46.26402" lon="6.33775">
        <ele>623</ele>
        <time>2018-07-14T05:49:08Z</time>
      </trkpt>
      <trkpt lat="46.26395" lon="6.33828">
        <ele>622</ele>
        <time>2018-07-14T05:49:14Z</time>
      </trkpt>
      <trkpt lat="46.26385" lon="6.33882">
        <ele>623</ele>
        <time>2018-07-14T05:49:20Z</time>
      </trkpt>
      <trkpt lat="46.26381" lon="6.33916">
        <ele>623</ele>
        <time>2018-07-14T05:49:24Z</time>
      </trkpt>
      <trkpt lat="46.26381" lon="6.33925">
        <ele>623</ele>
        <time>2018-07-14T05:49:25Z</time>
      </trkpt>
      <trkpt lat="46.26384" lon="6.33953">
        <ele>623</ele>
        <time>2018-07-14T05:49:28Z</time>
      </trkpt>
      <trkpt lat="46.26387" lon="6.33961">
        <ele>623</ele>
        <time>2018-07-14T05:49:29Z</time>
      </trkpt>
      <trkpt lat="46.26389" lon="6.33969">
        <ele>624</ele>
        <time>2018-07-14T05:49:30Z</time>
      </trkpt>
      <trkpt lat="46.26392" lon="6.33976">
        <ele>624</ele>
        <time>2018-07-14T05:49:31Z</time>
      </trkpt>
      <trkpt lat="46.2642" lon="6.3402">
        <ele>622</ele>
        <time>2018-07-14T05:49:38Z</time>
      </trkpt>
      <trkpt lat="46.26444" lon="6.34056">
        <ele>625</ele>
        <time>2018-07-14T05:49:44Z</time>
      </trkpt>
      <trkpt lat="46.26457" lon="6.34073">
        <ele>626</ele>
        <time>2018-07-14T05:49:47Z</time>
      </trkpt>
      <trkpt lat="46.26478" lon="6.34111">
        <ele>625</ele>
        <time>2018-07-14T05:49:53Z</time>
      </trkpt>
      <trkpt lat="46.26486" lon="6.34134">
        <ele>625</ele>
        <time>2018-07-14T05:49:56Z</time>
      </trkpt>
      <trkpt lat="46.26499" lon="6.34153">
        <ele>605</ele>
        <time>2018-07-14T05:49:59Z</time>
      </trkpt>
      <trkpt lat="46.26506" lon="6.3417">
        <ele>617</ele>
        <time>2018-07-14T05:50:01Z</time>
      </trkpt>
      <trkpt lat="46.26516" lon="6.34183">
        <ele>621</ele>
        <time>2018-07-14T05:50:03Z</time>
      </trkpt>
      <trkpt lat="46.26519" lon="6.34191">
        <ele>623</ele>
        <time>2018-07-14T05:50:04Z</time>
      </trkpt>
      <trkpt lat="46.26528" lon="6.34218">
        <ele>625</ele>
        <time>2018-07-14T05:50:07Z</time>
      </trkpt>
      <trkpt lat="46.26539" lon="6.34274">
        <ele>625</ele>
        <time>2018-07-14T05:50:13Z</time>
      </trkpt>
      <trkpt lat="46.26544" lon="6.34292">
        <ele>624</ele>
        <time>2018-07-14T05:50:15Z</time>
      </trkpt>
      <trkpt lat="46.26574" lon="6.34331">
        <ele>623</ele>
        <time>2018-07-14T05:50:21Z</time>
      </trkpt>
      <trkpt lat="46.26606" lon="6.34368">
        <ele>622</ele>
        <time>2018-07-14T05:50:27Z</time>
      </trkpt>
      <trkpt lat="46.26622" lon="6.34388">
        <ele>622</ele>
        <time>2018-07-14T05:50:30Z</time>
      </trkpt>
      <trkpt lat="46.26645" lon="6.34443">
        <ele>620</ele>
        <time>2018-07-14T05:50:36Z</time>
      </trkpt>
      <trkpt lat="46.26666" lon="6.34496">
        <ele>618</ele>
        <time>2018-07-14T05:50:41Z</time>
      </trkpt>
      <trkpt lat="46.26679" lon="6.34513">
        <ele>618</ele>
        <time>2018-07-14T05:50:43Z</time>
      </trkpt>
      <trkpt lat="46.26688" lon="6.34517">
        <ele>618</ele>
        <time>2018-07-14T05:50:44Z</time>
      </trkpt>
      <trkpt lat="46.26724" lon="6.34523">
        <ele>617</ele>
        <time>2018-07-14T05:50:48Z</time>
      </trkpt>
      <trkpt lat="46.26733" lon="6.34527">
        <ele>616</ele>
        <time>2018-07-14T05:50:49Z</time>
      </trkpt>
      <trkpt lat="46.26741" lon="6.34532">
        <ele>616</ele>
        <time>2018-07-14T05:50:50Z</time>
      </trkpt>
      <trkpt lat="46.26765" lon="6.34554">
        <ele>614</ele>
        <time>2018-07-14T05:50:53Z</time>
      </trkpt>
      <trkpt lat="46.26772" lon="6.34563">
        <ele>614</ele>
        <time>2018-07-14T05:50:54Z</time>
      </trkpt>
      <trkpt lat="46.2678" lon="6.34572">
        <ele>614</ele>
        <time>2018-07-14T05:50:55Z</time>
      </trkpt>
      <trkpt lat="46.26786" lon="6.34583">
        <ele>613</ele>
        <time>2018-07-14T05:50:56Z</time>
      </trkpt>
      <trkpt lat="46.26791" lon="6.34596">
        <ele>612</ele>
        <time>2018-07-14T05:50:57Z</time>
      </trkpt>
      <trkpt lat="46.26792" lon="6.34608">
        <ele>612</ele>
        <time>2018-07-14T05:50:58Z</time>
      </trkpt>
      <trkpt lat="46.2679" lon="6.34624">
        <ele>612</ele>
        <time>2018-07-14T05:50:59Z</time>
      </trkpt>
      <trkpt lat="46.26751" lon="6.34678">
        <ele>609</ele>
        <time>2018-07-14T05:51:04Z</time>
      </trkpt>
      <trkpt lat="46.26729" lon="6.34706">
        <ele>609</ele>
        <time>2018-07-14T05:51:07Z</time>
      </trkpt>
      <trkpt lat="46.26721" lon="6.34714">
        <ele>608</ele>
        <time>2018-07-14T05:51:08Z</time>
      </trkpt>
      <trkpt lat="46.26712" lon="6.34719">
        <ele>606</ele>
        <time>2018-07-14T05:51:09Z</time>
      </trkpt>
      <trkpt lat="46.26702" lon="6.3472">
        <ele>605</ele>
        <time>2018-07-14T05:51:10Z</time>
      </trkpt>
      <trkpt lat="46.26693" lon="6.34719">
        <ele>605</ele>
        <time>2018-07-14T05:51:11Z</time>
      </trkpt>
      <trkpt lat="46.26647" lon="6.34701">
        <ele>602</ele>
        <time>2018-07-14T05:51:16Z</time>
      </trkpt>
      <trkpt lat="46.26619" lon="6.3469">
        <ele>601</ele>
        <time>2018-07-14T05:51:19Z</time>
      </trkpt>
      <trkpt lat="46.26609" lon="6.34689">
        <ele>601</ele>
        <time>2018-07-14T05:51:20Z</time>
      </trkpt>
      <trkpt lat="46.26599" lon="6.34693">
        <ele>600</ele>
        <time>2018-07-14T05:51:21Z</time>
      </trkpt>
      <trkpt lat="46.2659" lon="6.347">
        <ele>600</ele>
        <time>2018-07-14T05:51:22Z</time>
      </trkpt>
      <trkpt lat="46.26584" lon="6.34712">
        <ele>599</ele>
        <time>2018-07-14T05:51:23Z</time>
      </trkpt>
      <trkpt lat="46.26564" lon="6.34761">
        <ele>597</ele>
        <time>2018-07-14T05:51:27Z</time>
      </trkpt>
      <trkpt lat="46.26561" lon="6.34774">
        <ele>597</ele>
        <time>2018-07-14T05:51:28Z</time>
      </trkpt>
      <trkpt lat="46.26558" lon="6.34788">
        <ele>596</ele>
        <time>2018-07-14T05:51:29Z</time>
      </trkpt>
      <trkpt lat="46.26556" lon="6.34802">
        <ele>595</ele>
        <time>2018-07-14T05:51:30Z</time>
      </trkpt>
      <trkpt lat="46.26557" lon="6.34843">
        <ele>594</ele>
        <time>2018-07-14T05:51:33Z</time>
      </trkpt>
      <trkpt lat="46.26556" lon="6.34856">
        <ele>594</ele>
        <time>2018-07-14T05:51:34Z</time>
      </trkpt>
      <trkpt lat="46.26544" lon="6.34913">
        <ele>594</ele>
        <time>2018-07-14T05:51:39Z</time>
      </trkpt>
      <trkpt lat="46.26529" lon="6.34962">
        <ele>594</ele>
        <time>2018-07-14T05:51:44Z</time>
      </trkpt>
      <trkpt lat="46.26513" lon="6.35013">
        <ele>594</ele>
        <time>2018-07-14T05:51:50Z</time>
      </trkpt>
      <trkpt lat="46.26498" lon="6.35066">
        <ele>598</ele>
        <time>2018-07-14T05:51:57Z</time>
      </trkpt>
      <trkpt lat="46.26482" lon="6.35115">
        <ele>599</ele>
        <time>2018-07-14T05:52:04Z</time>
      </trkpt>
      <trkpt lat="46.26464" lon="6.35155">
        <ele>600</ele>
        <time>2018-07-14T05:52:11Z</time>
      </trkpt>
      <trkpt lat="46.26461" lon="6.3516">
        <ele>601</ele>
        <time>2018-07-14T05:52:12Z</time>
      </trkpt>
      <trkpt lat="46.26453" lon="6.35172">
        <ele>602</ele>
        <time>2018-07-14T05:52:15Z</time>
      </trkpt>
      <trkpt lat="46.2645" lon="6.35175">
        <ele>602</ele>
        <time>2018-07-14T05:52:16Z</time>
      </trkpt>
      <trkpt lat="46.26418" lon="6.35202">
        <ele>605</ele>
        <time>2018-07-14T05:52:27Z</time>
      </trkpt>
      <trkpt lat="46.26379" lon="6.35235">
        <ele>606</ele>
        <time>2018-07-14T05:52:39Z</time>
      </trkpt>
      <trkpt lat="46.26348" lon="6.35268">
        <ele>607</ele>
        <time>2018-07-14T05:52:51Z</time>
      </trkpt>
      <trkpt lat="46.26321" lon="6.35304">
        <ele>609</ele>
        <time>2018-07-14T05:53:02Z</time>
      </trkpt>
      <trkpt lat="46.26294" lon="6.35341">
        <ele>612</ele>
        <time>2018-07-14T05:53:13Z</time>
      </trkpt>
      <trkpt lat="46.2627" lon="6.35376">
        <ele>613</ele>
        <time>2018-07-14T05:53:23Z</time>
      </trkpt>
      <trkpt lat="46.26256" lon="6.35414">
        <ele>616</ele>
        <time>2018-07-14T05:53:32Z</time>
      </trkpt>
      <trkpt lat="46.26241" lon="6.35463">
        <ele>617</ele>
        <time>2018-07-14T05:53:43Z</time>
      </trkpt>
      <trkpt lat="46.26227" lon="6.35508">
        <ele>619</ele>
        <time>2018-07-14T05:53:51Z</time>
      </trkpt>
      <trkpt lat="46.26213" lon="6.35557">
        <ele>621</ele>
        <time>2018-07-14T05:54:01Z</time>
      </trkpt>
      <trkpt lat="46.26209" lon="6.35573">
        <ele>623</ele>
        <time>2018-07-14T05:54:04Z</time>
      </trkpt>
      <trkpt lat="46.26203" lon="6.35592">
        <ele>624</ele>
        <time>2018-07-14T05:54:08Z</time>
      </trkpt>
      <trkpt lat="46.2619" lon="6.35641">
        <ele>626</ele>
        <time>2018-07-14T05:54:20Z</time>
      </trkpt>
      <trkpt lat="46.26188" lon="6.35644">
        <ele>627</ele>
        <time>2018-07-14T05:54:21Z</time>
      </trkpt>
      <trkpt lat="46.26183" lon="6.35655">
        <ele>628</ele>
        <time>2018-07-14T05:54:26Z</time>
      </trkpt>
      <trkpt lat="46.26179" lon="6.35664">
        <ele>628</ele>
        <time>2018-07-14T05:54:49Z</time>
      </trkpt>
      <trkpt lat="46.26179" lon="6.35667">
        <ele>628</ele>
        <time>2018-07-14T05:54:50Z</time>
      </trkpt>
      <trkpt lat="46.26178" lon="6.35685">
        <ele>628</ele>
        <time>2018-07-14T05:54:52Z</time>
      </trkpt>
      <trkpt lat="46.26177" lon="6.3569">
        <ele>628</ele>
        <time>2018-07-14T05:54:53Z</time>
      </trkpt>
      <trkpt lat="46.26175" lon="6.35694">
        <ele>629</ele>
        <time>2018-07-14T05:54:54Z</time>
      </trkpt>
      <trkpt lat="46.26172" lon="6.35699">
        <ele>629</ele>
        <time>2018-07-14T05:54:55Z</time>
      </trkpt>
      <trkpt lat="46.26147" lon="6.3573">
        <ele>628</ele>
        <time>2018-07-14T05:55:03Z</time>
      </trkpt>
      <trkpt lat="46.26119" lon="6.35755">
        <ele>630</ele>
        <time>2018-07-14T05:55:11Z</time>
      </trkpt>
      <trkpt lat="46.26113" lon="6.3576">
        <ele>630</ele>
        <time>2018-07-14T05:55:13Z</time>
      </trkpt>
      <trkpt lat="46.261" lon="6.35771">
        <ele>629</ele>
        <time>2018-07-14T05:55:17Z</time>
      </trkpt>
      <trkpt lat="46.26073" lon="6.35807">
        <ele>632</ele>
        <time>2018-07-14T05:55:27Z</time>
      </trkpt>
      <trkpt lat="46.2607" lon="6.35811">
        <ele>632</ele>
        <time>2018-07-14T05:55:28Z</time>
      </trkpt>
      <trkpt lat="46.26068" lon="6.35816">
        <ele>632</ele>
        <time>2018-07-14T05:55:29Z</time>
      </trkpt>
      <trkpt lat="46.26038" lon="6.3584">
        <ele>634</ele>
        <time>2018-07-14T05:55:38Z</time>
      </trkpt>
      <trkpt lat="46.26006" lon="6.35862">
        <ele>638</ele>
        <time>2018-07-14T05:55:50Z</time>
      </trkpt>
      <trkpt lat="46.25973" lon="6.35886">
        <ele>639</ele>
        <time>2018-07-14T05:56:02Z</time>
      </trkpt>
      <trkpt lat="46.2597" lon="6.35887">
        <ele>639</ele>
        <time>2018-07-14T05:56:03Z</time>
      </trkpt>
      <trkpt lat="46.25967" lon="6.35888">
        <ele>639</ele>
        <time>2018-07-14T05:56:04Z</time>
      </trkpt>
      <trkpt lat="46.25965" lon="6.35889">
        <ele>640</ele>
        <time>2018-07-14T05:56:05Z</time>
      </trkpt>
      <trkpt lat="46.25962" lon="6.35889">
        <ele>640</ele>
        <time>2018-07-14T05:56:06Z</time>
      </trkpt>
      <trkpt lat="46.25949" lon="6.35885">
        <ele>641</ele>
        <time>2018-07-14T05:56:10Z</time>
      </trkpt>
      <trkpt lat="46.25914" lon="6.35866">
        <ele>644</ele>
        <time>2018-07-14T05:56:22Z</time>
      </trkpt>
      <trkpt lat="46.25908" lon="6.35862">
        <ele>644</ele>
        <time>2018-07-14T05:56:24Z</time>
      </trkpt>
      <trkpt lat="46.25906" lon="6.3586">
        <ele>644</ele>
        <time>2018-07-14T05:56:25Z</time>
      </trkpt>
      <trkpt lat="46.25904" lon="6.35858">
        <ele>644</ele>
        <time>2018-07-14T05:56:26Z</time>
      </trkpt>
      <trkpt lat="46.25901" lon="6.35853">
        <ele>645</ele>
        <time>2018-07-14T05:56:28Z</time>
      </trkpt>
      <trkpt lat="46.25899" lon="6.35852">
        <ele>644</ele>
        <time>2018-07-14T05:56:29Z</time>
      </trkpt>
      <trkpt lat="46.25867" lon="6.35826">
        <ele>644</ele>
        <time>2018-07-14T05:56:39Z</time>
      </trkpt>
      <trkpt lat="46.25834" lon="6.35803">
        <ele>648</ele>
        <time>2018-07-14T05:56:51Z</time>
      </trkpt>
      <trkpt lat="46.25814" lon="6.35784">
        <ele>649</ele>
        <time>2018-07-14T05:56:59Z</time>
      </trkpt>
      <trkpt lat="46.25812" lon="6.35782">
        <ele>650</ele>
        <time>2018-07-14T05:57:00Z</time>
      </trkpt>
      <trkpt lat="46.2581" lon="6.35779">
        <ele>650</ele>
        <time>2018-07-14T05:57:01Z</time>
      </trkpt>
      <trkpt lat="46.25793" lon="6.35748">
        <ele>651</ele>
        <time>2018-07-14T05:57:07Z</time>
      </trkpt>
      <trkpt lat="46.25778" lon="6.35706">
        <ele>652</ele>
        <time>2018-07-14T05:57:16Z</time>
      </trkpt>
      <trkpt lat="46.25775" lon="6.35685">
        <ele>654</ele>
        <time>2018-07-14T05:57:22Z</time>
      </trkpt>
      <trkpt lat="46.25774" lon="6.35682">
        <ele>654</ele>
        <time>2018-07-14T05:57:23Z</time>
      </trkpt>
      <trkpt lat="46.25773" lon="6.35679">
        <ele>655</ele>
        <time>2018-07-14T05:57:24Z</time>
      </trkpt>
      <trkpt lat="46.25771" lon="6.35676">
        <ele>655</ele>
        <time>2018-07-14T05:57:25Z</time>
      </trkpt>
      <trkpt lat="46.2577" lon="6.35674">
        <ele>655</ele>
        <time>2018-07-14T05:57:26Z</time>
      </trkpt>
      <trkpt lat="46.25768" lon="6.35672">
        <ele>656</ele>
        <time>2018-07-14T05:57:27Z</time>
      </trkpt>
      <trkpt lat="46.25766" lon="6.35672">
        <ele>656</ele>
        <time>2018-07-14T05:57:28Z</time>
      </trkpt>
      <trkpt lat="46.25764" lon="6.35672">
        <ele>656</ele>
        <time>2018-07-14T05:57:29Z</time>
      </trkpt>
      <trkpt lat="46.25763" lon="6.35674">
        <ele>656</ele>
        <time>2018-07-14T05:57:30Z</time>
      </trkpt>
      <trkpt lat="46.25761" lon="6.35676">
        <ele>657</ele>
        <time>2018-07-14T05:57:31Z</time>
      </trkpt>
      <trkpt lat="46.2576" lon="6.35679">
        <ele>657</ele>
        <time>2018-07-14T05:57:32Z</time>
      </trkpt>
      <trkpt lat="46.25758" lon="6.35687">
        <ele>658</ele>
        <time>2018-07-14T05:57:34Z</time>
      </trkpt>
      <trkpt lat="46.25753" lon="6.35726">
        <ele>660</ele>
        <time>2018-07-14T05:57:43Z</time>
      </trkpt>
      <trkpt lat="46.25751" lon="6.35778">
        <ele>659</ele>
        <time>2018-07-14T05:57:53Z</time>
      </trkpt>
      <trkpt lat="46.25748" lon="6.35832">
        <ele>663</ele>
        <time>2018-07-14T05:58:04Z</time>
      </trkpt>
      <trkpt lat="46.25748" lon="6.3585">
        <ele>663</ele>
        <time>2018-07-14T05:58:08Z</time>
      </trkpt>
      <trkpt lat="46.25756" lon="6.35885">
        <ele>663</ele>
        <time>2018-07-14T05:58:13Z</time>
      </trkpt>
      <trkpt lat="46.25771" lon="6.35928">
        <ele>664</ele>
        <time>2018-07-14T05:58:21Z</time>
      </trkpt>
      <trkpt lat="46.25776" lon="6.35938">
        <ele>664</ele>
        <time>2018-07-14T05:58:23Z</time>
      </trkpt>
      <trkpt lat="46.25782" lon="6.3596">
        <ele>664</ele>
        <time>2018-07-14T05:58:27Z</time>
      </trkpt>
      <trkpt lat="46.25793" lon="6.36012">
        <ele>667</ele>
        <time>2018-07-14T05:58:39Z</time>
      </trkpt>
      <trkpt lat="46.25804" lon="6.3607">
        <ele>668</ele>
        <time>2018-07-14T05:58:49Z</time>
      </trkpt>
      <trkpt lat="46.25816" lon="6.36122">
        <ele>670</ele>
        <time>2018-07-14T05:59:01Z</time>
      </trkpt>
      <trkpt lat="46.25825" lon="6.36172">
        <ele>673</ele>
        <time>2018-07-14T05:59:12Z</time>
      </trkpt>
      <trkpt lat="46.25825" lon="6.36176">
        <ele>673</ele>
        <time>2018-07-14T05:59:13Z</time>
      </trkpt>
      <trkpt lat="46.25826" lon="6.36181">
        <ele>673</ele>
        <time>2018-07-14T05:59:14Z</time>
      </trkpt>
      <trkpt lat="46.25824" lon="6.36194">
        <ele>673</ele>
        <time>2018-07-14T05:59:15Z</time>
      </trkpt>
      <trkpt lat="46.25816" lon="6.36217">
        <ele>675</ele>
        <time>2018-07-14T05:59:22Z</time>
      </trkpt>
      <trkpt lat="46.25815" lon="6.3622">
        <ele>675</ele>
        <time>2018-07-14T05:59:23Z</time>
      </trkpt>
      <trkpt lat="46.25819" lon="6.36259">
        <ele>674</ele>
        <time>2018-07-14T05:59:32Z</time>
      </trkpt>
      <trkpt lat="46.25827" lon="6.3631">
        <ele>678</ele>
        <time>2018-07-14T05:59:42Z</time>
      </trkpt>
      <trkpt lat="46.25829" lon="6.36361">
        <ele>679</ele>
        <time>2018-07-14T05:59:53Z</time>
      </trkpt>
      <trkpt lat="46.2583" lon="6.36413">
        <ele>682</ele>
        <time>2018-07-14T06:00:04Z</time>
      </trkpt>
      <trkpt lat="46.25828" lon="6.36459">
        <ele>685</ele>
        <time>2018-07-14T06:00:14Z</time>
      </trkpt>
      <trkpt lat="46.25827" lon="6.36464">
        <ele>685</ele>
        <time>2018-07-14T06:00:15Z</time>
      </trkpt>
      <trkpt lat="46.25816" lon="6.36507">
        <ele>686</ele>
        <time>2018-07-14T06:00:25Z</time>
      </trkpt>
      <trkpt lat="46.25805" lon="6.36545">
        <ele>688</ele>
        <time>2018-07-14T06:00:34Z</time>
      </trkpt>
      <trkpt lat="46.25803" lon="6.36548">
        <ele>688</ele>
        <time>2018-07-14T06:00:35Z</time>
      </trkpt>
      <trkpt lat="46.25783" lon="6.36586">
        <ele>689</ele>
        <time>2018-07-14T06:00:45Z</time>
      </trkpt>
      <trkpt lat="46.25782" lon="6.3659">
        <ele>689</ele>
        <time>2018-07-14T06:00:46Z</time>
      </trkpt>
      <trkpt lat="46.25781" lon="6.36594">
        <ele>689</ele>
        <time>2018-07-14T06:00:47Z</time>
      </trkpt>
      <trkpt lat="46.2578" lon="6.36599">
        <ele>689</ele>
        <time>2018-07-14T06:00:48Z</time>
      </trkpt>
      <trkpt lat="46.2578" lon="6.36603">
        <ele>689</ele>
        <time>2018-07-14T06:00:49Z</time>
      </trkpt>
      <trkpt lat="46.25779" lon="6.36648">
        <ele>689</ele>
        <time>2018-07-14T06:00:56Z</time>
      </trkpt>
      <trkpt lat="46.25777" lon="6.36655">
        <ele>689</ele>
        <time>2018-07-14T06:00:58Z</time>
      </trkpt>
      <trkpt lat="46.25775" lon="6.36665">
        <ele>690</ele>
        <time>2018-07-14T06:00:59Z</time>
      </trkpt>
      <trkpt lat="46.25761" lon="6.3671">
        <ele>692</ele>
        <time>2018-07-14T06:01:11Z</time>
      </trkpt>
      <trkpt lat="46.25751" lon="6.36736">
        <ele>693</ele>
        <time>2018-07-14T06:01:15Z</time>
      </trkpt>
      <trkpt lat="46.25748" lon="6.3674">
        <ele>693</ele>
        <time>2018-07-14T06:01:16Z</time>
      </trkpt>
      <trkpt lat="46.25742" lon="6.36747">
        <ele>693</ele>
        <time>2018-07-14T06:01:18Z</time>
      </trkpt>
      <trkpt lat="46.25738" lon="6.36749">
        <ele>692</ele>
        <time>2018-07-14T06:01:19Z</time>
      </trkpt>
      <trkpt lat="46.25737" lon="6.3675">
        <ele>692</ele>
        <time>2018-07-14T06:01:20Z</time>
      </trkpt>
      <trkpt lat="46.25732" lon="6.36752">
        <ele>693</ele>
        <time>2018-07-14T06:01:21Z</time>
      </trkpt>
      <trkpt lat="46.2573" lon="6.36752">
        <ele>693</ele>
        <time>2018-07-14T06:01:22Z</time>
      </trkpt>
      <trkpt lat="46.25723" lon="6.3675">
        <ele>694</ele>
        <time>2018-07-14T06:01:25Z</time>
      </trkpt>
      <trkpt lat="46.25721" lon="6.36748">
        <ele>694</ele>
        <time>2018-07-14T06:01:26Z</time>
      </trkpt>
      <trkpt lat="46.25719" lon="6.36746">
        <ele>694</ele>
        <time>2018-07-14T06:01:27Z</time>
      </trkpt>
      <trkpt lat="46.25717" lon="6.36743">
        <ele>694</ele>
        <time>2018-07-14T06:01:28Z</time>
      </trkpt>
      <trkpt lat="46.25715" lon="6.36739">
        <ele>694</ele>
        <time>2018-07-14T06:01:29Z</time>
      </trkpt>
      <trkpt lat="46.25713" lon="6.36735">
        <ele>693</ele>
        <time>2018-07-14T06:01:30Z</time>
      </trkpt>
      <trkpt lat="46.25712" lon="6.36731">
        <ele>693</ele>
        <time>2018-07-14T06:01:31Z</time>
      </trkpt>
      <trkpt lat="46.25712" lon="6.36726">
        <ele>693</ele>
        <time>2018-07-14T06:01:32Z</time>
      </trkpt>
      <trkpt lat="46.25711" lon="6.36722">
        <ele>694</ele>
        <time>2018-07-14T06:01:33Z</time>
      </trkpt>
      <trkpt lat="46.25712" lon="6.36717">
        <ele>694</ele>
        <time>2018-07-14T06:01:34Z</time>
      </trkpt>
      <trkpt lat="46.25713" lon="6.36712">
        <ele>694</ele>
        <time>2018-07-14T06:01:35Z</time>
      </trkpt>
      <trkpt lat="46.25714" lon="6.36707">
        <ele>694</ele>
        <time>2018-07-14T06:01:36Z</time>
      </trkpt>
      <trkpt lat="46.25727" lon="6.36676">
        <ele>696</ele>
        <time>2018-07-14T06:01:43Z</time>
      </trkpt>
      <trkpt lat="46.25728" lon="6.36671">
        <ele>696</ele>
        <time>2018-07-14T06:01:44Z</time>
      </trkpt>
      <trkpt lat="46.25729" lon="6.36666">
        <ele>697</ele>
        <time>2018-07-14T06:01:45Z</time>
      </trkpt>
      <trkpt lat="46.25729" lon="6.36661">
        <ele>697</ele>
        <time>2018-07-14T06:01:46Z</time>
      </trkpt>
      <trkpt lat="46.2573" lon="6.36656">
        <ele>697</ele>
        <time>2018-07-14T06:01:47Z</time>
      </trkpt>
      <trkpt lat="46.25729" lon="6.36651">
        <ele>697</ele>
        <time>2018-07-14T06:01:48Z</time>
      </trkpt>
      <trkpt lat="46.25728" lon="6.36647">
        <ele>697</ele>
        <time>2018-07-14T06:01:49Z</time>
      </trkpt>
      <trkpt lat="46.25722" lon="6.36625">
        <ele>699</ele>
        <time>2018-07-14T06:01:54Z</time>
      </trkpt>
      <trkpt lat="46.25714" lon="6.36609">
        <ele>700</ele>
        <time>2018-07-14T06:01:58Z</time>
      </trkpt>
      <trkpt lat="46.25694" lon="6.36568">
        <ele>702</ele>
        <time>2018-07-14T06:02:08Z</time>
      </trkpt>
      <trkpt lat="46.25675" lon="6.36522">
        <ele>703</ele>
        <time>2018-07-14T06:02:19Z</time>
      </trkpt>
      <trkpt lat="46.25661" lon="6.36475">
        <ele>706</ele>
        <time>2018-07-14T06:02:29Z</time>
      </trkpt>
      <trkpt lat="46.25649" lon="6.36423">
        <ele>706</ele>
        <time>2018-07-14T06:02:41Z</time>
      </trkpt>
      <trkpt lat="46.2564" lon="6.36371">
        <ele>709</ele>
        <time>2018-07-14T06:02:51Z</time>
      </trkpt>
      <trkpt lat="46.25634" lon="6.36337">
        <ele>710</ele>
        <time>2018-07-14T06:02:59Z</time>
      </trkpt>
      <trkpt lat="46.25633" lon="6.36333">
        <ele>710</ele>
        <time>2018-07-14T06:03:00Z</time>
      </trkpt>
      <trkpt lat="46.25631" lon="6.3633">
        <ele>710</ele>
        <time>2018-07-14T06:03:01Z</time>
      </trkpt>
      <trkpt lat="46.2563" lon="6.36326">
        <ele>710</ele>
        <time>2018-07-14T06:03:02Z</time>
      </trkpt>
      <trkpt lat="46.25628" lon="6.36323">
        <ele>711</ele>
        <time>2018-07-14T06:03:03Z</time>
      </trkpt>
      <trkpt lat="46.25627" lon="6.36321">
        <ele>712</ele>
        <time>2018-07-14T06:03:04Z</time>
      </trkpt>
      <trkpt lat="46.25625" lon="6.36319">
        <ele>712</ele>
        <time>2018-07-14T06:03:05Z</time>
      </trkpt>
      <trkpt lat="46.2562" lon="6.36314">
        <ele>712</ele>
        <time>2018-07-14T06:03:06Z</time>
      </trkpt>
      <trkpt lat="46.25617" lon="6.36313">
        <ele>713</ele>
        <time>2018-07-14T06:03:08Z</time>
      </trkpt>
      <trkpt lat="46.25615" lon="6.36313">
        <ele>713</ele>
        <time>2018-07-14T06:03:10Z</time>
      </trkpt>
      <trkpt lat="46.25613" lon="6.36313">
        <ele>713</ele>
        <time>2018-07-14T06:03:11Z</time>
      </trkpt>
      <trkpt lat="46.25612" lon="6.36313">
        <ele>714</ele>
        <time>2018-07-14T06:03:12Z</time>
      </trkpt>
      <trkpt lat="46.25602" lon="6.36317">
        <ele>714</ele>
        <time>2018-07-14T06:03:17Z</time>
      </trkpt>
      <trkpt lat="46.256" lon="6.36319">
        <ele>714</ele>
        <time>2018-07-14T06:03:18Z</time>
      </trkpt>
      <trkpt lat="46.25598" lon="6.36321">
        <ele>714</ele>
        <time>2018-07-14T06:03:19Z</time>
      </trkpt>
      <trkpt lat="46.25596" lon="6.36323">
        <ele>714</ele>
        <time>2018-07-14T06:03:20Z</time>
      </trkpt>
      <trkpt lat="46.25595" lon="6.36326">
        <ele>714</ele>
        <time>2018-07-14T06:03:21Z</time>
      </trkpt>
      <trkpt lat="46.2558" lon="6.36372">
        <ele>718</ele>
        <time>2018-07-14T06:03:33Z</time>
      </trkpt>
      <trkpt lat="46.25565" lon="6.36421">
        <ele>721</ele>
        <time>2018-07-14T06:03:46Z</time>
      </trkpt>
      <trkpt lat="46.2555" lon="6.36468">
        <ele>723</ele>
        <time>2018-07-14T06:03:57Z</time>
      </trkpt>
      <trkpt lat="46.25533" lon="6.36518">
        <ele>725</ele>
        <time>2018-07-14T06:04:08Z</time>
      </trkpt>
      <trkpt lat="46.25516" lon="6.36568">
        <ele>726</ele>
        <time>2018-07-14T06:04:19Z</time>
      </trkpt>
      <trkpt lat="46.25502" lon="6.36614">
        <ele>727</ele>
        <time>2018-07-14T06:04:29Z</time>
      </trkpt>
      <trkpt lat="46.25485" lon="6.36662">
        <ele>728</ele>
        <time>2018-07-14T06:04:40Z</time>
      </trkpt>
      <trkpt lat="46.25467" lon="6.36707">
        <ele>729</ele>
        <time>2018-07-14T06:04:51Z</time>
      </trkpt>
      <trkpt lat="46.25453" lon="6.36752">
        <ele>730</ele>
        <time>2018-07-14T06:05:02Z</time>
      </trkpt>
      <trkpt lat="46.25445" lon="6.36771">
        <ele>729</ele>
        <time>2018-07-14T06:05:07Z</time>
      </trkpt>
      <trkpt lat="46.25442" lon="6.36782">
        <ele>731</ele>
        <time>2018-07-14T06:05:10Z</time>
      </trkpt>
      <trkpt lat="46.25441" lon="6.36786">
        <ele>732</ele>
        <time>2018-07-14T06:05:11Z</time>
      </trkpt>
      <trkpt lat="46.25438" lon="6.36837">
        <ele>736</ele>
        <time>2018-07-14T06:05:21Z</time>
      </trkpt>
      <trkpt lat="46.25433" lon="6.36886">
        <ele>737</ele>
        <time>2018-07-14T06:05:31Z</time>
      </trkpt>
      <trkpt lat="46.25426" lon="6.36933">
        <ele>739</ele>
        <time>2018-07-14T06:05:41Z</time>
      </trkpt>
      <trkpt lat="46.25418" lon="6.36979">
        <ele>742</ele>
        <time>2018-07-14T06:05:51Z</time>
      </trkpt>
      <trkpt lat="46.2541" lon="6.37035">
        <ele>744</ele>
        <time>2018-07-14T06:06:02Z</time>
      </trkpt>
      <trkpt lat="46.25407" lon="6.37068">
        <ele>745</ele>
        <time>2018-07-14T06:06:10Z</time>
      </trkpt>
      <trkpt lat="46.25398" lon="6.37104">
        <ele>745</ele>
        <time>2018-07-14T06:06:19Z</time>
      </trkpt>
      <trkpt lat="46.2539" lon="6.37126">
        <ele>746</ele>
        <time>2018-07-14T06:06:24Z</time>
      </trkpt>
      <trkpt lat="46.25388" lon="6.3713">
        <ele>746</ele>
        <time>2018-07-14T06:06:25Z</time>
      </trkpt>
      <trkpt lat="46.2536" lon="6.37169">
        <ele>747</ele>
        <time>2018-07-14T06:06:33Z</time>
      </trkpt>
      <trkpt lat="46.25333" lon="6.37206">
        <ele>749</ele>
        <time>2018-07-14T06:06:42Z</time>
      </trkpt>
      <trkpt lat="46.25305" lon="6.37243">
        <ele>751</ele>
        <time>2018-07-14T06:06:54Z</time>
      </trkpt>
      <trkpt lat="46.25279" lon="6.37278">
        <ele>754</ele>
        <time>2018-07-14T06:07:05Z</time>
      </trkpt>
      <trkpt lat="46.25251" lon="6.37316">
        <ele>756</ele>
        <time>2018-07-14T06:07:14Z</time>
      </trkpt>
      <trkpt lat="46.25224" lon="6.37352">
        <ele>756</ele>
        <time>2018-07-14T06:07:23Z</time>
      </trkpt>
      <trkpt lat="46.252" lon="6.37388">
        <ele>755</ele>
        <time>2018-07-14T06:07:31Z</time>
      </trkpt>
      <trkpt lat="46.25178" lon="6.37426">
        <ele>756</ele>
        <time>2018-07-14T06:07:41Z</time>
      </trkpt>
      <trkpt lat="46.25165" lon="6.37451">
        <ele>756</ele>
        <time>2018-07-14T06:07:48Z</time>
      </trkpt>
      <trkpt lat="46.25163" lon="6.37454">
        <ele>757</ele>
        <time>2018-07-14T06:07:49Z</time>
      </trkpt>
      <trkpt lat="46.25161" lon="6.37457">
        <ele>758</ele>
        <time>2018-07-14T06:07:50Z</time>
      </trkpt>
      <trkpt lat="46.25158" lon="6.37459">
        <ele>757</ele>
        <time>2018-07-14T06:07:51Z</time>
      </trkpt>
      <trkpt lat="46.25156" lon="6.37461">
        <ele>758</ele>
        <time>2018-07-14T06:07:52Z</time>
      </trkpt>
      <trkpt lat="46.25154" lon="6.37463">
        <ele>758</ele>
        <time>2018-07-14T06:07:53Z</time>
      </trkpt>
      <trkpt lat="46.25151" lon="6.37464">
        <ele>759</ele>
        <time>2018-07-14T06:07:54Z</time>
      </trkpt>
      <trkpt lat="46.25149" lon="6.37464">
        <ele>759</ele>
        <time>2018-07-14T06:07:55Z</time>
      </trkpt>
      <trkpt lat="46.25147" lon="6.37464">
        <ele>758</ele>
        <time>2018-07-14T06:07:56Z</time>
      </trkpt>
      <trkpt lat="46.25145" lon="6.37464">
        <ele>759</ele>
        <time>2018-07-14T06:07:57Z</time>
      </trkpt>
      <trkpt lat="46.25143" lon="6.37462">
        <ele>760</ele>
        <time>2018-07-14T06:07:58Z</time>
      </trkpt>
      <trkpt lat="46.25142" lon="6.3746">
        <ele>760</ele>
        <time>2018-07-14T06:07:59Z</time>
      </trkpt>
      <trkpt lat="46.25141" lon="6.37455">
        <ele>760</ele>
        <time>2018-07-14T06:08:01Z</time>
      </trkpt>
      <trkpt lat="46.25141" lon="6.37453">
        <ele>761</ele>
        <time>2018-07-14T06:08:02Z</time>
      </trkpt>
      <trkpt lat="46.25141" lon="6.3745">
        <ele>762</ele>
        <time>2018-07-14T06:08:03Z</time>
      </trkpt>
      <trkpt lat="46.25152" lon="6.374">
        <ele>764</ele>
        <time>2018-07-14T06:08:15Z</time>
      </trkpt>
      <trkpt lat="46.25167" lon="6.37341">
        <ele>764</ele>
        <time>2018-07-14T06:08:28Z</time>
      </trkpt>
      <trkpt lat="46.25179" lon="6.37292">
        <ele>767</ele>
        <time>2018-07-14T06:08:42Z</time>
      </trkpt>
      <trkpt lat="46.25191" lon="6.37244">
        <ele>768</ele>
        <time>2018-07-14T06:08:53Z</time>
      </trkpt>
      <trkpt lat="46.25204" lon="6.37192">
        <ele>772</ele>
        <time>2018-07-14T06:09:06Z</time>
      </trkpt>
      <trkpt lat="46.25216" lon="6.37141">
        <ele>773</ele>
        <time>2018-07-14T06:09:18Z</time>
      </trkpt>
      <trkpt lat="46.25229" lon="6.37089">
        <ele>776</ele>
        <time>2018-07-14T06:09:30Z</time>
      </trkpt>
      <trkpt lat="46.25235" lon="6.37044">
        <ele>778</ele>
        <time>2018-07-14T06:09:40Z</time>
      </trkpt>
      <trkpt lat="46.25236" lon="6.37003">
        <ele>781</ele>
        <time>2018-07-14T06:09:49Z</time>
      </trkpt>
      <trkpt lat="46.25233" lon="6.36948">
        <ele>783</ele>
        <time>2018-07-14T06:10:01Z</time>
      </trkpt>
      <trkpt lat="46.2523" lon="6.36893">
        <ele>784</ele>
        <time>2018-07-14T06:10:13Z</time>
      </trkpt>
      <trkpt lat="46.25229" lon="6.3684">
        <ele>787</ele>
        <time>2018-07-14T06:10:24Z</time>
      </trkpt>
      <trkpt lat="46.25227" lon="6.36786">
        <ele>789</ele>
        <time>2018-07-14T06:10:36Z</time>
      </trkpt>
      <trkpt lat="46.25225" lon="6.36738">
        <ele>792</ele>
        <time>2018-07-14T06:10:46Z</time>
      </trkpt>
      <trkpt lat="46.25221" lon="6.36716">
        <ele>793</ele>
        <time>2018-07-14T06:10:51Z</time>
      </trkpt>
      <trkpt lat="46.2522" lon="6.36712">
        <ele>793</ele>
        <time>2018-07-14T06:10:52Z</time>
      </trkpt>
      <trkpt lat="46.25219" lon="6.36708">
        <ele>794</ele>
        <time>2018-07-14T06:10:53Z</time>
      </trkpt>
      <trkpt lat="46.25217" lon="6.36703">
        <ele>792</ele>
        <time>2018-07-14T06:10:54Z</time>
      </trkpt>
      <trkpt lat="46.25215" lon="6.36699">
        <ele>792</ele>
        <time>2018-07-14T06:10:55Z</time>
      </trkpt>
      <trkpt lat="46.25212" lon="6.36696">
        <ele>793</ele>
        <time>2018-07-14T06:10:56Z</time>
      </trkpt>
      <trkpt lat="46.25203" lon="6.36687">
        <ele>793</ele>
        <time>2018-07-14T06:10:59Z</time>
      </trkpt>
      <trkpt lat="46.252" lon="6.36686">
        <ele>793</ele>
        <time>2018-07-14T06:11:00Z</time>
      </trkpt>
      <trkpt lat="46.25198" lon="6.36684">
        <ele>793</ele>
        <time>2018-07-14T06:11:01Z</time>
      </trkpt>
      <trkpt lat="46.25195" lon="6.36683">
        <ele>793</ele>
        <time>2018-07-14T06:11:02Z</time>
      </trkpt>
      <trkpt lat="46.25192" lon="6.36682">
        <ele>793</ele>
        <time>2018-07-14T06:11:03Z</time>
      </trkpt>
      <trkpt lat="46.25189" lon="6.36682">
        <ele>793</ele>
        <time>2018-07-14T06:11:04Z</time>
      </trkpt>
      <trkpt lat="46.25186" lon="6.36683">
        <ele>794</ele>
        <time>2018-07-14T06:11:05Z</time>
      </trkpt>
      <trkpt lat="46.25183" lon="6.36684">
        <ele>794</ele>
        <time>2018-07-14T06:11:06Z</time>
      </trkpt>
      <trkpt lat="46.2518" lon="6.36685">
        <ele>795</ele>
        <time>2018-07-14T06:11:07Z</time>
      </trkpt>
      <trkpt lat="46.25177" lon="6.36687">
        <ele>794</ele>
        <time>2018-07-14T06:11:08Z</time>
      </trkpt>
      <trkpt lat="46.25174" lon="6.36689">
        <ele>794</ele>
        <time>2018-07-14T06:11:09Z</time>
      </trkpt>
      <trkpt lat="46.25172" lon="6.36692">
        <ele>795</ele>
        <time>2018-07-14T06:11:10Z</time>
      </trkpt>
      <trkpt lat="46.2517" lon="6.36695">
        <ele>795</ele>
        <time>2018-07-14T06:11:11Z</time>
      </trkpt>
      <trkpt lat="46.25165" lon="6.36702">
        <ele>794</ele>
        <time>2018-07-14T06:11:13Z</time>
      </trkpt>
      <trkpt lat="46.25157" lon="6.36728">
        <ele>795</ele>
        <time>2018-07-14T06:11:19Z</time>
      </trkpt>
      <trkpt lat="46.25153" lon="6.36751">
        <ele>796</ele>
        <time>2018-07-14T06:11:25Z</time>
      </trkpt>
      <trkpt lat="46.25154" lon="6.36804">
        <ele>797</ele>
        <time>2018-07-14T06:11:36Z</time>
      </trkpt>
      <trkpt lat="46.25153" lon="6.36809">
        <ele>798</ele>
        <time>2018-07-14T06:11:37Z</time>
      </trkpt>
      <trkpt lat="46.25152" lon="6.36819">
        <ele>798</ele>
        <time>2018-07-14T06:11:39Z</time>
      </trkpt>
      <trkpt lat="46.25143" lon="6.36845">
        <ele>799</ele>
        <time>2018-07-14T06:11:45Z</time>
      </trkpt>
      <trkpt lat="46.25138" lon="6.36858">
        <ele>800</ele>
        <time>2018-07-14T06:11:48Z</time>
      </trkpt>
      <trkpt lat="46.25125" lon="6.36879">
        <ele>801</ele>
        <time>2018-07-14T06:11:54Z</time>
      </trkpt>
      <trkpt lat="46.25098" lon="6.36914">
        <ele>804</ele>
        <time>2018-07-14T06:12:05Z</time>
      </trkpt>
      <trkpt lat="46.25071" lon="6.36947">
        <ele>806</ele>
        <time>2018-07-14T06:12:16Z</time>
      </trkpt>
      <trkpt lat="46.25044" lon="6.36982">
        <ele>807</ele>
        <time>2018-07-14T06:12:27Z</time>
      </trkpt>
      <trkpt lat="46.25024" lon="6.37013">
        <ele>807</ele>
        <time>2018-07-14T06:12:36Z</time>
      </trkpt>
      <trkpt lat="46.25022" lon="6.37017">
        <ele>807</ele>
        <time>2018-07-14T06:12:37Z</time>
      </trkpt>
      <trkpt lat="46.25007" lon="6.37064">
        <ele>810</ele>
        <time>2018-07-14T06:12:48Z</time>
      </trkpt>
      <trkpt lat="46.24992" lon="6.3711">
        <ele>813</ele>
        <time>2018-07-14T06:12:59Z</time>
      </trkpt>
      <trkpt lat="46.24975" lon="6.37157">
        <ele>815</ele>
        <time>2018-07-14T06:13:10Z</time>
      </trkpt>
      <trkpt lat="46.24961" lon="6.37193">
        <ele>817</ele>
        <time>2018-07-14T06:13:19Z</time>
      </trkpt>
      <trkpt lat="46.24959" lon="6.37197">
        <ele>817</ele>
        <time>2018-07-14T06:13:20Z</time>
      </trkpt>
      <trkpt lat="46.24939" lon="6.37225">
        <ele>819</ele>
        <time>2018-07-14T06:13:29Z</time>
      </trkpt>
      <trkpt lat="46.24937" lon="6.37227">
        <ele>819</ele>
        <time>2018-07-14T06:13:30Z</time>
      </trkpt>
      <trkpt lat="46.24935" lon="6.37229">
        <ele>820</ele>
        <time>2018-07-14T06:13:31Z</time>
      </trkpt>
      <trkpt lat="46.24932" lon="6.3723">
        <ele>820</ele>
        <time>2018-07-14T06:13:32Z</time>
      </trkpt>
      <trkpt lat="46.24924" lon="6.37233">
        <ele>820</ele>
        <time>2018-07-14T06:13:35Z</time>
      </trkpt>
      <trkpt lat="46.24921" lon="6.37233">
        <ele>820</ele>
        <time>2018-07-14T06:13:36Z</time>
      </trkpt>
      <trkpt lat="46.24904" lon="6.37231">
        <ele>820</ele>
        <time>2018-07-14T06:13:41Z</time>
      </trkpt>
      <trkpt lat="46.24871" lon="6.37215">
        <ele>821</ele>
        <time>2018-07-14T06:13:51Z</time>
      </trkpt>
      <trkpt lat="46.24854" lon="6.37208">
        <ele>822</ele>
        <time>2018-07-14T06:13:54Z</time>
      </trkpt>
      <trkpt lat="46.24848" lon="6.37208">
        <ele>822</ele>
        <time>2018-07-14T06:13:57Z</time>
      </trkpt>
      <trkpt lat="46.24846" lon="6.37209">
        <ele>822</ele>
        <time>2018-07-14T06:13:58Z</time>
      </trkpt>
      <trkpt lat="46.24843" lon="6.3721">
        <ele>822</ele>
        <time>2018-07-14T06:13:59Z</time>
      </trkpt>
      <trkpt lat="46.24838" lon="6.37215">
        <ele>822</ele>
        <time>2018-07-14T06:14:01Z</time>
      </trkpt>
      <trkpt lat="46.24835" lon="6.37218">
        <ele>822</ele>
        <time>2018-07-14T06:14:02Z</time>
      </trkpt>
      <trkpt lat="46.24833" lon="6.37221">
        <ele>822</ele>
        <time>2018-07-14T06:14:03Z</time>
      </trkpt>
      <trkpt lat="46.24822" lon="6.37241">
        <ele>823</ele>
        <time>2018-07-14T06:14:08Z</time>
      </trkpt>
      <trkpt lat="46.2482" lon="6.37249">
        <ele>824</ele>
        <time>2018-07-14T06:14:10Z</time>
      </trkpt>
      <trkpt lat="46.24819" lon="6.37253">
        <ele>824</ele>
        <time>2018-07-14T06:14:11Z</time>
      </trkpt>
      <trkpt lat="46.24819" lon="6.37272">
        <ele>824</ele>
        <time>2018-07-14T06:14:15Z</time>
      </trkpt>
      <trkpt lat="46.2482" lon="6.37277">
        <ele>824</ele>
        <time>2018-07-14T06:14:16Z</time>
      </trkpt>
      <trkpt lat="46.24823" lon="6.37292">
        <ele>824</ele>
        <time>2018-07-14T06:14:19Z</time>
      </trkpt>
      <trkpt lat="46.24829" lon="6.3731">
        <ele>826</ele>
        <time>2018-07-14T06:14:23Z</time>
      </trkpt>
      <trkpt lat="46.2483" lon="6.37314">
        <ele>826</ele>
        <time>2018-07-14T06:14:24Z</time>
      </trkpt>
      <trkpt lat="46.2483" lon="6.37319">
        <ele>827</ele>
        <time>2018-07-14T06:14:25Z</time>
      </trkpt>
      <trkpt lat="46.2483" lon="6.37323">
        <ele>827</ele>
        <time>2018-07-14T06:14:26Z</time>
      </trkpt>
      <trkpt lat="46.2483" lon="6.37327">
        <ele>827</ele>
        <time>2018-07-14T06:14:27Z</time>
      </trkpt>
      <trkpt lat="46.24824" lon="6.37359">
        <ele>828</ele>
        <time>2018-07-14T06:14:34Z</time>
      </trkpt>
      <trkpt lat="46.24821" lon="6.37369">
        <ele>827</ele>
        <time>2018-07-14T06:14:36Z</time>
      </trkpt>
      <trkpt lat="46.24808" lon="6.37399">
        <ele>827</ele>
        <time>2018-07-14T06:14:43Z</time>
      </trkpt>
      <trkpt lat="46.248" lon="6.37415">
        <ele>827</ele>
        <time>2018-07-14T06:14:45Z</time>
      </trkpt>
      <trkpt lat="46.24799" lon="6.37424">
        <ele>828</ele>
        <time>2018-07-14T06:14:48Z</time>
      </trkpt>
      <trkpt lat="46.24794" lon="6.37437">
        <ele>830</ele>
        <time>2018-07-14T06:14:52Z</time>
      </trkpt>
      <trkpt lat="46.24793" lon="6.37441">
        <ele>831</ele>
        <time>2018-07-14T06:14:53Z</time>
      </trkpt>
      <trkpt lat="46.24794" lon="6.37446">
        <ele>830</ele>
        <time>2018-07-14T06:14:54Z</time>
      </trkpt>
      <trkpt lat="46.24795" lon="6.37456">
        <ele>831</ele>
        <time>2018-07-14T06:14:56Z</time>
      </trkpt>
      <trkpt lat="46.24806" lon="6.37486">
        <ele>832</ele>
        <time>2018-07-14T06:15:02Z</time>
      </trkpt>
      <trkpt lat="46.2482" lon="6.37514">
        <ele>832</ele>
        <time>2018-07-14T06:15:07Z</time>
      </trkpt>
      <trkpt lat="46.2483" lon="6.37528">
        <ele>833</ele>
        <time>2018-07-14T06:15:11Z</time>
      </trkpt>
      <trkpt lat="46.24831" lon="6.37531">
        <ele>833</ele>
        <time>2018-07-14T06:15:12Z</time>
      </trkpt>
      <trkpt lat="46.24835" lon="6.37544">
        <ele>834</ele>
        <time>2018-07-14T06:15:16Z</time>
      </trkpt>
      <trkpt lat="46.24841" lon="6.37554">
        <ele>836</ele>
        <time>2018-07-14T06:15:19Z</time>
      </trkpt>
      <trkpt lat="46.24842" lon="6.37558">
        <ele>835</ele>
        <time>2018-07-14T06:15:20Z</time>
      </trkpt>
      <trkpt lat="46.24844" lon="6.37562">
        <ele>835</ele>
        <time>2018-07-14T06:15:21Z</time>
      </trkpt>
      <trkpt lat="46.24845" lon="6.37578">
        <ele>837</ele>
        <time>2018-07-14T06:15:25Z</time>
      </trkpt>
      <trkpt lat="46.24845" lon="6.37583">
        <ele>838</ele>
        <time>2018-07-14T06:15:26Z</time>
      </trkpt>
      <trkpt lat="46.24832" lon="6.37634">
        <ele>841</ele>
        <time>2018-07-14T06:15:36Z</time>
      </trkpt>
      <trkpt lat="46.24834" lon="6.37653">
        <ele>839</ele>
        <time>2018-07-14T06:15:37Z</time>
      </trkpt>
      <trkpt lat="46.24836" lon="6.37663">
        <ele>838</ele>
        <time>2018-07-14T06:15:39Z</time>
      </trkpt>
      <trkpt lat="46.24836" lon="6.37666">
        <ele>837</ele>
        <time>2018-07-14T06:15:40Z</time>
      </trkpt>
      <trkpt lat="46.24835" lon="6.37671">
        <ele>837</ele>
        <time>2018-07-14T06:15:42Z</time>
      </trkpt>
      <trkpt lat="46.24836" lon="6.37676">
        <ele>838</ele>
        <time>2018-07-14T06:15:43Z</time>
      </trkpt>
      <trkpt lat="46.24834" lon="6.37683">
        <ele>838</ele>
        <time>2018-07-14T06:15:45Z</time>
      </trkpt>
      <trkpt lat="46.24832" lon="6.37686">
        <ele>839</ele>
        <time>2018-07-14T06:15:46Z</time>
      </trkpt>
      <trkpt lat="46.24797" lon="6.3771">
        <ele>840</ele>
        <time>2018-07-14T06:15:57Z</time>
      </trkpt>
      <trkpt lat="46.24779" lon="6.37724">
        <ele>842</ele>
        <time>2018-07-14T06:16:03Z</time>
      </trkpt>
      <trkpt lat="46.24773" lon="6.37726">
        <ele>843</ele>
        <time>2018-07-14T06:16:05Z</time>
      </trkpt>
      <trkpt lat="46.24771" lon="6.37729">
        <ele>844</ele>
        <time>2018-07-14T06:16:06Z</time>
      </trkpt>
      <trkpt lat="46.24769" lon="6.37731">
        <ele>844</ele>
        <time>2018-07-14T06:16:07Z</time>
      </trkpt>
      <trkpt lat="46.24767" lon="6.37735">
        <ele>845</ele>
        <time>2018-07-14T06:16:08Z</time>
      </trkpt>
      <trkpt lat="46.2476" lon="6.37756">
        <ele>846</ele>
        <time>2018-07-14T06:16:13Z</time>
      </trkpt>
      <trkpt lat="46.24759" lon="6.37759">
        <ele>846</ele>
        <time>2018-07-14T06:16:14Z</time>
      </trkpt>
      <trkpt lat="46.24748" lon="6.37773">
        <ele>848</ele>
        <time>2018-07-14T06:16:18Z</time>
      </trkpt>
      <trkpt lat="46.24737" lon="6.37798">
        <ele>849</ele>
        <time>2018-07-14T06:16:24Z</time>
      </trkpt>
      <trkpt lat="46.24734" lon="6.37806">
        <ele>849</ele>
        <time>2018-07-14T06:16:26Z</time>
      </trkpt>
      <trkpt lat="46.24733" lon="6.37809">
        <ele>850</ele>
        <time>2018-07-14T06:16:27Z</time>
      </trkpt>
      <trkpt lat="46.24734" lon="6.37814">
        <ele>850</ele>
        <time>2018-07-14T06:16:28Z</time>
      </trkpt>
      <trkpt lat="46.24736" lon="6.3782">
        <ele>850</ele>
        <time>2018-07-14T06:16:29Z</time>
      </trkpt>
      <trkpt lat="46.24738" lon="6.37825">
        <ele>850</ele>
        <time>2018-07-14T06:16:30Z</time>
      </trkpt>
      <trkpt lat="46.24749" lon="6.37845">
        <ele>850</ele>
        <time>2018-07-14T06:16:34Z</time>
      </trkpt>
      <trkpt lat="46.24761" lon="6.37864">
        <ele>851</ele>
        <time>2018-07-14T06:16:39Z</time>
      </trkpt>
      <trkpt lat="46.2477" lon="6.37882">
        <ele>853</ele>
        <time>2018-07-14T06:16:44Z</time>
      </trkpt>
      <trkpt lat="46.2478" lon="6.37929">
        <ele>854</ele>
        <time>2018-07-14T06:16:54Z</time>
      </trkpt>
      <trkpt lat="46.24783" lon="6.37974">
        <ele>856</ele>
        <time>2018-07-14T06:17:04Z</time>
      </trkpt>
      <trkpt lat="46.24785" lon="6.37979">
        <ele>856</ele>
        <time>2018-07-14T06:17:05Z</time>
      </trkpt>
      <trkpt lat="46.24786" lon="6.37983">
        <ele>856</ele>
        <time>2018-07-14T06:17:06Z</time>
      </trkpt>
      <trkpt lat="46.24788" lon="6.37988">
        <ele>856</ele>
        <time>2018-07-14T06:17:07Z</time>
      </trkpt>
      <trkpt lat="46.24799" lon="6.38007">
        <ele>857</ele>
        <time>2018-07-14T06:17:12Z</time>
      </trkpt>
      <trkpt lat="46.24814" lon="6.38025">
        <ele>858</ele>
        <time>2018-07-14T06:17:15Z</time>
      </trkpt>
      <trkpt lat="46.24821" lon="6.3803">
        <ele>860</ele>
        <time>2018-07-14T06:17:17Z</time>
      </trkpt>
      <trkpt lat="46.24823" lon="6.38032">
        <ele>862</ele>
        <time>2018-07-14T06:17:19Z</time>
      </trkpt>
      <trkpt lat="46.24844" lon="6.38069">
        <ele>863</ele>
        <time>2018-07-14T06:17:31Z</time>
      </trkpt>
      <trkpt lat="46.24846" lon="6.38073">
        <ele>863</ele>
        <time>2018-07-14T06:17:32Z</time>
      </trkpt>
      <trkpt lat="46.2485" lon="6.38081">
        <ele>864</ele>
        <time>2018-07-14T06:17:34Z</time>
      </trkpt>
      <trkpt lat="46.24857" lon="6.38102">
        <ele>867</ele>
        <time>2018-07-14T06:17:39Z</time>
      </trkpt>
      <trkpt lat="46.24857" lon="6.38106">
        <ele>868</ele>
        <time>2018-07-14T06:17:40Z</time>
      </trkpt>
      <trkpt lat="46.24853" lon="6.38145">
        <ele>867</ele>
        <time>2018-07-14T06:17:48Z</time>
      </trkpt>
      <trkpt lat="46.24848" lon="6.38167">
        <ele>867</ele>
        <time>2018-07-14T06:17:53Z</time>
      </trkpt>
      <trkpt lat="46.24848" lon="6.38172">
        <ele>867</ele>
        <time>2018-07-14T06:17:54Z</time>
      </trkpt>
      <trkpt lat="46.24848" lon="6.38177">
        <ele>867</ele>
        <time>2018-07-14T06:17:55Z</time>
      </trkpt>
      <trkpt lat="46.24848" lon="6.38182">
        <ele>866</ele>
        <time>2018-07-14T06:17:56Z</time>
      </trkpt>
      <trkpt lat="46.24849" lon="6.38186">
        <ele>866</ele>
        <time>2018-07-14T06:17:57Z</time>
      </trkpt>
      <trkpt lat="46.2485" lon="6.3819">
        <ele>866</ele>
        <time>2018-07-14T06:17:58Z</time>
      </trkpt>
      <trkpt lat="46.24852" lon="6.38193">
        <ele>867</ele>
        <time>2018-07-14T06:17:59Z</time>
      </trkpt>
      <trkpt lat="46.24856" lon="6.38202">
        <ele>867</ele>
        <time>2018-07-14T06:18:01Z</time>
      </trkpt>
      <trkpt lat="46.24878" lon="6.38237">
        <ele>865</ele>
        <time>2018-07-14T06:18:11Z</time>
      </trkpt>
      <trkpt lat="46.24879" lon="6.38241">
        <ele>866</ele>
        <time>2018-07-14T06:18:12Z</time>
      </trkpt>
      <trkpt lat="46.24892" lon="6.3828">
        <ele>869</ele>
        <time>2018-07-14T06:18:21Z</time>
      </trkpt>
      <trkpt lat="46.24908" lon="6.38333">
        <ele>870</ele>
        <time>2018-07-14T06:18:34Z</time>
      </trkpt>
      <trkpt lat="46.24918" lon="6.38358">
        <ele>871</ele>
        <time>2018-07-14T06:18:38Z</time>
      </trkpt>
      <trkpt lat="46.24927" lon="6.38373">
        <ele>873</ele>
        <time>2018-07-14T06:18:43Z</time>
      </trkpt>
      <trkpt lat="46.24928" lon="6.38377">
        <ele>873</ele>
        <time>2018-07-14T06:18:44Z</time>
      </trkpt>
      <trkpt lat="46.24933" lon="6.38391">
        <ele>874</ele>
        <time>2018-07-14T06:18:47Z</time>
      </trkpt>
      <trkpt lat="46.24938" lon="6.38431">
        <ele>875</ele>
        <time>2018-07-14T06:18:55Z</time>
      </trkpt>
      <trkpt lat="46.24939" lon="6.38435">
        <ele>874</ele>
        <time>2018-07-14T06:18:56Z</time>
      </trkpt>
      <trkpt lat="46.24954" lon="6.38464">
        <ele>874</ele>
        <time>2018-07-14T06:19:04Z</time>
      </trkpt>
      <trkpt lat="46.24968" lon="6.38476">
        <ele>875</ele>
        <time>2018-07-14T06:19:09Z</time>
      </trkpt>
      <trkpt lat="46.24984" lon="6.38485">
        <ele>875</ele>
        <time>2018-07-14T06:19:12Z</time>
      </trkpt>
      <trkpt lat="46.25004" lon="6.3849">
        <ele>877</ele>
        <time>2018-07-14T06:19:16Z</time>
      </trkpt>
      <trkpt lat="46.25003" lon="6.38493">
        <ele>878</ele>
        <time>2018-07-14T06:19:17Z</time>
      </trkpt>
      <trkpt lat="46.25004" lon="6.38495">
        <ele>878</ele>
        <time>2018-07-14T06:19:18Z</time>
      </trkpt>
      <trkpt lat="46.25005" lon="6.38497">
        <ele>879</ele>
        <time>2018-07-14T06:19:19Z</time>
      </trkpt>
      <trkpt lat="46.25006" lon="6.385">
        <ele>878</ele>
        <time>2018-07-14T06:19:20Z</time>
      </trkpt>
      <trkpt lat="46.25017" lon="6.3851">
        <ele>882</ele>
        <time>2018-07-14T06:19:24Z</time>
      </trkpt>
      <trkpt lat="46.25028" lon="6.3853">
        <ele>884</ele>
        <time>2018-07-14T06:19:29Z</time>
      </trkpt>
      <trkpt lat="46.25034" lon="6.38541">
        <ele>885</ele>
        <time>2018-07-14T06:19:32Z</time>
      </trkpt>
      <trkpt lat="46.25048" lon="6.38586">
        <ele>882</ele>
        <time>2018-07-14T06:19:43Z</time>
      </trkpt>
      <trkpt lat="46.25066" lon="6.38632">
        <ele>884</ele>
        <time>2018-07-14T06:19:54Z</time>
      </trkpt>
      <trkpt lat="46.25085" lon="6.38675">
        <ele>886</ele>
        <time>2018-07-14T06:20:04Z</time>
      </trkpt>
      <trkpt lat="46.25106" lon="6.38718">
        <ele>891</ele>
        <time>2018-07-14T06:20:16Z</time>
      </trkpt>
      <trkpt lat="46.25109" lon="6.38725">
        <ele>891</ele>
        <time>2018-07-14T06:20:18Z</time>
      </trkpt>
      <trkpt lat="46.25132" lon="6.38762">
        <ele>893</ele>
        <time>2018-07-14T06:20:28Z</time>
      </trkpt>
      <trkpt lat="46.25139" lon="6.38777">
        <ele>893</ele>
        <time>2018-07-14T06:20:32Z</time>
      </trkpt>
      <trkpt lat="46.25142" lon="6.38785">
        <ele>893</ele>
        <time>2018-07-14T06:20:34Z</time>
      </trkpt>
      <trkpt lat="46.25144" lon="6.3879">
        <ele>893</ele>
        <time>2018-07-14T06:20:35Z</time>
      </trkpt>
      <trkpt lat="46.25146" lon="6.38794">
        <ele>894</ele>
        <time>2018-07-14T06:20:36Z</time>
      </trkpt>
      <trkpt lat="46.25168" lon="6.38821">
        <ele>896</ele>
        <time>2018-07-14T06:20:44Z</time>
      </trkpt>
      <trkpt lat="46.25178" lon="6.38839">
        <ele>900</ele>
        <time>2018-07-14T06:20:49Z</time>
      </trkpt>
      <trkpt lat="46.25191" lon="6.38876">
        <ele>900</ele>
        <time>2018-07-14T06:20:58Z</time>
      </trkpt>
      <trkpt lat="46.25202" lon="6.38914">
        <ele>899</ele>
        <time>2018-07-14T06:21:07Z</time>
      </trkpt>
      <trkpt lat="46.25203" lon="6.38918">
        <ele>900</ele>
        <time>2018-07-14T06:21:08Z</time>
      </trkpt>
      <trkpt lat="46.25205" lon="6.38922">
        <ele>901</ele>
        <time>2018-07-14T06:21:09Z</time>
      </trkpt>
      <trkpt lat="46.25207" lon="6.38926">
        <ele>900</ele>
        <time>2018-07-14T06:21:10Z</time>
      </trkpt>
      <trkpt lat="46.25224" lon="6.38951">
        <ele>903</ele>
        <time>2018-07-14T06:21:17Z</time>
      </trkpt>
      <trkpt lat="46.25233" lon="6.38975">
        <ele>904</ele>
        <time>2018-07-14T06:21:23Z</time>
      </trkpt>
      <trkpt lat="46.25245" lon="6.39025">
        <ele>907</ele>
        <time>2018-07-14T06:21:34Z</time>
      </trkpt>
      <trkpt lat="46.25249" lon="6.39043">
        <ele>907</ele>
        <time>2018-07-14T06:21:38Z</time>
      </trkpt>
      <trkpt lat="46.25249" lon="6.39048">
        <ele>907</ele>
        <time>2018-07-14T06:21:39Z</time>
      </trkpt>
      <trkpt lat="46.25249" lon="6.39063">
        <ele>907</ele>
        <time>2018-07-14T06:21:42Z</time>
      </trkpt>
      <trkpt lat="46.25248" lon="6.39067">
        <ele>907</ele>
        <time>2018-07-14T06:21:43Z</time>
      </trkpt>
      <trkpt lat="46.25238" lon="6.39108">
        <ele>906</ele>
        <time>2018-07-14T06:21:53Z</time>
      </trkpt>
      <trkpt lat="46.25229" lon="6.39141">
        <ele>909</ele>
        <time>2018-07-14T06:22:01Z</time>
      </trkpt>
      <trkpt lat="46.25228" lon="6.3915">
        <ele>909</ele>
        <time>2018-07-14T06:22:03Z</time>
      </trkpt>
      <trkpt lat="46.25228" lon="6.39154">
        <ele>909</ele>
        <time>2018-07-14T06:22:04Z</time>
      </trkpt>
      <trkpt lat="46.2523" lon="6.39176">
        <ele>909</ele>
        <time>2018-07-14T06:22:09Z</time>
      </trkpt>
      <trkpt lat="46.25231" lon="6.3918">
        <ele>909</ele>
        <time>2018-07-14T06:22:10Z</time>
      </trkpt>
      <trkpt lat="46.25241" lon="6.39208">
        <ele>909</ele>
        <time>2018-07-14T06:22:14Z</time>
      </trkpt>
      <trkpt lat="46.25242" lon="6.39211">
        <ele>909</ele>
        <time>2018-07-14T06:22:15Z</time>
      </trkpt>
      <trkpt lat="46.25241" lon="6.39237">
        <ele>910</ele>
        <time>2018-07-14T06:22:22Z</time>
      </trkpt>
      <trkpt lat="46.25231" lon="6.39289">
        <ele>913</ele>
        <time>2018-07-14T06:22:33Z</time>
      </trkpt>
      <trkpt lat="46.25222" lon="6.39341">
        <ele>912</ele>
        <time>2018-07-14T06:22:44Z</time>
      </trkpt>
      <trkpt lat="46.25218" lon="6.39364">
        <ele>914</ele>
        <time>2018-07-14T06:22:49Z</time>
      </trkpt>
      <trkpt lat="46.25217" lon="6.39368">
        <ele>915</ele>
        <time>2018-07-14T06:22:50Z</time>
      </trkpt>
      <trkpt lat="46.25218" lon="6.3938">
        <ele>916</ele>
        <time>2018-07-14T06:22:53Z</time>
      </trkpt>
      <trkpt lat="46.25219" lon="6.39385">
        <ele>917</ele>
        <time>2018-07-14T06:22:54Z</time>
      </trkpt>
      <trkpt lat="46.25223" lon="6.39398">
        <ele>917</ele>
        <time>2018-07-14T06:22:57Z</time>
      </trkpt>
      <trkpt lat="46.25224" lon="6.39402">
        <ele>917</ele>
        <time>2018-07-14T06:22:58Z</time>
      </trkpt>
      <trkpt lat="46.2523" lon="6.3945">
        <ele>921</ele>
        <time>2018-07-14T06:23:08Z</time>
      </trkpt>
      <trkpt lat="46.2523" lon="6.39494">
        <ele>923</ele>
        <time>2018-07-14T06:23:17Z</time>
      </trkpt>
      <trkpt lat="46.25222" lon="6.39546">
        <ele>921</ele>
        <time>2018-07-14T06:23:29Z</time>
      </trkpt>
      <trkpt lat="46.25221" lon="6.39556">
        <ele>921</ele>
        <time>2018-07-14T06:23:31Z</time>
      </trkpt>
      <trkpt lat="46.25221" lon="6.3956">
        <ele>922</ele>
        <time>2018-07-14T06:23:32Z</time>
      </trkpt>
      <trkpt lat="46.25222" lon="6.3957">
        <ele>922</ele>
        <time>2018-07-14T06:23:34Z</time>
      </trkpt>
      <trkpt lat="46.25226" lon="6.3958">
        <ele>922</ele>
        <time>2018-07-14T06:23:35Z</time>
      </trkpt>
      <trkpt lat="46.25233" lon="6.39592">
        <ele>922</ele>
        <time>2018-07-14T06:23:39Z</time>
      </trkpt>
      <trkpt lat="46.25263" lon="6.39632">
        <ele>922</ele>
        <time>2018-07-14T06:23:49Z</time>
      </trkpt>
      <trkpt lat="46.25285" lon="6.39672">
        <ele>924</ele>
        <time>2018-07-14T06:24:01Z</time>
      </trkpt>
      <trkpt lat="46.25291" lon="6.39682">
        <ele>923</ele>
        <time>2018-07-14T06:24:04Z</time>
      </trkpt>
      <trkpt lat="46.25293" lon="6.39685">
        <ele>924</ele>
        <time>2018-07-14T06:24:05Z</time>
      </trkpt>
      <trkpt lat="46.25295" lon="6.39692">
        <ele>926</ele>
        <time>2018-07-14T06:24:07Z</time>
      </trkpt>
      <trkpt lat="46.25297" lon="6.39695">
        <ele>928</ele>
        <time>2018-07-14T06:24:08Z</time>
      </trkpt>
      <trkpt lat="46.25303" lon="6.39705">
        <ele>927</ele>
        <time>2018-07-14T06:24:11Z</time>
      </trkpt>
      <trkpt lat="46.25321" lon="6.3975">
        <ele>930</ele>
        <time>2018-07-14T06:24:22Z</time>
      </trkpt>
      <trkpt lat="46.25332" lon="6.39787">
        <ele>931</ele>
        <time>2018-07-14T06:24:30Z</time>
      </trkpt>
      <trkpt lat="46.25344" lon="6.39838">
        <ele>932</ele>
        <time>2018-07-14T06:24:41Z</time>
      </trkpt>
      <trkpt lat="46.25344" lon="6.39853">
        <ele>931</ele>
        <time>2018-07-14T06:24:44Z</time>
      </trkpt>
      <trkpt lat="46.25345" lon="6.39886">
        <ele>936</ele>
        <time>2018-07-14T06:24:52Z</time>
      </trkpt>
      <trkpt lat="46.25345" lon="6.3989">
        <ele>936</ele>
        <time>2018-07-14T06:24:53Z</time>
      </trkpt>
      <trkpt lat="46.25346" lon="6.39893">
        <ele>937</ele>
        <time>2018-07-14T06:24:54Z</time>
      </trkpt>
      <trkpt lat="46.25345" lon="6.39897">
        <ele>936</ele>
        <time>2018-07-14T06:24:55Z</time>
      </trkpt>
      <trkpt lat="46.25335" lon="6.39918">
        <ele>939</ele>
        <time>2018-07-14T06:25:00Z</time>
      </trkpt>
      <trkpt lat="46.2533" lon="6.39937">
        <ele>942</ele>
        <time>2018-07-14T06:25:04Z</time>
      </trkpt>
      <trkpt lat="46.25327" lon="6.39957">
        <ele>942</ele>
        <time>2018-07-14T06:25:08Z</time>
      </trkpt>
      <trkpt lat="46.25327" lon="6.39961">
        <ele>942</ele>
        <time>2018-07-14T06:25:09Z</time>
      </trkpt>
      <trkpt lat="46.25331" lon="6.4">
        <ele>944</ele>
        <time>2018-07-14T06:25:17Z</time>
      </trkpt>
      <trkpt lat="46.25338" lon="6.40029">
        <ele>944</ele>
        <time>2018-07-14T06:25:23Z</time>
      </trkpt>
      <trkpt lat="46.25338" lon="6.40033">
        <ele>944</ele>
        <time>2018-07-14T06:25:24Z</time>
      </trkpt>
      <trkpt lat="46.25338" lon="6.40038">
        <ele>945</ele>
        <time>2018-07-14T06:25:25Z</time>
      </trkpt>
      <trkpt lat="46.25338" lon="6.40043">
        <ele>945</ele>
        <time>2018-07-14T06:25:26Z</time>
      </trkpt>
      <trkpt lat="46.25334" lon="6.40057">
        <ele>945</ele>
        <time>2018-07-14T06:25:29Z</time>
      </trkpt>
      <trkpt lat="46.2533" lon="6.40066">
        <ele>943</ele>
        <time>2018-07-14T06:25:31Z</time>
      </trkpt>
      <trkpt lat="46.25328" lon="6.4007">
        <ele>943</ele>
        <time>2018-07-14T06:25:32Z</time>
      </trkpt>
      <trkpt lat="46.2532" lon="6.40082">
        <ele>944</ele>
        <time>2018-07-14T06:25:36Z</time>
      </trkpt>
      <trkpt lat="46.25314" lon="6.40097">
        <ele>947</ele>
        <time>2018-07-14T06:25:40Z</time>
      </trkpt>
      <trkpt lat="46.25312" lon="6.40108">
        <ele>947</ele>
        <time>2018-07-14T06:25:43Z</time>
      </trkpt>
      <trkpt lat="46.25313" lon="6.40113">
        <ele>948</ele>
        <time>2018-07-14T06:25:44Z</time>
      </trkpt>
      <trkpt lat="46.25328" lon="6.4016">
        <ele>949</ele>
        <time>2018-07-14T06:25:55Z</time>
      </trkpt>
      <trkpt lat="46.25343" lon="6.40203">
        <ele>949</ele>
        <time>2018-07-14T06:26:05Z</time>
      </trkpt>
      <trkpt lat="46.25344" lon="6.40207">
        <ele>950</ele>
        <time>2018-07-14T06:26:06Z</time>
      </trkpt>
      <trkpt lat="46.25361" lon="6.40246">
        <ele>954</ele>
        <time>2018-07-14T06:26:16Z</time>
      </trkpt>
      <trkpt lat="46.25377" lon="6.40278">
        <ele>956</ele>
        <time>2018-07-14T06:26:25Z</time>
      </trkpt>
      <trkpt lat="46.25377" lon="6.40283">
        <ele>956</ele>
        <time>2018-07-14T06:26:26Z</time>
      </trkpt>
      <trkpt lat="46.25378" lon="6.40288">
        <ele>956</ele>
        <time>2018-07-14T06:26:27Z</time>
      </trkpt>
      <trkpt lat="46.25375" lon="6.40325">
        <ele>957</ele>
        <time>2018-07-14T06:26:35Z</time>
      </trkpt>
      <trkpt lat="46.25379" lon="6.40364">
        <ele>958</ele>
        <time>2018-07-14T06:26:42Z</time>
      </trkpt>
      <trkpt lat="46.2538" lon="6.40367">
        <ele>958</ele>
        <time>2018-07-14T06:26:43Z</time>
      </trkpt>
      <trkpt lat="46.25382" lon="6.4037">
        <ele>958</ele>
        <time>2018-07-14T06:26:44Z</time>
      </trkpt>
      <trkpt lat="46.25387" lon="6.40376">
        <ele>958</ele>
        <time>2018-07-14T06:26:46Z</time>
      </trkpt>
      <trkpt lat="46.25389" lon="6.4038">
        <ele>958</ele>
        <time>2018-07-14T06:26:47Z</time>
      </trkpt>
      <trkpt lat="46.25396" lon="6.40395">
        <ele>960</ele>
        <time>2018-07-14T06:26:51Z</time>
      </trkpt>
      <trkpt lat="46.25414" lon="6.40439">
        <ele>962</ele>
        <time>2018-07-14T06:27:02Z</time>
      </trkpt>
      <trkpt lat="46.25421" lon="6.40453">
        <ele>962</ele>
        <time>2018-07-14T06:27:06Z</time>
      </trkpt>
      <trkpt lat="46.25423" lon="6.40462">
        <ele>963</ele>
        <time>2018-07-14T06:27:08Z</time>
      </trkpt>
      <trkpt lat="46.25425" lon="6.40467">
        <ele>964</ele>
        <time>2018-07-14T06:27:09Z</time>
      </trkpt>
      <trkpt lat="46.25425" lon="6.40472">
        <ele>965</ele>
        <time>2018-07-14T06:27:10Z</time>
      </trkpt>
      <trkpt lat="46.25425" lon="6.40477">
        <ele>964</ele>
        <time>2018-07-14T06:27:11Z</time>
      </trkpt>
      <trkpt lat="46.25425" lon="6.40493">
        <ele>964</ele>
        <time>2018-07-14T06:27:12Z</time>
      </trkpt>
      <trkpt lat="46.25424" lon="6.40495">
        <ele>964</ele>
        <time>2018-07-14T06:27:13Z</time>
      </trkpt>
      <trkpt lat="46.25422" lon="6.40497">
        <ele>964</ele>
        <time>2018-07-14T06:27:14Z</time>
      </trkpt>
      <trkpt lat="46.25421" lon="6.40499">
        <ele>964</ele>
        <time>2018-07-14T06:27:15Z</time>
      </trkpt>
      <trkpt lat="46.25419" lon="6.40501">
        <ele>965</ele>
        <time>2018-07-14T06:27:16Z</time>
      </trkpt>
      <trkpt lat="46.25416" lon="6.40503">
        <ele>965</ele>
        <time>2018-07-14T06:27:17Z</time>
      </trkpt>
      <trkpt lat="46.25414" lon="6.40504">
        <ele>965</ele>
        <time>2018-07-14T06:27:18Z</time>
      </trkpt>
      <trkpt lat="46.25411" lon="6.40505">
        <ele>965</ele>
        <time>2018-07-14T06:27:19Z</time>
      </trkpt>
      <trkpt lat="46.25409" lon="6.40505">
        <ele>966</ele>
        <time>2018-07-14T06:27:20Z</time>
      </trkpt>
      <trkpt lat="46.25406" lon="6.40505">
        <ele>966</ele>
        <time>2018-07-14T06:27:21Z</time>
      </trkpt>
      <trkpt lat="46.25404" lon="6.40504">
        <ele>966</ele>
        <time>2018-07-14T06:27:22Z</time>
      </trkpt>
      <trkpt lat="46.25401" lon="6.40503">
        <ele>965</ele>
        <time>2018-07-14T06:27:23Z</time>
      </trkpt>
      <trkpt lat="46.25398" lon="6.40501">
        <ele>966</ele>
        <time>2018-07-14T06:27:24Z</time>
      </trkpt>
      <trkpt lat="46.25396" lon="6.40499">
        <ele>966</ele>
        <time>2018-07-14T06:27:25Z</time>
      </trkpt>
      <trkpt lat="46.25394" lon="6.40497">
        <ele>966</ele>
        <time>2018-07-14T06:27:26Z</time>
      </trkpt>
      <trkpt lat="46.25393" lon="6.40494">
        <ele>967</ele>
        <time>2018-07-14T06:27:27Z</time>
      </trkpt>
      <trkpt lat="46.2539" lon="6.40487">
        <ele>968</ele>
        <time>2018-07-14T06:27:29Z</time>
      </trkpt>
      <trkpt lat="46.25388" lon="6.40484">
        <ele>968</ele>
        <time>2018-07-14T06:27:30Z</time>
      </trkpt>
      <trkpt lat="46.25385" lon="6.40468">
        <ele>969</ele>
        <time>2018-07-14T06:27:34Z</time>
      </trkpt>
      <trkpt lat="46.25369" lon="6.4042">
        <ele>968</ele>
        <time>2018-07-14T06:27:45Z</time>
      </trkpt>
      <trkpt lat="46.25359" lon="6.40392">
        <ele>968</ele>
        <time>2018-07-14T06:27:52Z</time>
      </trkpt>
      <trkpt lat="46.25357" lon="6.40388">
        <ele>968</ele>
        <time>2018-07-14T06:27:53Z</time>
      </trkpt>
      <trkpt lat="46.25354" lon="6.40385">
        <ele>968</ele>
        <time>2018-07-14T06:27:54Z</time>
      </trkpt>
      <trkpt lat="46.25343" lon="6.40371">
        <ele>969</ele>
        <time>2018-07-14T06:27:56Z</time>
      </trkpt>
      <trkpt lat="46.25341" lon="6.40368">
        <ele>969</ele>
        <time>2018-07-14T06:27:57Z</time>
      </trkpt>
      <trkpt lat="46.25339" lon="6.40362">
        <ele>969</ele>
        <time>2018-07-14T06:27:59Z</time>
      </trkpt>
      <trkpt lat="46.25335" lon="6.40355">
        <ele>969</ele>
        <time>2018-07-14T06:28:01Z</time>
      </trkpt>
      <trkpt lat="46.25306" lon="6.40319">
        <ele>970</ele>
        <time>2018-07-14T06:28:13Z</time>
      </trkpt>
      <trkpt lat="46.2528" lon="6.40287">
        <ele>972</ele>
        <time>2018-07-14T06:28:23Z</time>
      </trkpt>
      <trkpt lat="46.25252" lon="6.4025">
        <ele>972</ele>
        <time>2018-07-14T06:28:34Z</time>
      </trkpt>
      <trkpt lat="46.25214" lon="6.40181">
        <ele>977</ele>
        <time>2018-07-14T06:28:52Z</time>
      </trkpt>
      <trkpt lat="46.25189" lon="6.40144">
        <ele>979</ele>
        <time>2018-07-14T06:29:02Z</time>
      </trkpt>
      <trkpt lat="46.25163" lon="6.40112">
        <ele>980</ele>
        <time>2018-07-14T06:29:10Z</time>
      </trkpt>
      <trkpt lat="46.25135" lon="6.40089">
        <ele>982</ele>
        <time>2018-07-14T06:29:19Z</time>
      </trkpt>
      <trkpt lat="46.25101" lon="6.40066">
        <ele>985</ele>
        <time>2018-07-14T06:29:29Z</time>
      </trkpt>
      <trkpt lat="46.25065" lon="6.40045">
        <ele>986</ele>
        <time>2018-07-14T06:29:39Z</time>
      </trkpt>
      <trkpt lat="46.25034" lon="6.40026">
        <ele>988</ele>
        <time>2018-07-14T06:29:48Z</time>
      </trkpt>
      <trkpt lat="46.25002" lon="6.39996">
        <ele>989</ele>
        <time>2018-07-14T06:29:58Z</time>
      </trkpt>
      <trkpt lat="46.2497" lon="6.39966">
        <ele>988</ele>
        <time>2018-07-14T06:30:10Z</time>
      </trkpt>
      <trkpt lat="46.24968" lon="6.39964">
        <ele>988</ele>
        <time>2018-07-14T06:30:11Z</time>
      </trkpt>
      <trkpt lat="46.24946" lon="6.39918">
        <ele>990</ele>
        <time>2018-07-14T06:30:20Z</time>
      </trkpt>
      <trkpt lat="46.24926" lon="6.39881">
        <ele>991</ele>
        <time>2018-07-14T06:30:28Z</time>
      </trkpt>
      <trkpt lat="46.2492" lon="6.39869">
        <ele>991</ele>
        <time>2018-07-14T06:30:31Z</time>
      </trkpt>
      <trkpt lat="46.24916" lon="6.39866">
        <ele>991</ele>
        <time>2018-07-14T06:30:32Z</time>
      </trkpt>
      <trkpt lat="46.24883" lon="6.39842">
        <ele>993</ele>
        <time>2018-07-14T06:30:40Z</time>
      </trkpt>
      <trkpt lat="46.2485" lon="6.39821">
        <ele>995</ele>
        <time>2018-07-14T06:30:47Z</time>
      </trkpt>
      <trkpt lat="46.24814" lon="6.39798">
        <ele>995</ele>
        <time>2018-07-14T06:30:54Z</time>
      </trkpt>
      <trkpt lat="46.24794" lon="6.39785">
        <ele>995</ele>
        <time>2018-07-14T06:31:00Z</time>
      </trkpt>
      <trkpt lat="46.24791" lon="6.39785">
        <ele>995</ele>
        <time>2018-07-14T06:31:01Z</time>
      </trkpt>
      <trkpt lat="46.24787" lon="6.39786">
        <ele>995</ele>
        <time>2018-07-14T06:31:03Z</time>
      </trkpt>
      <trkpt lat="46.24784" lon="6.39785">
        <ele>995</ele>
        <time>2018-07-14T06:31:04Z</time>
      </trkpt>
      <trkpt lat="46.24769" lon="6.39779">
        <ele>995</ele>
        <time>2018-07-14T06:31:07Z</time>
      </trkpt>
      <trkpt lat="46.24757" lon="6.39778">
        <ele>995</ele>
        <time>2018-07-14T06:31:10Z</time>
      </trkpt>
      <trkpt lat="46.24755" lon="6.39777">
        <ele>995</ele>
        <time>2018-07-14T06:31:11Z</time>
      </trkpt>
      <trkpt lat="46.24754" lon="6.39776">
        <ele>995</ele>
        <time>2018-07-14T06:31:12Z</time>
      </trkpt>
      <trkpt lat="46.24753" lon="6.39776">
        <ele>995</ele>
        <time>2018-07-14T06:31:16Z</time>
      </trkpt>
      <trkpt lat="46.24752" lon="6.39778">
        <ele>997</ele>
        <time>2018-07-14T06:31:26Z</time>
      </trkpt>
      <trkpt lat="46.24751" lon="6.39781">
        <ele>997</ele>
        <time>2018-07-14T06:31:48Z</time>
      </trkpt>
      <trkpt lat="46.24752" lon="6.39779">
        <ele>999</ele>
        <time>2018-07-14T06:32:11Z</time>
      </trkpt>
      <trkpt lat="46.24751" lon="6.39774">
        <ele>999</ele>
        <time>2018-07-14T06:34:04Z</time>
      </trkpt>
      <trkpt lat="46.24749" lon="6.3977">
        <ele>1000</ele>
        <time>2018-07-14T06:34:09Z</time>
      </trkpt>
      <trkpt lat="46.24747" lon="6.39769">
        <ele>999</ele>
        <time>2018-07-14T06:34:10Z</time>
      </trkpt>
      <trkpt lat="46.24746" lon="6.39767">
        <ele>999</ele>
        <time>2018-07-14T06:34:11Z</time>
      </trkpt>
      <trkpt lat="46.24737" lon="6.39764">
        <ele>999</ele>
        <time>2018-07-14T06:34:12Z</time>
      </trkpt>
      <trkpt lat="46.24702" lon="6.39753">
        <ele>997</ele>
        <time>2018-07-14T06:34:18Z</time>
      </trkpt>
      <trkpt lat="46.24662" lon="6.39744">
        <ele>994</ele>
        <time>2018-07-14T06:34:24Z</time>
      </trkpt>
      <trkpt lat="46.24616" lon="6.39728">
        <ele>991</ele>
        <time>2018-07-14T06:34:30Z</time>
      </trkpt>
      <trkpt lat="46.24561" lon="6.39713">
        <ele>988</ele>
        <time>2018-07-14T06:34:36Z</time>
      </trkpt>
      <trkpt lat="46.24505" lon="6.39697">
        <ele>984</ele>
        <time>2018-07-14T06:34:42Z</time>
      </trkpt>
      <trkpt lat="46.24455" lon="6.39681">
        <ele>981</ele>
        <time>2018-07-14T06:34:47Z</time>
      </trkpt>
      <trkpt lat="46.24404" lon="6.39675">
        <ele>978</ele>
        <time>2018-07-14T06:34:52Z</time>
      </trkpt>
      <trkpt lat="46.24351" lon="6.3966">
        <ele>977</ele>
        <time>2018-07-14T06:34:57Z</time>
      </trkpt>
      <trkpt lat="46.24318" lon="6.39654">
        <ele>975</ele>
        <time>2018-07-14T06:35:00Z</time>
      </trkpt>
      <trkpt lat="46.24297" lon="6.39659">
        <ele>974</ele>
        <time>2018-07-14T06:35:02Z</time>
      </trkpt>
      <trkpt lat="46.24286" lon="6.39664">
        <ele>973</ele>
        <time>2018-07-14T06:35:03Z</time>
      </trkpt>
      <trkpt lat="46.24276" lon="6.3967">
        <ele>974</ele>
        <time>2018-07-14T06:35:04Z</time>
      </trkpt>
      <trkpt lat="46.24258" lon="6.39691">
        <ele>973</ele>
        <time>2018-07-14T06:35:06Z</time>
      </trkpt>
      <trkpt lat="46.24247" lon="6.39698">
        <ele>971</ele>
        <time>2018-07-14T06:35:07Z</time>
      </trkpt>
      <trkpt lat="46.24235" lon="6.39702">
        <ele>971</ele>
        <time>2018-07-14T06:35:08Z</time>
      </trkpt>
      <trkpt lat="46.24224" lon="6.397">
        <ele>970</ele>
        <time>2018-07-14T06:35:09Z</time>
      </trkpt>
      <trkpt lat="46.24214" lon="6.39695">
        <ele>968</ele>
        <time>2018-07-14T06:35:10Z</time>
      </trkpt>
      <trkpt lat="46.24158" lon="6.39663">
        <ele>964</ele>
        <time>2018-07-14T06:35:15Z</time>
      </trkpt>
      <trkpt lat="46.24099" lon="6.39644">
        <ele>959</ele>
        <time>2018-07-14T06:35:20Z</time>
      </trkpt>
      <trkpt lat="46.2404" lon="6.39625">
        <ele>957</ele>
        <time>2018-07-14T06:35:25Z</time>
      </trkpt>
      <trkpt lat="46.23982" lon="6.39606">
        <ele>955</ele>
        <time>2018-07-14T06:35:30Z</time>
      </trkpt>
      <trkpt lat="46.23962" lon="6.3959">
        <ele>954</ele>
        <time>2018-07-14T06:35:32Z</time>
      </trkpt>
      <trkpt lat="46.23954" lon="6.39579">
        <ele>953</ele>
        <time>2018-07-14T06:35:33Z</time>
      </trkpt>
      <trkpt lat="46.23943" lon="6.39529">
        <ele>951</ele>
        <time>2018-07-14T06:35:36Z</time>
      </trkpt>
      <trkpt lat="46.23937" lon="6.39514">
        <ele>951</ele>
        <time>2018-07-14T06:35:37Z</time>
      </trkpt>
      <trkpt lat="46.23928" lon="6.39501">
        <ele>950</ele>
        <time>2018-07-14T06:35:38Z</time>
      </trkpt>
      <trkpt lat="46.23919" lon="6.39489">
        <ele>949</ele>
        <time>2018-07-14T06:35:39Z</time>
      </trkpt>
      <trkpt lat="46.23909" lon="6.39479">
        <ele>949</ele>
        <time>2018-07-14T06:35:40Z</time>
      </trkpt>
      <trkpt lat="46.23865" lon="6.39445">
        <ele>947</ele>
        <time>2018-07-14T06:35:44Z</time>
      </trkpt>
      <trkpt lat="46.23853" lon="6.39439">
        <ele>946</ele>
        <time>2018-07-14T06:35:45Z</time>
      </trkpt>
      <trkpt lat="46.2384" lon="6.39435">
        <ele>945</ele>
        <time>2018-07-14T06:35:46Z</time>
      </trkpt>
      <trkpt lat="46.23828" lon="6.39435">
        <ele>945</ele>
        <time>2018-07-14T06:35:47Z</time>
      </trkpt>
      <trkpt lat="46.23815" lon="6.39436">
        <ele>943</ele>
        <time>2018-07-14T06:35:48Z</time>
      </trkpt>
      <trkpt lat="46.23803" lon="6.3944">
        <ele>943</ele>
        <time>2018-07-14T06:35:49Z</time>
      </trkpt>
      <trkpt lat="46.23744" lon="6.39461">
        <ele>941</ele>
        <time>2018-07-14T06:35:54Z</time>
      </trkpt>
      <trkpt lat="46.23683" lon="6.39478">
        <ele>938</ele>
        <time>2018-07-14T06:35:59Z</time>
      </trkpt>
      <trkpt lat="46.23658" lon="6.39484">
        <ele>935</ele>
        <time>2018-07-14T06:36:01Z</time>
      </trkpt>
      <trkpt lat="46.23646" lon="6.39484">
        <ele>934</ele>
        <time>2018-07-14T06:36:02Z</time>
      </trkpt>
      <trkpt lat="46.23632" lon="6.39481">
        <ele>933</ele>
        <time>2018-07-14T06:36:03Z</time>
      </trkpt>
      <trkpt lat="46.23571" lon="6.39457">
        <ele>929</ele>
        <time>2018-07-14T06:36:08Z</time>
      </trkpt>
      <trkpt lat="46.23559" lon="6.39456">
        <ele>929</ele>
        <time>2018-07-14T06:36:09Z</time>
      </trkpt>
      <trkpt lat="46.23547" lon="6.39458">
        <ele>927</ele>
        <time>2018-07-14T06:36:10Z</time>
      </trkpt>
      <trkpt lat="46.23537" lon="6.39465">
        <ele>927</ele>
        <time>2018-07-14T06:36:11Z</time>
      </trkpt>
      <trkpt lat="46.23528" lon="6.39476">
        <ele>927</ele>
        <time>2018-07-14T06:36:12Z</time>
      </trkpt>
      <trkpt lat="46.23519" lon="6.39489">
        <ele>927</ele>
        <time>2018-07-14T06:36:13Z</time>
      </trkpt>
      <trkpt lat="46.23496" lon="6.39529">
        <ele>926</ele>
        <time>2018-07-14T06:36:16Z</time>
      </trkpt>
      <trkpt lat="46.23488" lon="6.39539">
        <ele>926</ele>
        <time>2018-07-14T06:36:17Z</time>
      </trkpt>
      <trkpt lat="46.23474" lon="6.39532">
        <ele>925</ele>
        <time>2018-07-14T06:36:18Z</time>
      </trkpt>
      <trkpt lat="46.23414" lon="6.39531">
        <ele>919</ele>
        <time>2018-07-14T06:36:23Z</time>
      </trkpt>
      <trkpt lat="46.23368" lon="6.39522">
        <ele>917</ele>
        <time>2018-07-14T06:36:27Z</time>
      </trkpt>
      <trkpt lat="46.23356" lon="6.39518">
        <ele>916</ele>
        <time>2018-07-14T06:36:28Z</time>
      </trkpt>
      <trkpt lat="46.23345" lon="6.39513">
        <ele>916</ele>
        <time>2018-07-14T06:36:29Z</time>
      </trkpt>
      <trkpt lat="46.23334" lon="6.39505">
        <ele>916</ele>
        <time>2018-07-14T06:36:30Z</time>
      </trkpt>
      <trkpt lat="46.23325" lon="6.39495">
        <ele>915</ele>
        <time>2018-07-14T06:36:31Z</time>
      </trkpt>
      <trkpt lat="46.23301" lon="6.3946">
        <ele>914</ele>
        <time>2018-07-14T06:36:34Z</time>
      </trkpt>
      <trkpt lat="46.2329" lon="6.39449">
        <ele>912</ele>
        <time>2018-07-14T06:36:35Z</time>
      </trkpt>
      <trkpt lat="46.23278" lon="6.39443">
        <ele>912</ele>
        <time>2018-07-14T06:36:36Z</time>
      </trkpt>
      <trkpt lat="46.23233" lon="6.3943">
        <ele>910</ele>
        <time>2018-07-14T06:36:40Z</time>
      </trkpt>
      <trkpt lat="46.23222" lon="6.39427">
        <ele>910</ele>
        <time>2018-07-14T06:36:41Z</time>
      </trkpt>
      <trkpt lat="46.2321" lon="6.39428">
        <ele>910</ele>
        <time>2018-07-14T06:36:42Z</time>
      </trkpt>
      <trkpt lat="46.23198" lon="6.39431">
        <ele>909</ele>
        <time>2018-07-14T06:36:43Z</time>
      </trkpt>
      <trkpt lat="46.23187" lon="6.39435">
        <ele>908</ele>
        <time>2018-07-14T06:36:44Z</time>
      </trkpt>
      <trkpt lat="46.23137" lon="6.39482">
        <ele>905</ele>
        <time>2018-07-14T06:36:49Z</time>
      </trkpt>
      <trkpt lat="46.23089" lon="6.39526">
        <ele>900</ele>
        <time>2018-07-14T06:36:54Z</time>
      </trkpt>
      <trkpt lat="46.23077" lon="6.39528">
        <ele>899</ele>
        <time>2018-07-14T06:36:55Z</time>
      </trkpt>
      <trkpt lat="46.23067" lon="6.39528">
        <ele>898</ele>
        <time>2018-07-14T06:36:56Z</time>
      </trkpt>
      <trkpt lat="46.23057" lon="6.39516">
        <ele>897</ele>
        <time>2018-07-14T06:36:57Z</time>
      </trkpt>
      <trkpt lat="46.23048" lon="6.39509">
        <ele>896</ele>
        <time>2018-07-14T06:36:58Z</time>
      </trkpt>
      <trkpt lat="46.23038" lon="6.39505">
        <ele>895</ele>
        <time>2018-07-14T06:36:59Z</time>
      </trkpt>
      <trkpt lat="46.23028" lon="6.39501">
        <ele>895</ele>
        <time>2018-07-14T06:37:00Z</time>
      </trkpt>
      <trkpt lat="46.22971" lon="6.39498">
        <ele>890</ele>
        <time>2018-07-14T06:37:05Z</time>
      </trkpt>
      <trkpt lat="46.22949" lon="6.39495">
        <ele>890</ele>
        <time>2018-07-14T06:37:07Z</time>
      </trkpt>
      <trkpt lat="46.22937" lon="6.39491">
        <ele>890</ele>
        <time>2018-07-14T06:37:08Z</time>
      </trkpt>
      <trkpt lat="46.22917" lon="6.39473">
        <ele>891</ele>
        <time>2018-07-14T06:37:10Z</time>
      </trkpt>
      <trkpt lat="46.22895" lon="6.39462">
        <ele>890</ele>
        <time>2018-07-14T06:37:12Z</time>
      </trkpt>
      <trkpt lat="46.2283" lon="6.39451">
        <ele>884</ele>
        <time>2018-07-14T06:37:18Z</time>
      </trkpt>
      <trkpt lat="46.22791" lon="6.39446">
        <ele>883</ele>
        <time>2018-07-14T06:37:21Z</time>
      </trkpt>
      <trkpt lat="46.22727" lon="6.39449">
        <ele>882</ele>
        <time>2018-07-14T06:37:26Z</time>
      </trkpt>
      <trkpt lat="46.22665" lon="6.3945">
        <ele>876</ele>
        <time>2018-07-14T06:37:31Z</time>
      </trkpt>
      <trkpt lat="46.22642" lon="6.3945">
        <ele>874</ele>
        <time>2018-07-14T06:37:33Z</time>
      </trkpt>
      <trkpt lat="46.22631" lon="6.39452">
        <ele>872</ele>
        <time>2018-07-14T06:37:34Z</time>
      </trkpt>
      <trkpt lat="46.2262" lon="6.39457">
        <ele>872</ele>
        <time>2018-07-14T06:37:35Z</time>
      </trkpt>
      <trkpt lat="46.2261" lon="6.39464">
        <ele>873</ele>
        <time>2018-07-14T06:37:36Z</time>
      </trkpt>
      <trkpt lat="46.22576" lon="6.39502">
        <ele>869</ele>
        <time>2018-07-14T06:37:40Z</time>
      </trkpt>
      <trkpt lat="46.22564" lon="6.39508">
        <ele>869</ele>
        <time>2018-07-14T06:37:41Z</time>
      </trkpt>
      <trkpt lat="46.22541" lon="6.39493">
        <ele>868</ele>
        <time>2018-07-14T06:37:43Z</time>
      </trkpt>
      <trkpt lat="46.22532" lon="6.39491">
        <ele>866</ele>
        <time>2018-07-14T06:37:44Z</time>
      </trkpt>
      <trkpt lat="46.22474" lon="6.39509">
        <ele>863</ele>
        <time>2018-07-14T06:37:49Z</time>
      </trkpt>
      <trkpt lat="46.22415" lon="6.39527">
        <ele>859</ele>
        <time>2018-07-14T06:37:54Z</time>
      </trkpt>
      <trkpt lat="46.22357" lon="6.39544">
        <ele>859</ele>
        <time>2018-07-14T06:37:59Z</time>
      </trkpt>
      <trkpt lat="46.22296" lon="6.39545">
        <ele>856</ele>
        <time>2018-07-14T06:38:04Z</time>
      </trkpt>
      <trkpt lat="46.22234" lon="6.39535">
        <ele>851</ele>
        <time>2018-07-14T06:38:09Z</time>
      </trkpt>
      <trkpt lat="46.22162" lon="6.39529">
        <ele>848</ele>
        <time>2018-07-14T06:38:15Z</time>
      </trkpt>
      <trkpt lat="46.22137" lon="6.39529">
        <ele>847</ele>
        <time>2018-07-14T06:38:17Z</time>
      </trkpt>
      <trkpt lat="46.22125" lon="6.39533">
        <ele>846</ele>
        <time>2018-07-14T06:38:18Z</time>
      </trkpt>
      <trkpt lat="46.22091" lon="6.39553">
        <ele>845</ele>
        <time>2018-07-14T06:38:21Z</time>
      </trkpt>
      <trkpt lat="46.22079" lon="6.39558">
        <ele>845</ele>
        <time>2018-07-14T06:38:22Z</time>
      </trkpt>
      <trkpt lat="46.2207" lon="6.3956">
        <ele>845</ele>
        <time>2018-07-14T06:38:23Z</time>
      </trkpt>
      <trkpt lat="46.22032" lon="6.39542">
        <ele>842</ele>
        <time>2018-07-14T06:38:26Z</time>
      </trkpt>
      <trkpt lat="46.22019" lon="6.39541">
        <ele>840</ele>
        <time>2018-07-14T06:38:27Z</time>
      </trkpt>
      <trkpt lat="46.22006" lon="6.39543">
        <ele>840</ele>
        <time>2018-07-14T06:38:28Z</time>
      </trkpt>
      <trkpt lat="46.21994" lon="6.39547">
        <ele>837</ele>
        <time>2018-07-14T06:38:29Z</time>
      </trkpt>
      <trkpt lat="46.2196" lon="6.3957">
        <ele>835</ele>
        <time>2018-07-14T06:38:32Z</time>
      </trkpt>
      <trkpt lat="46.21939" lon="6.39591">
        <ele>831</ele>
        <time>2018-07-14T06:38:34Z</time>
      </trkpt>
      <trkpt lat="46.2188" lon="6.39627">
        <ele>833</ele>
        <time>2018-07-14T06:38:39Z</time>
      </trkpt>
      <trkpt lat="46.21823" lon="6.39665">
        <ele>832</ele>
        <time>2018-07-14T06:38:44Z</time>
      </trkpt>
      <trkpt lat="46.21774" lon="6.3971">
        <ele>827</ele>
        <time>2018-07-14T06:38:49Z</time>
      </trkpt>
      <trkpt lat="46.21723" lon="6.39758">
        <ele>825</ele>
        <time>2018-07-14T06:38:54Z</time>
      </trkpt>
      <trkpt lat="46.21701" lon="6.39775">
        <ele>825</ele>
        <time>2018-07-14T06:38:56Z</time>
      </trkpt>
      <trkpt lat="46.2169" lon="6.39781">
        <ele>823</ele>
        <time>2018-07-14T06:38:57Z</time>
      </trkpt>
      <trkpt lat="46.21678" lon="6.39785">
        <ele>824</ele>
        <time>2018-07-14T06:38:58Z</time>
      </trkpt>
      <trkpt lat="46.21616" lon="6.39792">
        <ele>823</ele>
        <time>2018-07-14T06:39:03Z</time>
      </trkpt>
      <trkpt lat="46.21556" lon="6.39802">
        <ele>815</ele>
        <time>2018-07-14T06:39:08Z</time>
      </trkpt>
      <trkpt lat="46.21545" lon="6.39803">
        <ele>814</ele>
        <time>2018-07-14T06:39:09Z</time>
      </trkpt>
      <trkpt lat="46.21509" lon="6.39795">
        <ele>883</ele>
        <time>2018-07-14T06:39:12Z</time>
      </trkpt>
      <trkpt lat="46.21452" lon="6.39776">
        <ele>820</ele>
        <time>2018-07-14T06:39:17Z</time>
      </trkpt>
      <trkpt lat="46.21395" lon="6.39755">
        <ele>812</ele>
        <time>2018-07-14T06:39:22Z</time>
      </trkpt>
      <trkpt lat="46.21384" lon="6.39752">
        <ele>811</ele>
        <time>2018-07-14T06:39:23Z</time>
      </trkpt>
      <trkpt lat="46.21373" lon="6.39752">
        <ele>809</ele>
        <time>2018-07-14T06:39:24Z</time>
      </trkpt>
      <trkpt lat="46.21352" lon="6.39758">
        <ele>808</ele>
        <time>2018-07-14T06:39:26Z</time>
      </trkpt>
      <trkpt lat="46.21342" lon="6.39763">
        <ele>807</ele>
        <time>2018-07-14T06:39:27Z</time>
      </trkpt>
      <trkpt lat="46.21333" lon="6.39773">
        <ele>806</ele>
        <time>2018-07-14T06:39:28Z</time>
      </trkpt>
      <trkpt lat="46.21295" lon="6.39831">
        <ele>804</ele>
        <time>2018-07-14T06:39:33Z</time>
      </trkpt>
      <trkpt lat="46.21253" lon="6.3989">
        <ele>801</ele>
        <time>2018-07-14T06:39:38Z</time>
      </trkpt>
      <trkpt lat="46.21212" lon="6.39951">
        <ele>798</ele>
        <time>2018-07-14T06:39:43Z</time>
      </trkpt>
      <trkpt lat="46.21171" lon="6.40009">
        <ele>793</ele>
        <time>2018-07-14T06:39:48Z</time>
      </trkpt>
      <trkpt lat="46.21133" lon="6.40063">
        <ele>794</ele>
        <time>2018-07-14T06:39:53Z</time>
      </trkpt>
      <trkpt lat="46.21098" lon="6.40116">
        <ele>793</ele>
        <time>2018-07-14T06:39:58Z</time>
      </trkpt>
      <trkpt lat="46.21068" lon="6.40159">
        <ele>793</ele>
        <time>2018-07-14T06:40:03Z</time>
      </trkpt>
      <trkpt lat="46.2104" lon="6.40201">
        <ele>793</ele>
        <time>2018-07-14T06:40:08Z</time>
      </trkpt>
      <trkpt lat="46.2101" lon="6.40244">
        <ele>793</ele>
        <time>2018-07-14T06:40:14Z</time>
      </trkpt>
      <trkpt lat="46.20995" lon="6.40264">
        <ele>793</ele>
        <time>2018-07-14T06:40:17Z</time>
      </trkpt>
      <trkpt lat="46.20989" lon="6.40266">
        <ele>794</ele>
        <time>2018-07-14T06:40:18Z</time>
      </trkpt>
      <trkpt lat="46.20983" lon="6.40264">
        <ele>794</ele>
        <time>2018-07-14T06:40:19Z</time>
      </trkpt>
      <trkpt lat="46.20977" lon="6.40258">
        <ele>793</ele>
        <time>2018-07-14T06:40:20Z</time>
      </trkpt>
      <trkpt lat="46.20962" lon="6.40238">
        <ele>792</ele>
        <time>2018-07-14T06:40:23Z</time>
      </trkpt>
      <trkpt lat="46.20956" lon="6.40233">
        <ele>792</ele>
        <time>2018-07-14T06:40:24Z</time>
      </trkpt>
      <trkpt lat="46.20917" lon="6.40208">
        <ele>791</ele>
        <time>2018-07-14T06:40:30Z</time>
      </trkpt>
      <trkpt lat="46.20876" lon="6.40182">
        <ele>791</ele>
        <time>2018-07-14T06:40:36Z</time>
      </trkpt>
      <trkpt lat="46.20845" lon="6.40165">
        <ele>790</ele>
        <time>2018-07-14T06:40:40Z</time>
      </trkpt>
      <trkpt lat="46.20837" lon="6.40162">
        <ele>790</ele>
        <time>2018-07-14T06:40:41Z</time>
      </trkpt>
      <trkpt lat="46.20829" lon="6.40162">
        <ele>789</ele>
        <time>2018-07-14T06:40:42Z</time>
      </trkpt>
      <trkpt lat="46.20822" lon="6.40164">
        <ele>789</ele>
        <time>2018-07-14T06:40:43Z</time>
      </trkpt>
      <trkpt lat="46.20815" lon="6.40171">
        <ele>789</ele>
        <time>2018-07-14T06:40:44Z</time>
      </trkpt>
      <trkpt lat="46.2081" lon="6.40179">
        <ele>790</ele>
        <time>2018-07-14T06:40:45Z</time>
      </trkpt>
      <trkpt lat="46.20789" lon="6.40221">
        <ele>787</ele>
        <time>2018-07-14T06:40:50Z</time>
      </trkpt>
      <trkpt lat="46.20766" lon="6.40259">
        <ele>787</ele>
        <time>2018-07-14T06:40:56Z</time>
      </trkpt>
      <trkpt lat="46.20765" lon="6.40266">
        <ele>788</ele>
        <time>2018-07-14T06:40:57Z</time>
      </trkpt>
      <trkpt lat="46.20765" lon="6.40272">
        <ele>788</ele>
        <time>2018-07-14T06:40:58Z</time>
      </trkpt>
      <trkpt lat="46.20767" lon="6.40279">
        <ele>789</ele>
        <time>2018-07-14T06:40:59Z</time>
      </trkpt>
      <trkpt lat="46.20787" lon="6.40324">
        <ele>791</ele>
        <time>2018-07-14T06:41:06Z</time>
      </trkpt>
      <trkpt lat="46.20807" lon="6.40377">
        <ele>791</ele>
        <time>2018-07-14T06:41:13Z</time>
      </trkpt>
      <trkpt lat="46.20824" lon="6.40422">
        <ele>794</ele>
        <time>2018-07-14T06:41:19Z</time>
      </trkpt>
      <trkpt lat="46.20835" lon="6.40453">
        <ele>795</ele>
        <time>2018-07-14T06:41:23Z</time>
      </trkpt>
      <trkpt lat="46.20848" lon="6.40481">
        <ele>795</ele>
        <time>2018-07-14T06:41:27Z</time>
      </trkpt>
      <trkpt lat="46.20852" lon="6.40488">
        <ele>795</ele>
        <time>2018-07-14T06:41:28Z</time>
      </trkpt>
      <trkpt lat="46.20858" lon="6.40509">
        <ele>793</ele>
        <time>2018-07-14T06:41:31Z</time>
      </trkpt>
      <trkpt lat="46.20857" lon="6.40513">
        <ele>792</ele>
        <time>2018-07-14T06:41:32Z</time>
      </trkpt>
      <trkpt lat="46.20855" lon="6.40516">
        <ele>793</ele>
        <time>2018-07-14T06:41:33Z</time>
      </trkpt>
      <trkpt lat="46.20852" lon="6.40527">
        <ele>792</ele>
        <time>2018-07-14T06:41:35Z</time>
      </trkpt>
      <trkpt lat="46.2085" lon="6.40531">
        <ele>793</ele>
        <time>2018-07-14T06:41:36Z</time>
      </trkpt>
      <trkpt lat="46.2085" lon="6.40537">
        <ele>793</ele>
        <time>2018-07-14T06:41:37Z</time>
      </trkpt>
      <trkpt lat="46.20849" lon="6.40542">
        <ele>793</ele>
        <time>2018-07-14T06:41:39Z</time>
      </trkpt>
      <trkpt lat="46.20845" lon="6.4057">
        <ele>795</ele>
        <time>2018-07-14T06:41:46Z</time>
      </trkpt>
      <trkpt lat="46.20844" lon="6.40573">
        <ele>794</ele>
        <time>2018-07-14T06:41:47Z</time>
      </trkpt>
      <trkpt lat="46.20843" lon="6.40575">
        <ele>794</ele>
        <time>2018-07-14T06:41:48Z</time>
      </trkpt>
      <trkpt lat="46.20842" lon="6.40577">
        <ele>793</ele>
        <time>2018-07-14T06:41:49Z</time>
      </trkpt>
      <trkpt lat="46.20841" lon="6.40579">
        <ele>795</ele>
        <time>2018-07-14T06:41:51Z</time>
      </trkpt>
      <trkpt lat="46.20839" lon="6.4058">
        <ele>795</ele>
        <time>2018-07-14T06:41:59Z</time>
      </trkpt>
      <trkpt lat="46.20833" lon="6.40579">
        <ele>794</ele>
        <time>2018-07-14T06:42:25Z</time>
      </trkpt>
      <trkpt lat="46.20835" lon="6.40574">
        <ele>794</ele>
        <time>2018-07-14T06:43:11Z</time>
      </trkpt>
      <trkpt lat="46.20834" lon="6.40571">
        <ele>797</ele>
        <time>2018-07-14T06:43:17Z</time>
      </trkpt>
      <trkpt lat="46.20832" lon="6.40572">
        <ele>795</ele>
        <time>2018-07-14T06:43:35Z</time>
      </trkpt>
      <trkpt lat="46.2083" lon="6.40573">
        <ele>795</ele>
        <time>2018-07-14T06:43:37Z</time>
      </trkpt>
      <trkpt lat="46.20829" lon="6.40574">
        <ele>795</ele>
        <time>2018-07-14T06:43:38Z</time>
      </trkpt>
      <trkpt lat="46.20827" lon="6.40576">
        <ele>794</ele>
        <time>2018-07-14T06:43:39Z</time>
      </trkpt>
      <trkpt lat="46.20803" lon="6.40609">
        <ele>793</ele>
        <time>2018-07-14T06:43:49Z</time>
      </trkpt>
      <trkpt lat="46.20791" lon="6.40629">
        <ele>792</ele>
        <time>2018-07-14T06:43:53Z</time>
      </trkpt>
      <trkpt lat="46.20776" lon="6.40657">
        <ele>791</ele>
        <time>2018-07-14T06:43:58Z</time>
      </trkpt>
      <trkpt lat="46.2075" lon="6.40695">
        <ele>790</ele>
        <time>2018-07-14T06:44:05Z</time>
      </trkpt>
      <trkpt lat="46.20724" lon="6.40734">
        <ele>790</ele>
        <time>2018-07-14T06:44:12Z</time>
      </trkpt>
      <trkpt lat="46.20697" lon="6.40771">
        <ele>790</ele>
        <time>2018-07-14T06:44:19Z</time>
      </trkpt>
      <trkpt lat="46.20687" lon="6.40786">
        <ele>789</ele>
        <time>2018-07-14T06:44:22Z</time>
      </trkpt>
      <trkpt lat="46.20683" lon="6.4079">
        <ele>789</ele>
        <time>2018-07-14T06:44:23Z</time>
      </trkpt>
      <trkpt lat="46.20679" lon="6.4079">
        <ele>788</ele>
        <time>2018-07-14T06:44:24Z</time>
      </trkpt>
      <trkpt lat="46.20674" lon="6.40788">
        <ele>788</ele>
        <time>2018-07-14T06:44:25Z</time>
      </trkpt>
      <trkpt lat="46.20669" lon="6.40784">
        <ele>788</ele>
        <time>2018-07-14T06:44:26Z</time>
      </trkpt>
      <trkpt lat="46.20639" lon="6.40752">
        <ele>786</ele>
        <time>2018-07-14T06:44:32Z</time>
      </trkpt>
      <trkpt lat="46.20608" lon="6.40728">
        <ele>786</ele>
        <time>2018-07-14T06:44:38Z</time>
      </trkpt>
      <trkpt lat="46.20575" lon="6.40708">
        <ele>787</ele>
        <time>2018-07-14T06:44:44Z</time>
      </trkpt>
      <trkpt lat="46.20542" lon="6.4069">
        <ele>789</ele>
        <time>2018-07-14T06:44:51Z</time>
      </trkpt>
      <trkpt lat="46.20504" lon="6.40661">
        <ele>791</ele>
        <time>2018-07-14T06:45:01Z</time>
      </trkpt>
      <trkpt lat="46.20488" lon="6.40654">
        <ele>792</ele>
        <time>2018-07-14T06:45:05Z</time>
      </trkpt>
      <trkpt lat="46.20451" lon="6.40645">
        <ele>792</ele>
        <time>2018-07-14T06:45:13Z</time>
      </trkpt>
      <trkpt lat="46.20438" lon="6.40639">
        <ele>792</ele>
        <time>2018-07-14T06:45:16Z</time>
      </trkpt>
      <trkpt lat="46.20404" lon="6.40611">
        <ele>791</ele>
        <time>2018-07-14T06:45:23Z</time>
      </trkpt>
      <trkpt lat="46.20371" lon="6.40586">
        <ele>791</ele>
        <time>2018-07-14T06:45:29Z</time>
      </trkpt>
      <trkpt lat="46.20347" lon="6.40571">
        <ele>791</ele>
        <time>2018-07-14T06:45:33Z</time>
      </trkpt>
      <trkpt lat="46.20309" lon="6.40552">
        <ele>791</ele>
        <time>2018-07-14T06:45:39Z</time>
      </trkpt>
      <trkpt lat="46.20276" lon="6.40535">
        <ele>791</ele>
        <time>2018-07-14T06:45:44Z</time>
      </trkpt>
      <trkpt lat="46.20242" lon="6.40519">
        <ele>790</ele>
        <time>2018-07-14T06:45:49Z</time>
      </trkpt>
      <trkpt lat="46.20208" lon="6.40505">
        <ele>790</ele>
        <time>2018-07-14T06:45:54Z</time>
      </trkpt>
      <trkpt lat="46.2018" lon="6.40482">
        <ele>791</ele>
        <time>2018-07-14T06:45:59Z</time>
      </trkpt>
      <trkpt lat="46.20142" lon="6.40461">
        <ele>789</ele>
        <time>2018-07-14T06:46:05Z</time>
      </trkpt>
      <trkpt lat="46.20102" lon="6.40441">
        <ele>788</ele>
        <time>2018-07-14T06:46:11Z</time>
      </trkpt>
      <trkpt lat="46.20069" lon="6.40427">
        <ele>789</ele>
        <time>2018-07-14T06:46:16Z</time>
      </trkpt>
      <trkpt lat="46.20044" lon="6.4041">
        <ele>790</ele>
        <time>2018-07-14T06:46:20Z</time>
      </trkpt>
      <trkpt lat="46.2001" lon="6.40376">
        <ele>790</ele>
        <time>2018-07-14T06:46:26Z</time>
      </trkpt>
      <trkpt lat="46.19974" lon="6.40349">
        <ele>790</ele>
        <time>2018-07-14T06:46:32Z</time>
      </trkpt>
      <trkpt lat="46.1994" lon="6.40333">
        <ele>792</ele>
        <time>2018-07-14T06:46:38Z</time>
      </trkpt>
      <trkpt lat="46.19928" lon="6.4033">
        <ele>793</ele>
        <time>2018-07-14T06:46:40Z</time>
      </trkpt>
      <trkpt lat="46.19922" lon="6.4033">
        <ele>792</ele>
        <time>2018-07-14T06:46:41Z</time>
      </trkpt>
      <trkpt lat="46.19916" lon="6.4033">
        <ele>792</ele>
        <time>2018-07-14T06:46:42Z</time>
      </trkpt>
      <trkpt lat="46.19881" lon="6.40337">
        <ele>793</ele>
        <time>2018-07-14T06:46:48Z</time>
      </trkpt>
      <trkpt lat="46.1987" lon="6.40336">
        <ele>792</ele>
        <time>2018-07-14T06:46:50Z</time>
      </trkpt>
      <trkpt lat="46.19864" lon="6.40335">
        <ele>792</ele>
        <time>2018-07-14T06:46:51Z</time>
      </trkpt>
      <trkpt lat="46.19859" lon="6.40333">
        <ele>793</ele>
        <time>2018-07-14T06:46:52Z</time>
      </trkpt>
      <trkpt lat="46.19824" lon="6.40311">
        <ele>794</ele>
        <time>2018-07-14T06:46:59Z</time>
      </trkpt>
      <trkpt lat="46.19792" lon="6.40288">
        <ele>794</ele>
        <time>2018-07-14T06:47:05Z</time>
      </trkpt>
      <trkpt lat="46.19758" lon="6.40271">
        <ele>795</ele>
        <time>2018-07-14T06:47:11Z</time>
      </trkpt>
      <trkpt lat="46.19723" lon="6.40252">
        <ele>794</ele>
        <time>2018-07-14T06:47:17Z</time>
      </trkpt>
      <trkpt lat="46.19687" lon="6.40234">
        <ele>794</ele>
        <time>2018-07-14T06:47:23Z</time>
      </trkpt>
      <trkpt lat="46.19653" lon="6.40208">
        <ele>795</ele>
        <time>2018-07-14T06:47:29Z</time>
      </trkpt>
      <trkpt lat="46.19619" lon="6.40177">
        <ele>794</ele>
        <time>2018-07-14T06:47:35Z</time>
      </trkpt>
      <trkpt lat="46.19584" lon="6.40156">
        <ele>792</ele>
        <time>2018-07-14T06:47:40Z</time>
      </trkpt>
      <trkpt lat="46.19548" lon="6.40139">
        <ele>792</ele>
        <time>2018-07-14T06:47:45Z</time>
      </trkpt>
      <trkpt lat="46.19513" lon="6.40126">
        <ele>793</ele>
        <time>2018-07-14T06:47:50Z</time>
      </trkpt>
      <trkpt lat="46.19475" lon="6.40114">
        <ele>793</ele>
        <time>2018-07-14T06:47:56Z</time>
      </trkpt>
      <trkpt lat="46.19437" lon="6.40102">
        <ele>797</ele>
        <time>2018-07-14T06:48:03Z</time>
      </trkpt>
      <trkpt lat="46.19403" lon="6.40094">
        <ele>799</ele>
        <time>2018-07-14T06:48:10Z</time>
      </trkpt>
      <trkpt lat="46.19399" lon="6.40091">
        <ele>799</ele>
        <time>2018-07-14T06:48:11Z</time>
      </trkpt>
      <trkpt lat="46.19366" lon="6.40068">
        <ele>797</ele>
        <time>2018-07-14T06:48:17Z</time>
      </trkpt>
      <trkpt lat="46.19337" lon="6.40048">
        <ele>798</ele>
        <time>2018-07-14T06:48:22Z</time>
      </trkpt>
      <trkpt lat="46.19302" lon="6.40032">
        <ele>799</ele>
        <time>2018-07-14T06:48:28Z</time>
      </trkpt>
      <trkpt lat="46.19282" lon="6.40025">
        <ele>799</ele>
        <time>2018-07-14T06:48:32Z</time>
      </trkpt>
      <trkpt lat="46.19246" lon="6.39999">
        <ele>816</ele>
        <time>2018-07-14T06:48:39Z</time>
      </trkpt>
      <trkpt lat="46.19208" lon="6.3998">
        <ele>804</ele>
        <time>2018-07-14T06:48:49Z</time>
      </trkpt>
      <trkpt lat="46.19207" lon="6.39979">
        <ele>804</ele>
        <time>2018-07-14T06:48:50Z</time>
      </trkpt>
      <trkpt lat="46.19181" lon="6.39954">
        <ele>806</ele>
        <time>2018-07-14T06:49:02Z</time>
      </trkpt>
      <trkpt lat="46.19148" lon="6.39933">
        <ele>809</ele>
        <time>2018-07-14T06:49:11Z</time>
      </trkpt>
      <trkpt lat="46.19111" lon="6.39914">
        <ele>809</ele>
        <time>2018-07-14T06:49:20Z</time>
      </trkpt>
      <trkpt lat="46.19077" lon="6.39898">
        <ele>810</ele>
        <time>2018-07-14T06:49:28Z</time>
      </trkpt>
      <trkpt lat="46.19059" lon="6.39893">
        <ele>810</ele>
        <time>2018-07-14T06:49:32Z</time>
      </trkpt>
      <trkpt lat="46.19038" lon="6.39892">
        <ele>810</ele>
        <time>2018-07-14T06:49:37Z</time>
      </trkpt>
      <trkpt lat="46.19002" lon="6.39898">
        <ele>811</ele>
        <time>2018-07-14T06:49:46Z</time>
      </trkpt>
      <trkpt lat="46.18993" lon="6.39901">
        <ele>812</ele>
        <time>2018-07-14T06:49:48Z</time>
      </trkpt>
      <trkpt lat="46.1899" lon="6.39901">
        <ele>813</ele>
        <time>2018-07-14T06:49:49Z</time>
      </trkpt>
      <trkpt lat="46.18986" lon="6.39903">
        <ele>813</ele>
        <time>2018-07-14T06:49:50Z</time>
      </trkpt>
      <trkpt lat="46.18952" lon="6.39919">
        <ele>814</ele>
        <time>2018-07-14T06:49:58Z</time>
      </trkpt>
      <trkpt lat="46.18939" lon="6.39923">
        <ele>815</ele>
        <time>2018-07-14T06:50:01Z</time>
      </trkpt>
      <trkpt lat="46.18924" lon="6.39923">
        <ele>816</ele>
        <time>2018-07-14T06:50:04Z</time>
      </trkpt>
      <trkpt lat="46.18912" lon="6.3992">
        <ele>817</ele>
        <time>2018-07-14T06:50:07Z</time>
      </trkpt>
      <trkpt lat="46.1888" lon="6.39919">
        <ele>816</ele>
        <time>2018-07-14T06:50:13Z</time>
      </trkpt>
      <trkpt lat="46.18845" lon="6.3991">
        <ele>817</ele>
        <time>2018-07-14T06:50:25Z</time>
      </trkpt>
      <trkpt lat="46.1884" lon="6.3991">
        <ele>818</ele>
        <time>2018-07-14T06:50:27Z</time>
      </trkpt>
      <trkpt lat="46.18838" lon="6.39909">
        <ele>817</ele>
        <time>2018-07-14T06:50:28Z</time>
      </trkpt>
      <trkpt lat="46.18835" lon="6.39908">
        <ele>818</ele>
        <time>2018-07-14T06:50:29Z</time>
      </trkpt>
      <trkpt lat="46.18804" lon="6.39885">
        <ele>822</ele>
        <time>2018-07-14T06:50:42Z</time>
      </trkpt>
      <trkpt lat="46.18785" lon="6.39877">
        <ele>826</ele>
        <time>2018-07-14T06:50:50Z</time>
      </trkpt>
      <trkpt lat="46.1874" lon="6.39875">
        <ele>832</ele>
        <time>2018-07-14T06:51:08Z</time>
      </trkpt>
      <trkpt lat="46.18709" lon="6.39876">
        <ele>835</ele>
        <time>2018-07-14T06:51:21Z</time>
      </trkpt>
      <trkpt lat="46.18706" lon="6.39876">
        <ele>835</ele>
        <time>2018-07-14T06:51:22Z</time>
      </trkpt>
      <trkpt lat="46.18701" lon="6.39879">
        <ele>836</ele>
        <time>2018-07-14T06:51:24Z</time>
      </trkpt>
      <trkpt lat="46.18699" lon="6.3988">
        <ele>836</ele>
        <time>2018-07-14T06:51:25Z</time>
      </trkpt>
      <trkpt lat="46.18697" lon="6.39882">
        <ele>836</ele>
        <time>2018-07-14T06:51:26Z</time>
      </trkpt>
      <trkpt lat="46.18695" lon="6.39884">
        <ele>836</ele>
        <time>2018-07-14T06:51:27Z</time>
      </trkpt>
      <trkpt lat="46.18681" lon="6.39906">
        <ele>838</ele>
        <time>2018-07-14T06:51:36Z</time>
      </trkpt>
      <trkpt lat="46.18679" lon="6.39907">
        <ele>839</ele>
        <time>2018-07-14T06:51:37Z</time>
      </trkpt>
      <trkpt lat="46.18674" lon="6.39912">
        <ele>840</ele>
        <time>2018-07-14T06:51:40Z</time>
      </trkpt>
      <trkpt lat="46.1867" lon="6.39914">
        <ele>840</ele>
        <time>2018-07-14T06:51:42Z</time>
      </trkpt>
      <trkpt lat="46.18668" lon="6.39915">
        <ele>841</ele>
        <time>2018-07-14T06:51:43Z</time>
      </trkpt>
      <trkpt lat="46.18633" lon="6.39923">
        <ele>843</ele>
        <time>2018-07-14T06:51:58Z</time>
      </trkpt>
      <trkpt lat="46.18597" lon="6.3993">
        <ele>847</ele>
        <time>2018-07-14T06:52:12Z</time>
      </trkpt>
      <trkpt lat="46.1858" lon="6.39932">
        <ele>848</ele>
        <time>2018-07-14T06:52:19Z</time>
      </trkpt>
      <trkpt lat="46.18577" lon="6.39933">
        <ele>848</ele>
        <time>2018-07-14T06:52:20Z</time>
      </trkpt>
      <trkpt lat="46.18575" lon="6.39934">
        <ele>849</ele>
        <time>2018-07-14T06:52:21Z</time>
      </trkpt>
      <trkpt lat="46.18572" lon="6.39936">
        <ele>849</ele>
        <time>2018-07-14T06:52:22Z</time>
      </trkpt>
      <trkpt lat="46.18571" lon="6.39938">
        <ele>849</ele>
        <time>2018-07-14T06:52:23Z</time>
      </trkpt>
      <trkpt lat="46.18566" lon="6.39947">
        <ele>850</ele>
        <time>2018-07-14T06:52:26Z</time>
      </trkpt>
      <trkpt lat="46.18565" lon="6.3995">
        <ele>850</ele>
        <time>2018-07-14T06:52:27Z</time>
      </trkpt>
      <trkpt lat="46.18565" lon="6.39954">
        <ele>850</ele>
        <time>2018-07-14T06:52:28Z</time>
      </trkpt>
      <trkpt lat="46.18566" lon="6.39957">
        <ele>849</ele>
        <time>2018-07-14T06:52:29Z</time>
      </trkpt>
      <trkpt lat="46.18567" lon="6.39961">
        <ele>849</ele>
        <time>2018-07-14T06:52:30Z</time>
      </trkpt>
      <trkpt lat="46.18568" lon="6.39964">
        <ele>850</ele>
        <time>2018-07-14T06:52:31Z</time>
      </trkpt>
      <trkpt lat="46.1857" lon="6.39966">
        <ele>850</ele>
        <time>2018-07-14T06:52:32Z</time>
      </trkpt>
      <trkpt lat="46.18573" lon="6.3997">
        <ele>851</ele>
        <time>2018-07-14T06:52:34Z</time>
      </trkpt>
      <trkpt lat="46.18576" lon="6.39971">
        <ele>851</ele>
        <time>2018-07-14T06:52:35Z</time>
      </trkpt>
      <trkpt lat="46.18596" lon="6.39978">
        <ele>850</ele>
        <time>2018-07-14T06:52:43Z</time>
      </trkpt>
      <trkpt lat="46.18598" lon="6.39979">
        <ele>850</ele>
        <time>2018-07-14T06:52:44Z</time>
      </trkpt>
      <trkpt lat="46.18601" lon="6.39981">
        <ele>851</ele>
        <time>2018-07-14T06:52:45Z</time>
      </trkpt>
      <trkpt lat="46.18603" lon="6.39983">
        <ele>852</ele>
        <time>2018-07-14T06:52:46Z</time>
      </trkpt>
      <trkpt lat="46.18618" lon="6.40004">
        <ele>854</ele>
        <time>2018-07-14T06:52:54Z</time>
      </trkpt>
      <trkpt lat="46.18643" lon="6.40045">
        <ele>858</ele>
        <time>2018-07-14T06:53:09Z</time>
      </trkpt>
      <trkpt lat="46.18669" lon="6.40083">
        <ele>862</ele>
        <time>2018-07-14T06:53:24Z</time>
      </trkpt>
      <trkpt lat="46.18687" lon="6.40109">
        <ele>862</ele>
        <time>2018-07-14T06:53:33Z</time>
      </trkpt>
      <trkpt lat="46.18691" lon="6.40116">
        <ele>862</ele>
        <time>2018-07-14T06:53:35Z</time>
      </trkpt>
      <trkpt lat="46.18691" lon="6.4012">
        <ele>863</ele>
        <time>2018-07-14T06:53:36Z</time>
      </trkpt>
      <trkpt lat="46.18692" lon="6.40124">
        <ele>862</ele>
        <time>2018-07-14T06:53:37Z</time>
      </trkpt>
      <trkpt lat="46.18692" lon="6.40127">
        <ele>862</ele>
        <time>2018-07-14T06:53:38Z</time>
      </trkpt>
      <trkpt lat="46.18691" lon="6.40131">
        <ele>861</ele>
        <time>2018-07-14T06:53:39Z</time>
      </trkpt>
      <trkpt lat="46.1869" lon="6.40134">
        <ele>862</ele>
        <time>2018-07-14T06:53:40Z</time>
      </trkpt>
      <trkpt lat="46.18689" lon="6.40136">
        <ele>861</ele>
        <time>2018-07-14T06:53:41Z</time>
      </trkpt>
      <trkpt lat="46.18687" lon="6.40137">
        <ele>861</ele>
        <time>2018-07-14T06:53:42Z</time>
      </trkpt>
      <trkpt lat="46.18685" lon="6.40138">
        <ele>862</ele>
        <time>2018-07-14T06:53:43Z</time>
      </trkpt>
      <trkpt lat="46.18683" lon="6.40138">
        <ele>862</ele>
        <time>2018-07-14T06:53:44Z</time>
      </trkpt>
      <trkpt lat="46.18681" lon="6.40138">
        <ele>862</ele>
        <time>2018-07-14T06:53:45Z</time>
      </trkpt>
      <trkpt lat="46.18678" lon="6.40137">
        <ele>863</ele>
        <time>2018-07-14T06:53:46Z</time>
      </trkpt>
      <trkpt lat="46.18676" lon="6.40136">
        <ele>863</ele>
        <time>2018-07-14T06:53:47Z</time>
      </trkpt>
      <trkpt lat="46.18674" lon="6.40134">
        <ele>864</ele>
        <time>2018-07-14T06:53:48Z</time>
      </trkpt>
      <trkpt lat="46.18664" lon="6.40122">
        <ele>866</ele>
        <time>2018-07-14T06:53:53Z</time>
      </trkpt>
      <trkpt lat="46.18661" lon="6.4012">
        <ele>866</ele>
        <time>2018-07-14T06:53:54Z</time>
      </trkpt>
      <trkpt lat="46.18659" lon="6.40119">
        <ele>866</ele>
        <time>2018-07-14T06:53:55Z</time>
      </trkpt>
      <trkpt lat="46.18656" lon="6.40117">
        <ele>867</ele>
        <time>2018-07-14T06:53:56Z</time>
      </trkpt>
      <trkpt lat="46.18653" lon="6.40117">
        <ele>867</ele>
        <time>2018-07-14T06:53:57Z</time>
      </trkpt>
      <trkpt lat="46.18629" lon="6.40117">
        <ele>869</ele>
        <time>2018-07-14T06:54:06Z</time>
      </trkpt>
      <trkpt lat="46.18593" lon="6.40121">
        <ele>872</ele>
        <time>2018-07-14T06:54:20Z</time>
      </trkpt>
      <trkpt lat="46.18566" lon="6.40128">
        <ele>874</ele>
        <time>2018-07-14T06:54:31Z</time>
      </trkpt>
      <trkpt lat="46.18544" lon="6.40139">
        <ele>877</ele>
        <time>2018-07-14T06:54:40Z</time>
      </trkpt>
      <trkpt lat="46.1851" lon="6.4016">
        <ele>880</ele>
        <time>2018-07-14T06:54:56Z</time>
      </trkpt>
      <trkpt lat="46.18475" lon="6.40181">
        <ele>883</ele>
        <time>2018-07-14T06:55:11Z</time>
      </trkpt>
      <trkpt lat="46.18452" lon="6.40188">
        <ele>884</ele>
        <time>2018-07-14T06:55:21Z</time>
      </trkpt>
      <trkpt lat="46.1843" lon="6.40187">
        <ele>888</ele>
        <time>2018-07-14T06:55:30Z</time>
      </trkpt>
      <trkpt lat="46.18415" lon="6.40186">
        <ele>891</ele>
        <time>2018-07-14T06:55:36Z</time>
      </trkpt>
      <trkpt lat="46.18398" lon="6.40181">
        <ele>894</ele>
        <time>2018-07-14T06:55:45Z</time>
      </trkpt>
      <trkpt lat="46.18396" lon="6.4018">
        <ele>894</ele>
        <time>2018-07-14T06:55:47Z</time>
      </trkpt>
      <trkpt lat="46.18393" lon="6.4018">
        <ele>894</ele>
        <time>2018-07-14T06:55:48Z</time>
      </trkpt>
      <trkpt lat="46.18385" lon="6.4018">
        <ele>894</ele>
        <time>2018-07-14T06:55:50Z</time>
      </trkpt>
      <trkpt lat="46.18382" lon="6.40179">
        <ele>895</ele>
        <time>2018-07-14T06:55:51Z</time>
      </trkpt>
      <trkpt lat="46.18373" lon="6.40176">
        <ele>895</ele>
        <time>2018-07-14T06:55:56Z</time>
      </trkpt>
      <trkpt lat="46.1836" lon="6.40175">
        <ele>895</ele>
        <time>2018-07-14T06:56:02Z</time>
      </trkpt>
      <trkpt lat="46.18357" lon="6.40176">
        <ele>896</ele>
        <time>2018-07-14T06:56:03Z</time>
      </trkpt>
      <trkpt lat="46.18354" lon="6.40177">
        <ele>895</ele>
        <time>2018-07-14T06:56:04Z</time>
      </trkpt>
      <trkpt lat="46.18351" lon="6.40179">
        <ele>896</ele>
        <time>2018-07-14T06:56:05Z</time>
      </trkpt>
      <trkpt lat="46.18341" lon="6.40188">
        <ele>895</ele>
        <time>2018-07-14T06:56:09Z</time>
      </trkpt>
      <trkpt lat="46.1834" lon="6.40191">
        <ele>896</ele>
        <time>2018-07-14T06:56:10Z</time>
      </trkpt>
      <trkpt lat="46.18339" lon="6.40194">
        <ele>896</ele>
        <time>2018-07-14T06:56:11Z</time>
      </trkpt>
      <trkpt lat="46.1834" lon="6.40199">
        <ele>897</ele>
        <time>2018-07-14T06:56:13Z</time>
      </trkpt>
      <trkpt lat="46.18342" lon="6.40204">
        <ele>897</ele>
        <time>2018-07-14T06:56:15Z</time>
      </trkpt>
      <trkpt lat="46.18357" lon="6.40216">
        <ele>898</ele>
        <time>2018-07-14T06:56:22Z</time>
      </trkpt>
      <trkpt lat="46.18366" lon="6.40221">
        <ele>900</ele>
        <time>2018-07-14T06:56:26Z</time>
      </trkpt>
      <trkpt lat="46.18373" lon="6.40227">
        <ele>902</ele>
        <time>2018-07-14T06:56:29Z</time>
      </trkpt>
      <trkpt lat="46.18401" lon="6.40256">
        <ele>906</ele>
        <time>2018-07-14T06:56:41Z</time>
      </trkpt>
      <trkpt lat="46.18421" lon="6.40274">
        <ele>908</ele>
        <time>2018-07-14T06:56:50Z</time>
      </trkpt>
      <trkpt lat="46.18423" lon="6.40276">
        <ele>908</ele>
        <time>2018-07-14T06:56:51Z</time>
      </trkpt>
      <trkpt lat="46.18425" lon="6.40278">
        <ele>907</ele>
        <time>2018-07-14T06:56:52Z</time>
      </trkpt>
      <trkpt lat="46.18426" lon="6.40281">
        <ele>908</ele>
        <time>2018-07-14T06:56:53Z</time>
      </trkpt>
      <trkpt lat="46.18428" lon="6.40283">
        <ele>908</ele>
        <time>2018-07-14T06:56:54Z</time>
      </trkpt>
      <trkpt lat="46.18429" lon="6.40286">
        <ele>908</ele>
        <time>2018-07-14T06:56:55Z</time>
      </trkpt>
      <trkpt lat="46.18429" lon="6.40289">
        <ele>908</ele>
        <time>2018-07-14T06:56:56Z</time>
      </trkpt>
      <trkpt lat="46.18429" lon="6.40293">
        <ele>908</ele>
        <time>2018-07-14T06:56:57Z</time>
      </trkpt>
      <trkpt lat="46.18429" lon="6.40296">
        <ele>908</ele>
        <time>2018-07-14T06:56:58Z</time>
      </trkpt>
      <trkpt lat="46.18429" lon="6.40299">
        <ele>908</ele>
        <time>2018-07-14T06:56:59Z</time>
      </trkpt>
      <trkpt lat="46.18428" lon="6.40302">
        <ele>908</ele>
        <time>2018-07-14T06:57:00Z</time>
      </trkpt>
      <trkpt lat="46.18427" lon="6.40304">
        <ele>908</ele>
        <time>2018-07-14T06:57:01Z</time>
      </trkpt>
      <trkpt lat="46.18425" lon="6.40306">
        <ele>908</ele>
        <time>2018-07-14T06:57:02Z</time>
      </trkpt>
      <trkpt lat="46.18423" lon="6.40307">
        <ele>908</ele>
        <time>2018-07-14T06:57:03Z</time>
      </trkpt>
      <trkpt lat="46.18421" lon="6.40307">
        <ele>908</ele>
        <time>2018-07-14T06:57:04Z</time>
      </trkpt>
      <trkpt lat="46.18419" lon="6.40307">
        <ele>908</ele>
        <time>2018-07-14T06:57:05Z</time>
      </trkpt>
      <trkpt lat="46.18417" lon="6.40306">
        <ele>908</ele>
        <time>2018-07-14T06:57:06Z</time>
      </trkpt>
      <trkpt lat="46.18401" lon="6.40295">
        <ele>908</ele>
        <time>2018-07-14T06:57:15Z</time>
      </trkpt>
      <trkpt lat="46.18347" lon="6.40276">
        <ele>912</ele>
        <time>2018-07-14T06:57:35Z</time>
      </trkpt>
      <trkpt lat="46.18338" lon="6.40273">
        <ele>913</ele>
        <time>2018-07-14T06:57:41Z</time>
      </trkpt>
      <trkpt lat="46.18337" lon="6.40273">
        <ele>913</ele>
        <time>2018-07-14T06:57:42Z</time>
      </trkpt>
      <trkpt lat="46.18332" lon="6.4027">
        <ele>913</ele>
        <time>2018-07-14T06:57:45Z</time>
      </trkpt>
      <trkpt lat="46.18323" lon="6.40264">
        <ele>914</ele>
        <time>2018-07-14T06:57:49Z</time>
      </trkpt>
      <trkpt lat="46.18321" lon="6.40262">
        <ele>914</ele>
        <time>2018-07-14T06:57:50Z</time>
      </trkpt>
      <trkpt lat="46.18292" lon="6.40241">
        <ele>917</ele>
        <time>2018-07-14T06:58:03Z</time>
      </trkpt>
      <trkpt lat="46.18259" lon="6.40216">
        <ele>921</ele>
        <time>2018-07-14T06:58:16Z</time>
      </trkpt>
      <trkpt lat="46.18224" lon="6.40194">
        <ele>923</ele>
        <time>2018-07-14T06:58:27Z</time>
      </trkpt>
      <trkpt lat="46.18191" lon="6.40169">
        <ele>928</ele>
        <time>2018-07-14T06:58:40Z</time>
      </trkpt>
      <trkpt lat="46.18159" lon="6.40149">
        <ele>930</ele>
        <time>2018-07-14T06:58:53Z</time>
      </trkpt>
      <trkpt lat="46.18124" lon="6.40131">
        <ele>932</ele>
        <time>2018-07-14T06:59:07Z</time>
      </trkpt>
      <trkpt lat="46.18089" lon="6.40112">
        <ele>935</ele>
        <time>2018-07-14T06:59:21Z</time>
      </trkpt>
      <trkpt lat="46.18055" lon="6.40096">
        <ele>938</ele>
        <time>2018-07-14T06:59:35Z</time>
      </trkpt>
      <trkpt lat="46.18038" lon="6.40084">
        <ele>940</ele>
        <time>2018-07-14T06:59:42Z</time>
      </trkpt>
      <trkpt lat="46.18033" lon="6.4008">
        <ele>941</ele>
        <time>2018-07-14T06:59:44Z</time>
      </trkpt>
      <trkpt lat="46.18002" lon="6.40034">
        <ele>944</ele>
        <time>2018-07-14T07:00:02Z</time>
      </trkpt>
      <trkpt lat="46.17973" lon="6.39987">
        <ele>948</ele>
        <time>2018-07-14T07:00:20Z</time>
      </trkpt>
      <trkpt lat="46.1795" lon="6.39947">
        <ele>952</ele>
        <time>2018-07-14T07:00:34Z</time>
      </trkpt>
      <trkpt lat="46.17927" lon="6.39907">
        <ele>954</ele>
        <time>2018-07-14T07:00:47Z</time>
      </trkpt>
      <trkpt lat="46.17902" lon="6.39866">
        <ele>955</ele>
        <time>2018-07-14T07:01:01Z</time>
      </trkpt>
      <trkpt lat="46.17878" lon="6.39825">
        <ele>958</ele>
        <time>2018-07-14T07:01:15Z</time>
      </trkpt>
      <trkpt lat="46.1786" lon="6.39796">
        <ele>961</ele>
        <time>2018-07-14T07:01:25Z</time>
      </trkpt>
      <trkpt lat="46.17858" lon="6.39794">
        <ele>961</ele>
        <time>2018-07-14T07:01:26Z</time>
      </trkpt>
      <trkpt lat="46.17846" lon="6.39783">
        <ele>962</ele>
        <time>2018-07-14T07:01:31Z</time>
      </trkpt>
      <trkpt lat="46.17843" lon="6.39782">
        <ele>963</ele>
        <time>2018-07-14T07:01:32Z</time>
      </trkpt>
      <trkpt lat="46.17841" lon="6.39781">
        <ele>963</ele>
        <time>2018-07-14T07:01:33Z</time>
      </trkpt>
      <trkpt lat="46.17838" lon="6.3978">
        <ele>963</ele>
        <time>2018-07-14T07:01:34Z</time>
      </trkpt>
      <trkpt lat="46.17836" lon="6.39779">
        <ele>963</ele>
        <time>2018-07-14T07:01:35Z</time>
      </trkpt>
      <trkpt lat="46.17833" lon="6.39779">
        <ele>963</ele>
        <time>2018-07-14T07:01:36Z</time>
      </trkpt>
      <trkpt lat="46.17831" lon="6.39779">
        <ele>964</ele>
        <time>2018-07-14T07:01:37Z</time>
      </trkpt>
      <trkpt lat="46.17826" lon="6.3978">
        <ele>964</ele>
        <time>2018-07-14T07:01:39Z</time>
      </trkpt>
      <trkpt lat="46.17823" lon="6.39781">
        <ele>965</ele>
        <time>2018-07-14T07:01:40Z</time>
      </trkpt>
      <trkpt lat="46.17816" lon="6.39786">
        <ele>965</ele>
        <time>2018-07-14T07:01:43Z</time>
      </trkpt>
      <trkpt lat="46.17804" lon="6.39799">
        <ele>966</ele>
        <time>2018-07-14T07:01:49Z</time>
      </trkpt>
      <trkpt lat="46.17802" lon="6.39802">
        <ele>966</ele>
        <time>2018-07-14T07:01:50Z</time>
      </trkpt>
      <trkpt lat="46.17775" lon="6.39856">
        <ele>970</ele>
        <time>2018-07-14T07:02:09Z</time>
      </trkpt>
      <trkpt lat="46.1777" lon="6.39867">
        <ele>971</ele>
        <time>2018-07-14T07:02:13Z</time>
      </trkpt>
      <trkpt lat="46.17767" lon="6.39884">
        <ele>971</ele>
        <time>2018-07-14T07:02:18Z</time>
      </trkpt>
      <trkpt lat="46.17767" lon="6.39887">
        <ele>972</ele>
        <time>2018-07-14T07:02:19Z</time>
      </trkpt>
      <trkpt lat="46.17767" lon="6.39898">
        <ele>972</ele>
        <time>2018-07-14T07:02:22Z</time>
      </trkpt>
      <trkpt lat="46.1777" lon="6.39919">
        <ele>972</ele>
        <time>2018-07-14T07:02:28Z</time>
      </trkpt>
      <trkpt lat="46.17776" lon="6.39947">
        <ele>974</ele>
        <time>2018-07-14T07:02:36Z</time>
      </trkpt>
      <trkpt lat="46.17776" lon="6.3995">
        <ele>974</ele>
        <time>2018-07-14T07:02:37Z</time>
      </trkpt>
      <trkpt lat="46.17776" lon="6.39954">
        <ele>974</ele>
        <time>2018-07-14T07:02:38Z</time>
      </trkpt>
      <trkpt lat="46.17776" lon="6.39957">
        <ele>975</ele>
        <time>2018-07-14T07:02:39Z</time>
      </trkpt>
      <trkpt lat="46.17775" lon="6.3996">
        <ele>975</ele>
        <time>2018-07-14T07:02:40Z</time>
      </trkpt>
      <trkpt lat="46.17774" lon="6.39963">
        <ele>976</ele>
        <time>2018-07-14T07:02:41Z</time>
      </trkpt>
      <trkpt lat="46.17772" lon="6.39965">
        <ele>976</ele>
        <time>2018-07-14T07:02:42Z</time>
      </trkpt>
      <trkpt lat="46.1777" lon="6.39967">
        <ele>977</ele>
        <time>2018-07-14T07:02:43Z</time>
      </trkpt>
      <trkpt lat="46.17768" lon="6.39968">
        <ele>977</ele>
        <time>2018-07-14T07:02:44Z</time>
      </trkpt>
      <trkpt lat="46.17765" lon="6.39968">
        <ele>977</ele>
        <time>2018-07-14T07:02:45Z</time>
      </trkpt>
      <trkpt lat="46.17763" lon="6.39968">
        <ele>977</ele>
        <time>2018-07-14T07:02:46Z</time>
      </trkpt>
      <trkpt lat="46.17761" lon="6.39967">
        <ele>977</ele>
        <time>2018-07-14T07:02:47Z</time>
      </trkpt>
      <trkpt lat="46.17759" lon="6.39965">
        <ele>977</ele>
        <time>2018-07-14T07:02:48Z</time>
      </trkpt>
      <trkpt lat="46.17757" lon="6.39963">
        <ele>977</ele>
        <time>2018-07-14T07:02:49Z</time>
      </trkpt>
      <trkpt lat="46.17755" lon="6.39961">
        <ele>977</ele>
        <time>2018-07-14T07:02:50Z</time>
      </trkpt>
      <trkpt lat="46.17745" lon="6.39936">
        <ele>979</ele>
        <time>2018-07-14T07:02:58Z</time>
      </trkpt>
      <trkpt lat="46.17741" lon="6.3993">
        <ele>980</ele>
        <time>2018-07-14T07:03:00Z</time>
      </trkpt>
      <trkpt lat="46.17711" lon="6.39897">
        <ele>983</ele>
        <time>2018-07-14T07:03:14Z</time>
      </trkpt>
      <trkpt lat="46.1769" lon="6.39877">
        <ele>986</ele>
        <time>2018-07-14T07:03:24Z</time>
      </trkpt>
      <trkpt lat="46.17688" lon="6.39875">
        <ele>986</ele>
        <time>2018-07-14T07:03:25Z</time>
      </trkpt>
      <trkpt lat="46.17683" lon="6.39872">
        <ele>986</ele>
        <time>2018-07-14T07:03:27Z</time>
      </trkpt>
      <trkpt lat="46.17681" lon="6.39871">
        <ele>986</ele>
        <time>2018-07-14T07:03:28Z</time>
      </trkpt>
      <trkpt lat="46.17678" lon="6.3987">
        <ele>985</ele>
        <time>2018-07-14T07:03:29Z</time>
      </trkpt>
      <trkpt lat="46.17676" lon="6.3987">
        <ele>985</ele>
        <time>2018-07-14T07:03:30Z</time>
      </trkpt>
      <trkpt lat="46.17674" lon="6.39871">
        <ele>985</ele>
        <time>2018-07-14T07:03:31Z</time>
      </trkpt>
      <trkpt lat="46.17625" lon="6.39897">
        <ele>993</ele>
        <time>2018-07-14T07:03:51Z</time>
      </trkpt>
      <trkpt lat="46.176" lon="6.39902">
        <ele>993</ele>
        <time>2018-07-14T07:04:00Z</time>
      </trkpt>
      <trkpt lat="46.17565" lon="6.39899">
        <ele>993</ele>
        <time>2018-07-14T07:04:07Z</time>
      </trkpt>
      <trkpt lat="46.17528" lon="6.3989">
        <ele>993</ele>
        <time>2018-07-14T07:04:21Z</time>
      </trkpt>
      <trkpt lat="46.17497" lon="6.39884">
        <ele>992</ele>
        <time>2018-07-14T07:04:32Z</time>
      </trkpt>
      <trkpt lat="46.17489" lon="6.39885">
        <ele>998</ele>
        <time>2018-07-14T07:05:40Z</time>
      </trkpt>
      <trkpt lat="46.17487" lon="6.39884">
        <ele>996</ele>
        <time>2018-07-14T07:06:49Z</time>
      </trkpt>
      <trkpt lat="46.17484" lon="6.39881">
        <ele>995</ele>
        <time>2018-07-14T07:06:54Z</time>
      </trkpt>
      <trkpt lat="46.17484" lon="6.39879">
        <ele>989</ele>
        <time>2018-07-14T07:07:21Z</time>
      </trkpt>
      <trkpt lat="46.17482" lon="6.39878">
        <ele>991</ele>
        <time>2018-07-14T07:07:25Z</time>
      </trkpt>
      <trkpt lat="46.17441" lon="6.39866">
        <ele>989</ele>
        <time>2018-07-14T07:07:37Z</time>
      </trkpt>
      <trkpt lat="46.17439" lon="6.39866">
        <ele>991</ele>
        <time>2018-07-14T07:07:38Z</time>
      </trkpt>
      <trkpt lat="46.17437" lon="6.39866">
        <ele>991</ele>
        <time>2018-07-14T07:07:39Z</time>
      </trkpt>
      <trkpt lat="46.17435" lon="6.39866">
        <ele>991</ele>
        <time>2018-07-14T07:07:40Z</time>
      </trkpt>
      <trkpt lat="46.17433" lon="6.39867">
        <ele>991</ele>
        <time>2018-07-14T07:07:41Z</time>
      </trkpt>
      <trkpt lat="46.17431" lon="6.39869">
        <ele>992</ele>
        <time>2018-07-14T07:07:42Z</time>
      </trkpt>
      <trkpt lat="46.17427" lon="6.39874">
        <ele>991</ele>
        <time>2018-07-14T07:07:44Z</time>
      </trkpt>
      <trkpt lat="46.17426" lon="6.39877">
        <ele>990</ele>
        <time>2018-07-14T07:07:45Z</time>
      </trkpt>
      <trkpt lat="46.17427" lon="6.39881">
        <ele>989</ele>
        <time>2018-07-14T07:07:46Z</time>
      </trkpt>
      <trkpt lat="46.17428" lon="6.39883">
        <ele>989</ele>
        <time>2018-07-14T07:07:47Z</time>
      </trkpt>
      <trkpt lat="46.17431" lon="6.39888">
        <ele>989</ele>
        <time>2018-07-14T07:07:49Z</time>
      </trkpt>
      <trkpt lat="46.17433" lon="6.39892">
        <ele>988</ele>
        <time>2018-07-14T07:07:50Z</time>
      </trkpt>
      <trkpt lat="46.17437" lon="6.39906">
        <ele>987</ele>
        <time>2018-07-14T07:07:51Z</time>
      </trkpt>
      <trkpt lat="46.17438" lon="6.39913">
        <ele>987</ele>
        <time>2018-07-14T07:07:52Z</time>
      </trkpt>
      <trkpt lat="46.17438" lon="6.3992">
        <ele>987</ele>
        <time>2018-07-14T07:07:53Z</time>
      </trkpt>
      <trkpt lat="46.17427" lon="6.39974">
        <ele>982</ele>
        <time>2018-07-14T07:08:01Z</time>
      </trkpt>
      <trkpt lat="46.17427" lon="6.39977">
        <ele>982</ele>
        <time>2018-07-14T07:08:02Z</time>
      </trkpt>
      <trkpt lat="46.17426" lon="6.39979">
        <ele>980</ele>
        <time>2018-07-14T07:08:03Z</time>
      </trkpt>
      <trkpt lat="46.17425" lon="6.39981">
        <ele>979</ele>
        <time>2018-07-14T07:08:04Z</time>
      </trkpt>
      <trkpt lat="46.17423" lon="6.39983">
        <ele>979</ele>
        <time>2018-07-14T07:08:05Z</time>
      </trkpt>
      <trkpt lat="46.17416" lon="6.39987">
        <ele>977</ele>
        <time>2018-07-14T07:08:06Z</time>
      </trkpt>
      <trkpt lat="46.17413" lon="6.39985">
        <ele>976</ele>
        <time>2018-07-14T07:08:07Z</time>
      </trkpt>
      <trkpt lat="46.17409" lon="6.3998">
        <ele>975</ele>
        <time>2018-07-14T07:08:08Z</time>
      </trkpt>
      <trkpt lat="46.17391" lon="6.39957">
        <ele>975</ele>
        <time>2018-07-14T07:08:13Z</time>
      </trkpt>
      <trkpt lat="46.17363" lon="6.39936">
        <ele>973</ele>
        <time>2018-07-14T07:08:19Z</time>
      </trkpt>
      <trkpt lat="46.17344" lon="6.39924">
        <ele>978</ele>
        <time>2018-07-14T07:08:24Z</time>
      </trkpt>
      <trkpt lat="46.17339" lon="6.39922">
        <ele>976</ele>
        <time>2018-07-14T07:08:25Z</time>
      </trkpt>
      <trkpt lat="46.17304" lon="6.39921">
        <ele>969</ele>
        <time>2018-07-14T07:08:31Z</time>
      </trkpt>
      <trkpt lat="46.17268" lon="6.39921">
        <ele>966</ele>
        <time>2018-07-14T07:08:36Z</time>
      </trkpt>
      <trkpt lat="46.17256" lon="6.3992">
        <ele>965</ele>
        <time>2018-07-14T07:08:38Z</time>
      </trkpt>
      <trkpt lat="46.1725" lon="6.39917">
        <ele>964</ele>
        <time>2018-07-14T07:08:39Z</time>
      </trkpt>
      <trkpt lat="46.17226" lon="6.399">
        <ele>962</ele>
        <time>2018-07-14T07:08:43Z</time>
      </trkpt>
      <trkpt lat="46.17219" lon="6.39893">
        <ele>962</ele>
        <time>2018-07-14T07:08:44Z</time>
      </trkpt>
      <trkpt lat="46.17193" lon="6.39853">
        <ele>957</ele>
        <time>2018-07-14T07:08:49Z</time>
      </trkpt>
      <trkpt lat="46.17165" lon="6.39815">
        <ele>953</ele>
        <time>2018-07-14T07:08:54Z</time>
      </trkpt>
      <trkpt lat="46.17127" lon="6.39777">
        <ele>949</ele>
        <time>2018-07-14T07:08:59Z</time>
      </trkpt>
      <trkpt lat="46.17085" lon="6.39741">
        <ele>945</ele>
        <time>2018-07-14T07:09:04Z</time>
      </trkpt>
      <trkpt lat="46.17041" lon="6.39707">
        <ele>954</ele>
        <time>2018-07-14T07:09:09Z</time>
      </trkpt>
      <trkpt lat="46.17028" lon="6.39697">
        <ele>947</ele>
        <time>2018-07-14T07:09:11Z</time>
      </trkpt>
      <trkpt lat="46.17023" lon="6.39692">
        <ele>945</ele>
        <time>2018-07-14T07:09:12Z</time>
      </trkpt>
      <trkpt lat="46.17019" lon="6.39687">
        <ele>943</ele>
        <time>2018-07-14T07:09:13Z</time>
      </trkpt>
      <trkpt lat="46.17017" lon="6.39682">
        <ele>942</ele>
        <time>2018-07-14T07:09:14Z</time>
      </trkpt>
      <trkpt lat="46.17014" lon="6.39674">
        <ele>941</ele>
        <time>2018-07-14T07:09:15Z</time>
      </trkpt>
      <trkpt lat="46.17014" lon="6.39666">
        <ele>941</ele>
        <time>2018-07-14T07:09:16Z</time>
      </trkpt>
      <trkpt lat="46.17015" lon="6.39638">
        <ele>938</ele>
        <time>2018-07-14T07:09:19Z</time>
      </trkpt>
      <trkpt lat="46.17014" lon="6.39628">
        <ele>938</ele>
        <time>2018-07-14T07:09:20Z</time>
      </trkpt>
      <trkpt lat="46.17012" lon="6.39619">
        <ele>937</ele>
        <time>2018-07-14T07:09:21Z</time>
      </trkpt>
      <trkpt lat="46.17008" lon="6.3961">
        <ele>937</ele>
        <time>2018-07-14T07:09:22Z</time>
      </trkpt>
      <trkpt lat="46.16986" lon="6.39568">
        <ele>934</ele>
        <time>2018-07-14T07:09:27Z</time>
      </trkpt>
      <trkpt lat="46.16982" lon="6.39559">
        <ele>934</ele>
        <time>2018-07-14T07:09:28Z</time>
      </trkpt>
      <trkpt lat="46.16979" lon="6.39549">
        <ele>933</ele>
        <time>2018-07-14T07:09:29Z</time>
      </trkpt>
      <trkpt lat="46.16972" lon="6.39507">
        <ele>931</ele>
        <time>2018-07-14T07:09:33Z</time>
      </trkpt>
      <trkpt lat="46.16968" lon="6.39496">
        <ele>931</ele>
        <time>2018-07-14T07:09:34Z</time>
      </trkpt>
      <trkpt lat="46.16963" lon="6.39486">
        <ele>931</ele>
        <time>2018-07-14T07:09:35Z</time>
      </trkpt>
      <trkpt lat="46.16958" lon="6.39476">
        <ele>930</ele>
        <time>2018-07-14T07:09:36Z</time>
      </trkpt>
      <trkpt lat="46.1693" lon="6.39446">
        <ele>927</ele>
        <time>2018-07-14T07:09:40Z</time>
      </trkpt>
      <trkpt lat="46.16924" lon="6.39437">
        <ele>927</ele>
        <time>2018-07-14T07:09:41Z</time>
      </trkpt>
      <trkpt lat="46.169" lon="6.39384">
        <ele>924</ele>
        <time>2018-07-14T07:09:46Z</time>
      </trkpt>
      <trkpt lat="46.16884" lon="6.39335">
        <ele>923</ele>
        <time>2018-07-14T07:09:50Z</time>
      </trkpt>
      <trkpt lat="46.16881" lon="6.39323">
        <ele>922</ele>
        <time>2018-07-14T07:09:51Z</time>
      </trkpt>
      <trkpt lat="46.1688" lon="6.39311">
        <ele>921</ele>
        <time>2018-07-14T07:09:52Z</time>
      </trkpt>
      <trkpt lat="46.16879" lon="6.39298">
        <ele>921</ele>
        <time>2018-07-14T07:09:53Z</time>
      </trkpt>
      <trkpt lat="46.16879" lon="6.39286">
        <ele>920</ele>
        <time>2018-07-14T07:09:54Z</time>
      </trkpt>
      <trkpt lat="46.16888" lon="6.39204">
        <ele>916</ele>
        <time>2018-07-14T07:10:00Z</time>
      </trkpt>
      <trkpt lat="46.16898" lon="6.39132">
        <ele>913</ele>
        <time>2018-07-14T07:10:05Z</time>
      </trkpt>
      <trkpt lat="46.16901" lon="6.39066">
        <ele>912</ele>
        <time>2018-07-14T07:10:10Z</time>
      </trkpt>
      <trkpt lat="46.16901" lon="6.39053">
        <ele>910</ele>
        <time>2018-07-14T07:10:11Z</time>
      </trkpt>
      <trkpt lat="46.16909" lon="6.39009">
        <ele>907</ele>
        <time>2018-07-14T07:10:15Z</time>
      </trkpt>
      <trkpt lat="46.16909" lon="6.38978">
        <ele>905</ele>
        <time>2018-07-14T07:10:18Z</time>
      </trkpt>
      <trkpt lat="46.16907" lon="6.3897">
        <ele>904</ele>
        <time>2018-07-14T07:10:19Z</time>
      </trkpt>
      <trkpt lat="46.16904" lon="6.38962">
        <ele>904</ele>
        <time>2018-07-14T07:10:20Z</time>
      </trkpt>
      <trkpt lat="46.16901" lon="6.38954">
        <ele>904</ele>
        <time>2018-07-14T07:10:21Z</time>
      </trkpt>
      <trkpt lat="46.16896" lon="6.38947">
        <ele>904</ele>
        <time>2018-07-14T07:10:22Z</time>
      </trkpt>
      <trkpt lat="46.16892" lon="6.38942">
        <ele>904</ele>
        <time>2018-07-14T07:10:23Z</time>
      </trkpt>
      <trkpt lat="46.16885" lon="6.38943">
        <ele>904</ele>
        <time>2018-07-14T07:10:24Z</time>
      </trkpt>
      <trkpt lat="46.1685" lon="6.38959">
        <ele>904</ele>
        <time>2018-07-14T07:10:28Z</time>
      </trkpt>
      <trkpt lat="46.16805" lon="6.38976">
        <ele>900</ele>
        <time>2018-07-14T07:10:33Z</time>
      </trkpt>
      <trkpt lat="46.16769" lon="6.38984">
        <ele>895</ele>
        <time>2018-07-14T07:10:37Z</time>
      </trkpt>
      <trkpt lat="46.16718" lon="6.38981">
        <ele>890</ele>
        <time>2018-07-14T07:10:42Z</time>
      </trkpt>
      <trkpt lat="46.16663" lon="6.38983">
        <ele>890</ele>
        <time>2018-07-14T07:10:47Z</time>
      </trkpt>
      <trkpt lat="46.1661" lon="6.3899">
        <ele>886</ele>
        <time>2018-07-14T07:10:52Z</time>
      </trkpt>
      <trkpt lat="46.16557" lon="6.38999">
        <ele>883</ele>
        <time>2018-07-14T07:10:57Z</time>
      </trkpt>
      <trkpt lat="46.16504" lon="6.39009">
        <ele>879</ele>
        <time>2018-07-14T07:11:02Z</time>
      </trkpt>
      <trkpt lat="46.16454" lon="6.39013">
        <ele>876</ele>
        <time>2018-07-14T07:11:07Z</time>
      </trkpt>
      <trkpt lat="46.16403" lon="6.39011">
        <ele>873</ele>
        <time>2018-07-14T07:11:12Z</time>
      </trkpt>
      <trkpt lat="46.1635" lon="6.39003">
        <ele>868</ele>
        <time>2018-07-14T07:11:17Z</time>
      </trkpt>
      <trkpt lat="46.16307" lon="6.38993">
        <ele>864</ele>
        <time>2018-07-14T07:11:21Z</time>
      </trkpt>
      <trkpt lat="46.16263" lon="6.3897">
        <ele>864</ele>
        <time>2018-07-14T07:11:25Z</time>
      </trkpt>
      <trkpt lat="46.16214" lon="6.38962">
        <ele>862</ele>
        <time>2018-07-14T07:11:30Z</time>
      </trkpt>
      <trkpt lat="46.16162" lon="6.38942">
        <ele>860</ele>
        <time>2018-07-14T07:11:35Z</time>
      </trkpt>
      <trkpt lat="46.161" lon="6.38934">
        <ele>852</ele>
        <time>2018-07-14T07:11:41Z</time>
      </trkpt>
      <trkpt lat="46.16047" lon="6.38911">
        <ele>845</ele>
        <time>2018-07-14T07:11:46Z</time>
      </trkpt>
      <trkpt lat="46.16008" lon="6.38882">
        <ele>842</ele>
        <time>2018-07-14T07:11:50Z</time>
      </trkpt>
      <trkpt lat="46.15961" lon="6.38839">
        <ele>837</ele>
        <time>2018-07-14T07:11:55Z</time>
      </trkpt>
      <trkpt lat="46.15932" lon="6.38811">
        <ele>835</ele>
        <time>2018-07-14T07:11:59Z</time>
      </trkpt>
      <trkpt lat="46.15924" lon="6.38806">
        <ele>834</ele>
        <time>2018-07-14T07:12:00Z</time>
      </trkpt>
      <trkpt lat="46.15915" lon="6.38802">
        <ele>834</ele>
        <time>2018-07-14T07:12:01Z</time>
      </trkpt>
      <trkpt lat="46.15907" lon="6.38801">
        <ele>834</ele>
        <time>2018-07-14T07:12:02Z</time>
      </trkpt>
      <trkpt lat="46.15898" lon="6.38802">
        <ele>833</ele>
        <time>2018-07-14T07:12:03Z</time>
      </trkpt>
      <trkpt lat="46.15874" lon="6.3881">
        <ele>830</ele>
        <time>2018-07-14T07:12:06Z</time>
      </trkpt>
      <trkpt lat="46.15867" lon="6.38814">
        <ele>828</ele>
        <time>2018-07-14T07:12:07Z</time>
      </trkpt>
      <trkpt lat="46.15861" lon="6.38818">
        <ele>827</ele>
        <time>2018-07-14T07:12:08Z</time>
      </trkpt>
      <trkpt lat="46.15855" lon="6.38825">
        <ele>827</ele>
        <time>2018-07-14T07:12:09Z</time>
      </trkpt>
      <trkpt lat="46.15852" lon="6.38833">
        <ele>826</ele>
        <time>2018-07-14T07:12:10Z</time>
      </trkpt>
      <trkpt lat="46.15849" lon="6.38843">
        <ele>827</ele>
        <time>2018-07-14T07:12:11Z</time>
      </trkpt>
      <trkpt lat="46.15848" lon="6.38854">
        <ele>826</ele>
        <time>2018-07-14T07:12:12Z</time>
      </trkpt>
      <trkpt lat="46.15851" lon="6.38865">
        <ele>825</ele>
        <time>2018-07-14T07:12:13Z</time>
      </trkpt>
      <trkpt lat="46.15854" lon="6.38875">
        <ele>825</ele>
        <time>2018-07-14T07:12:14Z</time>
      </trkpt>
      <trkpt lat="46.15876" lon="6.38923">
        <ele>822</ele>
        <time>2018-07-14T07:12:19Z</time>
      </trkpt>
      <trkpt lat="46.15895" lon="6.38962">
        <ele>818</ele>
        <time>2018-07-14T07:12:23Z</time>
      </trkpt>
      <trkpt lat="46.15923" lon="6.39005">
        <ele>815</ele>
        <time>2018-07-14T07:12:28Z</time>
      </trkpt>
      <trkpt lat="46.15952" lon="6.39045">
        <ele>812</ele>
        <time>2018-07-14T07:12:33Z</time>
      </trkpt>
      <trkpt lat="46.15981" lon="6.39073">
        <ele>810</ele>
        <time>2018-07-14T07:12:39Z</time>
      </trkpt>
      <trkpt lat="46.15983" lon="6.39079">
        <ele>809</ele>
        <time>2018-07-14T07:12:40Z</time>
      </trkpt>
      <trkpt lat="46.15986" lon="6.39084">
        <ele>810</ele>
        <time>2018-07-14T07:12:41Z</time>
      </trkpt>
      <trkpt lat="46.15986" lon="6.39091">
        <ele>808</ele>
        <time>2018-07-14T07:12:42Z</time>
      </trkpt>
      <trkpt lat="46.15983" lon="6.39103">
        <ele>806</ele>
        <time>2018-07-14T07:12:44Z</time>
      </trkpt>
      <trkpt lat="46.15979" lon="6.39108">
        <ele>806</ele>
        <time>2018-07-14T07:12:45Z</time>
      </trkpt>
      <trkpt lat="46.15974" lon="6.39112">
        <ele>805</ele>
        <time>2018-07-14T07:12:46Z</time>
      </trkpt>
      <trkpt lat="46.15968" lon="6.39111">
        <ele>806</ele>
        <time>2018-07-14T07:12:47Z</time>
      </trkpt>
      <trkpt lat="46.15962" lon="6.39109">
        <ele>805</ele>
        <time>2018-07-14T07:12:48Z</time>
      </trkpt>
      <trkpt lat="46.1593" lon="6.3909">
        <ele>804</ele>
        <time>2018-07-14T07:12:53Z</time>
      </trkpt>
      <trkpt lat="46.15894" lon="6.39075">
        <ele>800</ele>
        <time>2018-07-14T07:12:58Z</time>
      </trkpt>
      <trkpt lat="46.15859" lon="6.39066">
        <ele>799</ele>
        <time>2018-07-14T07:13:03Z</time>
      </trkpt>
      <trkpt lat="46.15834" lon="6.39065">
        <ele>799</ele>
        <time>2018-07-14T07:13:07Z</time>
      </trkpt>
      <trkpt lat="46.15828" lon="6.39066">
        <ele>798</ele>
        <time>2018-07-14T07:13:08Z</time>
      </trkpt>
      <trkpt lat="46.15811" lon="6.39073">
        <ele>797</ele>
        <time>2018-07-14T07:13:12Z</time>
      </trkpt>
      <trkpt lat="46.15808" lon="6.39073">
        <ele>796</ele>
        <time>2018-07-14T07:13:13Z</time>
      </trkpt>
      <trkpt lat="46.15797" lon="6.39063">
        <ele>795</ele>
        <time>2018-07-14T07:13:16Z</time>
      </trkpt>
      <trkpt lat="46.15768" lon="6.39026">
        <ele>794</ele>
        <time>2018-07-14T07:13:24Z</time>
      </trkpt>
      <trkpt lat="46.15739" lon="6.38989">
        <ele>794</ele>
        <time>2018-07-14T07:13:31Z</time>
      </trkpt>
      <trkpt lat="46.15733" lon="6.38984">
        <ele>794</ele>
        <time>2018-07-14T07:13:32Z</time>
      </trkpt>
      <trkpt lat="46.15728" lon="6.3898">
        <ele>793</ele>
        <time>2018-07-14T07:13:33Z</time>
      </trkpt>
      <trkpt lat="46.15722" lon="6.38977">
        <ele>794</ele>
        <time>2018-07-14T07:13:34Z</time>
      </trkpt>
      <trkpt lat="46.15715" lon="6.38976">
        <ele>793</ele>
        <time>2018-07-14T07:13:35Z</time>
      </trkpt>
      <trkpt lat="46.15692" lon="6.38977">
        <ele>791</ele>
        <time>2018-07-14T07:13:38Z</time>
      </trkpt>
      <trkpt lat="46.15685" lon="6.38976">
        <ele>791</ele>
        <time>2018-07-14T07:13:39Z</time>
      </trkpt>
      <trkpt lat="46.15677" lon="6.38972">
        <ele>791</ele>
        <time>2018-07-14T07:13:40Z</time>
      </trkpt>
      <trkpt lat="46.1566" lon="6.38962">
        <ele>791</ele>
        <time>2018-07-14T07:13:42Z</time>
      </trkpt>
      <trkpt lat="46.15621" lon="6.38927">
        <ele>789</ele>
        <time>2018-07-14T07:13:47Z</time>
      </trkpt>
      <trkpt lat="46.15607" lon="6.38914">
        <ele>788</ele>
        <time>2018-07-14T07:13:49Z</time>
      </trkpt>
      <trkpt lat="46.15593" lon="6.38906">
        <ele>788</ele>
        <time>2018-07-14T07:13:51Z</time>
      </trkpt>
      <trkpt lat="46.15554" lon="6.38872">
        <ele>783</ele>
        <time>2018-07-14T07:13:56Z</time>
      </trkpt>
      <trkpt lat="46.15512" lon="6.38841">
        <ele>781</ele>
        <time>2018-07-14T07:14:01Z</time>
      </trkpt>
      <trkpt lat="46.15494" lon="6.3883">
        <ele>780</ele>
        <time>2018-07-14T07:14:03Z</time>
      </trkpt>
      <trkpt lat="46.15485" lon="6.38823">
        <ele>779</ele>
        <time>2018-07-14T07:14:04Z</time>
      </trkpt>
      <trkpt lat="46.15477" lon="6.38814">
        <ele>778</ele>
        <time>2018-07-14T07:14:05Z</time>
      </trkpt>
      <trkpt lat="46.15441" lon="6.38758">
        <ele>774</ele>
        <time>2018-07-14T07:14:10Z</time>
      </trkpt>
      <trkpt lat="46.15435" lon="6.38746">
        <ele>774</ele>
        <time>2018-07-14T07:14:11Z</time>
      </trkpt>
      <trkpt lat="46.15416" lon="6.38669">
        <ele>770</ele>
        <time>2018-07-14T07:14:16Z</time>
      </trkpt>
      <trkpt lat="46.15396" lon="6.3859">
        <ele>764</ele>
        <time>2018-07-14T07:14:21Z</time>
      </trkpt>
      <trkpt lat="46.15374" lon="6.38491">
        <ele>759</ele>
        <time>2018-07-14T07:14:27Z</time>
      </trkpt>
      <trkpt lat="46.15357" lon="6.38407">
        <ele>753</ele>
        <time>2018-07-14T07:14:32Z</time>
      </trkpt>
      <trkpt lat="46.15351" lon="6.38391">
        <ele>753</ele>
        <time>2018-07-14T07:14:33Z</time>
      </trkpt>
      <trkpt lat="46.1532" lon="6.38334">
        <ele>750</ele>
        <time>2018-07-14T07:14:37Z</time>
      </trkpt>
      <trkpt lat="46.15318" lon="6.38317">
        <ele>747</ele>
        <time>2018-07-14T07:14:38Z</time>
      </trkpt>
      <trkpt lat="46.15316" lon="6.38265">
        <ele>743</ele>
        <time>2018-07-14T07:14:41Z</time>
      </trkpt>
      <trkpt lat="46.15311" lon="6.38211">
        <ele>740</ele>
        <time>2018-07-14T07:14:44Z</time>
      </trkpt>
      <trkpt lat="46.1531" lon="6.38194">
        <ele>739</ele>
        <time>2018-07-14T07:14:45Z</time>
      </trkpt>
      <trkpt lat="46.15312" lon="6.38176">
        <ele>738</ele>
        <time>2018-07-14T07:14:46Z</time>
      </trkpt>
      <trkpt lat="46.15316" lon="6.3816">
        <ele>738</ele>
        <time>2018-07-14T07:14:47Z</time>
      </trkpt>
      <trkpt lat="46.15349" lon="6.38085">
        <ele>732</ele>
        <time>2018-07-14T07:14:52Z</time>
      </trkpt>
      <trkpt lat="46.15382" lon="6.38021">
        <ele>728</ele>
        <time>2018-07-14T07:14:57Z</time>
      </trkpt>
      <trkpt lat="46.15404" lon="6.37964">
        <ele>725</ele>
        <time>2018-07-14T07:15:02Z</time>
      </trkpt>
      <trkpt lat="46.15407" lon="6.37956">
        <ele>723</ele>
        <time>2018-07-14T07:15:03Z</time>
      </trkpt>
      <trkpt lat="46.15408" lon="6.37949">
        <ele>723</ele>
        <time>2018-07-14T07:15:04Z</time>
      </trkpt>
      <trkpt lat="46.15409" lon="6.37931">
        <ele>721</ele>
        <time>2018-07-14T07:15:07Z</time>
      </trkpt>
      <trkpt lat="46.15411" lon="6.37925">
        <ele>721</ele>
        <time>2018-07-14T07:15:08Z</time>
      </trkpt>
      <trkpt lat="46.15417" lon="6.37914">
        <ele>720</ele>
        <time>2018-07-14T07:15:10Z</time>
      </trkpt>
      <trkpt lat="46.15435" lon="6.37869">
        <ele>722</ele>
        <time>2018-07-14T07:15:16Z</time>
      </trkpt>
      <trkpt lat="46.15447" lon="6.37843">
        <ele>719</ele>
        <time>2018-07-14T07:15:19Z</time>
      </trkpt>
      <trkpt lat="46.15476" lon="6.37806">
        <ele>719</ele>
        <time>2018-07-14T07:15:24Z</time>
      </trkpt>
      <trkpt lat="46.15509" lon="6.37762">
        <ele>714</ele>
        <time>2018-07-14T07:15:29Z</time>
      </trkpt>
      <trkpt lat="46.15549" lon="6.37712">
        <ele>706</ele>
        <time>2018-07-14T07:15:34Z</time>
      </trkpt>
      <trkpt lat="46.15591" lon="6.37653">
        <ele>700</ele>
        <time>2018-07-14T07:15:39Z</time>
      </trkpt>
      <trkpt lat="46.15639" lon="6.37602">
        <ele>698</ele>
        <time>2018-07-14T07:15:44Z</time>
      </trkpt>
      <trkpt lat="46.15688" lon="6.37564">
        <ele>698</ele>
        <time>2018-07-14T07:15:49Z</time>
      </trkpt>
      <trkpt lat="46.15728" lon="6.37534">
        <ele>692</ele>
        <time>2018-07-14T07:15:53Z</time>
      </trkpt>
      <trkpt lat="46.15736" lon="6.37524">
        <ele>693</ele>
        <time>2018-07-14T07:15:54Z</time>
      </trkpt>
      <trkpt lat="46.15774" lon="6.37469">
        <ele>691</ele>
        <time>2018-07-14T07:15:59Z</time>
      </trkpt>
      <trkpt lat="46.15807" lon="6.3741">
        <ele>686</ele>
        <time>2018-07-14T07:16:04Z</time>
      </trkpt>
      <trkpt lat="46.1582" lon="6.37386">
        <ele>685</ele>
        <time>2018-07-14T07:16:06Z</time>
      </trkpt>
      <trkpt lat="46.15828" lon="6.37375">
        <ele>684</ele>
        <time>2018-07-14T07:16:07Z</time>
      </trkpt>
      <trkpt lat="46.15837" lon="6.37365">
        <ele>683</ele>
        <time>2018-07-14T07:16:08Z</time>
      </trkpt>
      <trkpt lat="46.15846" lon="6.37356">
        <ele>681</ele>
        <time>2018-07-14T07:16:09Z</time>
      </trkpt>
      <trkpt lat="46.15898" lon="6.37323">
        <ele>677</ele>
        <time>2018-07-14T07:16:14Z</time>
      </trkpt>
      <trkpt lat="46.15949" lon="6.37291">
        <ele>674</ele>
        <time>2018-07-14T07:16:19Z</time>
      </trkpt>
      <trkpt lat="46.15998" lon="6.3726">
        <ele>671</ele>
        <time>2018-07-14T07:16:24Z</time>
      </trkpt>
      <trkpt lat="46.1604" lon="6.37242">
        <ele>668</ele>
        <time>2018-07-14T07:16:28Z</time>
      </trkpt>
      <trkpt lat="46.1605" lon="6.37239">
        <ele>668</ele>
        <time>2018-07-14T07:16:29Z</time>
      </trkpt>
      <trkpt lat="46.16104" lon="6.37238">
        <ele>664</ele>
        <time>2018-07-14T07:16:34Z</time>
      </trkpt>
      <trkpt lat="46.16136" lon="6.37246">
        <ele>663</ele>
        <time>2018-07-14T07:16:37Z</time>
      </trkpt>
      <trkpt lat="46.16186" lon="6.37267">
        <ele>662</ele>
        <time>2018-07-14T07:16:42Z</time>
      </trkpt>
      <trkpt lat="46.16193" lon="6.37268">
        <ele>663</ele>
        <time>2018-07-14T07:16:43Z</time>
      </trkpt>
      <trkpt lat="46.16202" lon="6.37266">
        <ele>663</ele>
        <time>2018-07-14T07:16:44Z</time>
      </trkpt>
      <trkpt lat="46.16217" lon="6.37254">
        <ele>661</ele>
        <time>2018-07-14T07:16:46Z</time>
      </trkpt>
      <trkpt lat="46.1622" lon="6.37243">
        <ele>661</ele>
        <time>2018-07-14T07:16:47Z</time>
      </trkpt>
      <trkpt lat="46.16222" lon="6.37231">
        <ele>661</ele>
        <time>2018-07-14T07:16:48Z</time>
      </trkpt>
      <trkpt lat="46.16222" lon="6.37219">
        <ele>661</ele>
        <time>2018-07-14T07:16:49Z</time>
      </trkpt>
      <trkpt lat="46.16218" lon="6.37209">
        <ele>660</ele>
        <time>2018-07-14T07:16:50Z</time>
      </trkpt>
      <trkpt lat="46.16213" lon="6.372">
        <ele>661</ele>
        <time>2018-07-14T07:16:51Z</time>
      </trkpt>
      <trkpt lat="46.16206" lon="6.37193">
        <ele>661</ele>
        <time>2018-07-14T07:16:52Z</time>
      </trkpt>
      <trkpt lat="46.16198" lon="6.37188">
        <ele>661</ele>
        <time>2018-07-14T07:16:53Z</time>
      </trkpt>
      <trkpt lat="46.16173" lon="6.37172">
        <ele>660</ele>
        <time>2018-07-14T07:16:56Z</time>
      </trkpt>
      <trkpt lat="46.16166" lon="6.37163">
        <ele>659</ele>
        <time>2018-07-14T07:16:57Z</time>
      </trkpt>
      <trkpt lat="46.16146" lon="6.37113">
        <ele>656</ele>
        <time>2018-07-14T07:17:01Z</time>
      </trkpt>
      <trkpt lat="46.16123" lon="6.37051">
        <ele>655</ele>
        <time>2018-07-14T07:17:06Z</time>
      </trkpt>
      <trkpt lat="46.16097" lon="6.36992">
        <ele>651</ele>
        <time>2018-07-14T07:17:11Z</time>
      </trkpt>
      <trkpt lat="46.16088" lon="6.36952">
        <ele>652</ele>
        <time>2018-07-14T07:17:14Z</time>
      </trkpt>
      <trkpt lat="46.16085" lon="6.36894">
        <ele>653</ele>
        <time>2018-07-14T07:17:18Z</time>
      </trkpt>
      <trkpt lat="46.1609" lon="6.36851">
        <ele>651</ele>
        <time>2018-07-14T07:17:21Z</time>
      </trkpt>
      <trkpt lat="46.16106" lon="6.36787">
        <ele>650</ele>
        <time>2018-07-14T07:17:26Z</time>
      </trkpt>
      <trkpt lat="46.16112" lon="6.36748">
        <ele>647</ele>
        <time>2018-07-14T07:17:29Z</time>
      </trkpt>
      <trkpt lat="46.16113" lon="6.36734">
        <ele>651</ele>
        <time>2018-07-14T07:17:30Z</time>
      </trkpt>
      <trkpt lat="46.16113" lon="6.36722">
        <ele>649</ele>
        <time>2018-07-14T07:17:31Z</time>
      </trkpt>
      <trkpt lat="46.16112" lon="6.36709">
        <ele>649</ele>
        <time>2018-07-14T07:17:32Z</time>
      </trkpt>
      <trkpt lat="46.16101" lon="6.36647">
        <ele>647</ele>
        <time>2018-07-14T07:17:37Z</time>
      </trkpt>
      <trkpt lat="46.16084" lon="6.36571">
        <ele>646</ele>
        <time>2018-07-14T07:17:43Z</time>
      </trkpt>
      <trkpt lat="46.16071" lon="6.36504">
        <ele>641</ele>
        <time>2018-07-14T07:17:48Z</time>
      </trkpt>
      <trkpt lat="46.16062" lon="6.36451">
        <ele>635</ele>
        <time>2018-07-14T07:17:52Z</time>
      </trkpt>
      <trkpt lat="46.16065" lon="6.36378">
        <ele>629</ele>
        <time>2018-07-14T07:17:57Z</time>
      </trkpt>
      <trkpt lat="46.16069" lon="6.36302">
        <ele>627</ele>
        <time>2018-07-14T07:18:02Z</time>
      </trkpt>
      <trkpt lat="46.1607" lon="6.3624">
        <ele>625</ele>
        <time>2018-07-14T07:18:06Z</time>
      </trkpt>
      <trkpt lat="46.16069" lon="6.36223">
        <ele>622</ele>
        <time>2018-07-14T07:18:07Z</time>
      </trkpt>
      <trkpt lat="46.16066" lon="6.36207">
        <ele>622</ele>
        <time>2018-07-14T07:18:08Z</time>
      </trkpt>
      <trkpt lat="46.1604" lon="6.36137">
        <ele>617</ele>
        <time>2018-07-14T07:18:13Z</time>
      </trkpt>
      <trkpt lat="46.16014" lon="6.36065">
        <ele>615</ele>
        <time>2018-07-14T07:18:18Z</time>
      </trkpt>
      <trkpt lat="46.15984" lon="6.35994">
        <ele>609</ele>
        <time>2018-07-14T07:18:23Z</time>
      </trkpt>
      <trkpt lat="46.15954" lon="6.35924">
        <ele>607</ele>
        <time>2018-07-14T07:18:28Z</time>
      </trkpt>
      <trkpt lat="46.1592" lon="6.35856">
        <ele>604</ele>
        <time>2018-07-14T07:18:34Z</time>
      </trkpt>
      <trkpt lat="46.15912" lon="6.35833">
        <ele>606</ele>
        <time>2018-07-14T07:18:37Z</time>
      </trkpt>
      <trkpt lat="46.1591" lon="6.35826">
        <ele>606</ele>
        <time>2018-07-14T07:18:38Z</time>
      </trkpt>
      <trkpt lat="46.15908" lon="6.35789">
        <ele>603</ele>
        <time>2018-07-14T07:18:42Z</time>
      </trkpt>
      <trkpt lat="46.15909" lon="6.35732">
        <ele>602</ele>
        <time>2018-07-14T07:18:48Z</time>
      </trkpt>
      <trkpt lat="46.15914" lon="6.35683">
        <ele>601</ele>
        <time>2018-07-14T07:18:53Z</time>
      </trkpt>
      <trkpt lat="46.15922" lon="6.35654">
        <ele>600</ele>
        <time>2018-07-14T07:18:56Z</time>
      </trkpt>
      <trkpt lat="46.15948" lon="6.35604">
        <ele>598</ele>
        <time>2018-07-14T07:19:02Z</time>
      </trkpt>
      <trkpt lat="46.1598" lon="6.35576">
        <ele>600</ele>
        <time>2018-07-14T07:19:07Z</time>
      </trkpt>
      <trkpt lat="46.15987" lon="6.3557">
        <ele>603</ele>
        <time>2018-07-14T07:19:08Z</time>
      </trkpt>
      <trkpt lat="46.16003" lon="6.35562">
        <ele>601</ele>
        <time>2018-07-14T07:19:10Z</time>
      </trkpt>
      <trkpt lat="46.16008" lon="6.35556">
        <ele>600</ele>
        <time>2018-07-14T07:19:11Z</time>
      </trkpt>
      <trkpt lat="46.16018" lon="6.35541">
        <ele>599</ele>
        <time>2018-07-14T07:19:13Z</time>
      </trkpt>
      <trkpt lat="46.16049" lon="6.35512">
        <ele>599</ele>
        <time>2018-07-14T07:19:18Z</time>
      </trkpt>
      <trkpt lat="46.16067" lon="6.35496">
        <ele>599</ele>
        <time>2018-07-14T07:19:21Z</time>
      </trkpt>
      <trkpt lat="46.16094" lon="6.35461">
        <ele>599</ele>
        <time>2018-07-14T07:19:26Z</time>
      </trkpt>
      <trkpt lat="46.16118" lon="6.35422">
        <ele>599</ele>
        <time>2018-07-14T07:19:31Z</time>
      </trkpt>
      <trkpt lat="46.1614" lon="6.3538">
        <ele>598</ele>
        <time>2018-07-14T07:19:36Z</time>
      </trkpt>
      <trkpt lat="46.16159" lon="6.35342">
        <ele>597</ele>
        <time>2018-07-14T07:19:41Z</time>
      </trkpt>
      <trkpt lat="46.16164" lon="6.35337">
        <ele>596</ele>
        <time>2018-07-14T07:19:42Z</time>
      </trkpt>
      <trkpt lat="46.16173" lon="6.35329">
        <ele>597</ele>
        <time>2018-07-14T07:19:45Z</time>
      </trkpt>
      <trkpt lat="46.16177" lon="6.35325">
        <ele>597</ele>
        <time>2018-07-14T07:19:49Z</time>
      </trkpt>
      <trkpt lat="46.16178" lon="6.35324">
        <ele>596</ele>
        <time>2018-07-14T07:19:52Z</time>
      </trkpt>
      <trkpt lat="46.16179" lon="6.3532">
        <ele>598</ele>
        <time>2018-07-14T07:19:58Z</time>
      </trkpt>
      <trkpt lat="46.16188" lon="6.35316">
        <ele>604</ele>
        <time>2018-07-14T07:20:09Z</time>
      </trkpt>
      <trkpt lat="46.16211" lon="6.35309">
        <ele>605</ele>
        <time>2018-07-14T07:20:15Z</time>
      </trkpt>
      <trkpt lat="46.16226" lon="6.3531">
        <ele>603</ele>
        <time>2018-07-14T07:20:18Z</time>
      </trkpt>
      <trkpt lat="46.16262" lon="6.35314">
        <ele>597</ele>
        <time>2018-07-14T07:20:26Z</time>
      </trkpt>
      <trkpt lat="46.16275" lon="6.35313">
        <ele>596</ele>
        <time>2018-07-14T07:20:29Z</time>
      </trkpt>
      <trkpt lat="46.1628" lon="6.35313">
        <ele>596</ele>
        <time>2018-07-14T07:20:30Z</time>
      </trkpt>
      <trkpt lat="46.16284" lon="6.35316">
        <ele>596</ele>
        <time>2018-07-14T07:20:31Z</time>
      </trkpt>
      <trkpt lat="46.16289" lon="6.35319">
        <ele>596</ele>
        <time>2018-07-14T07:20:32Z</time>
      </trkpt>
      <trkpt lat="46.16294" lon="6.35323">
        <ele>595</ele>
        <time>2018-07-14T07:20:33Z</time>
      </trkpt>
      <trkpt lat="46.16298" lon="6.35329">
        <ele>594</ele>
        <time>2018-07-14T07:20:34Z</time>
      </trkpt>
      <trkpt lat="46.16301" lon="6.35335">
        <ele>594</ele>
        <time>2018-07-14T07:20:35Z</time>
      </trkpt>
      <trkpt lat="46.16303" lon="6.35342">
        <ele>594</ele>
        <time>2018-07-14T07:20:36Z</time>
      </trkpt>
      <trkpt lat="46.16314" lon="6.35388">
        <ele>595</ele>
        <time>2018-07-14T07:20:43Z</time>
      </trkpt>
      <trkpt lat="46.16323" lon="6.35439">
        <ele>595</ele>
        <time>2018-07-14T07:20:51Z</time>
      </trkpt>
      <trkpt lat="46.16324" lon="6.35449">
        <ele>595</ele>
        <time>2018-07-14T07:20:55Z</time>
      </trkpt>
      <trkpt lat="46.16325" lon="6.35451">
        <ele>595</ele>
        <time>2018-07-14T07:20:57Z</time>
      </trkpt>
      <trkpt lat="46.16326" lon="6.35452">
        <ele>596</ele>
        <time>2018-07-14T07:21:06Z</time>
      </trkpt>
      <trkpt lat="46.16329" lon="6.3545">
        <ele>599</ele>
        <time>2018-07-14T07:22:06Z</time>
      </trkpt>
      <trkpt lat="46.16338" lon="6.35501">
        <ele>601</ele>
        <time>2018-07-14T07:22:21Z</time>
      </trkpt>
      <trkpt lat="46.16348" lon="6.35552">
        <ele>602</ele>
        <time>2018-07-14T07:22:31Z</time>
      </trkpt>
      <trkpt lat="46.16363" lon="6.356">
        <ele>603</ele>
        <time>2018-07-14T07:22:41Z</time>
      </trkpt>
      <trkpt lat="46.1638" lon="6.35648">
        <ele>605</ele>
        <time>2018-07-14T07:22:51Z</time>
      </trkpt>
      <trkpt lat="46.16391" lon="6.35694">
        <ele>605</ele>
        <time>2018-07-14T07:23:00Z</time>
      </trkpt>
      <trkpt lat="46.16393" lon="6.35736">
        <ele>607</ele>
        <time>2018-07-14T07:23:08Z</time>
      </trkpt>
      <trkpt lat="46.16392" lon="6.35788">
        <ele>608</ele>
        <time>2018-07-14T07:23:18Z</time>
      </trkpt>
      <trkpt lat="46.16392" lon="6.35844">
        <ele>609</ele>
        <time>2018-07-14T07:23:31Z</time>
      </trkpt>
      <trkpt lat="46.16391" lon="6.35894">
        <ele>611</ele>
        <time>2018-07-14T07:23:41Z</time>
      </trkpt>
      <trkpt lat="46.16393" lon="6.35954">
        <ele>615</ele>
        <time>2018-07-14T07:23:51Z</time>
      </trkpt>
      <trkpt lat="46.16397" lon="6.36006">
        <ele>617</ele>
        <time>2018-07-14T07:24:03Z</time>
      </trkpt>
      <trkpt lat="46.16402" lon="6.36059">
        <ele>619</ele>
        <time>2018-07-14T07:24:14Z</time>
      </trkpt>
      <trkpt lat="46.16407" lon="6.36111">
        <ele>619</ele>
        <time>2018-07-14T07:24:25Z</time>
      </trkpt>
      <trkpt lat="46.1641" lon="6.36164">
        <ele>619</ele>
        <time>2018-07-14T07:24:36Z</time>
      </trkpt>
      <trkpt lat="46.16408" lon="6.36208">
        <ele>623</ele>
        <time>2018-07-14T07:24:45Z</time>
      </trkpt>
      <trkpt lat="46.16389" lon="6.363">
        <ele>626</ele>
        <time>2018-07-14T07:25:05Z</time>
      </trkpt>
      <trkpt lat="46.16386" lon="6.36342">
        <ele>630</ele>
        <time>2018-07-14T07:25:14Z</time>
      </trkpt>
      <trkpt lat="46.16387" lon="6.3639">
        <ele>633</ele>
        <time>2018-07-14T07:25:24Z</time>
      </trkpt>
      <trkpt lat="46.16395" lon="6.36433">
        <ele>635</ele>
        <time>2018-07-14T07:25:33Z</time>
      </trkpt>
      <trkpt lat="46.16396" lon="6.36437">
        <ele>634</ele>
        <time>2018-07-14T07:25:34Z</time>
      </trkpt>
      <trkpt lat="46.16398" lon="6.36442">
        <ele>634</ele>
        <time>2018-07-14T07:25:35Z</time>
      </trkpt>
      <trkpt lat="46.164" lon="6.36445">
        <ele>635</ele>
        <time>2018-07-14T07:25:36Z</time>
      </trkpt>
      <trkpt lat="46.16402" lon="6.36448">
        <ele>635</ele>
        <time>2018-07-14T07:25:37Z</time>
      </trkpt>
      <trkpt lat="46.16405" lon="6.3645">
        <ele>635</ele>
        <time>2018-07-14T07:25:38Z</time>
      </trkpt>
      <trkpt lat="46.16407" lon="6.36451">
        <ele>635</ele>
        <time>2018-07-14T07:25:39Z</time>
      </trkpt>
      <trkpt lat="46.1641" lon="6.36451">
        <ele>635</ele>
        <time>2018-07-14T07:25:40Z</time>
      </trkpt>
      <trkpt lat="46.16412" lon="6.36449">
        <ele>635</ele>
        <time>2018-07-14T07:25:41Z</time>
      </trkpt>
      <trkpt lat="46.16414" lon="6.36447">
        <ele>635</ele>
        <time>2018-07-14T07:25:42Z</time>
      </trkpt>
      <trkpt lat="46.16416" lon="6.36443">
        <ele>635</ele>
        <time>2018-07-14T07:25:43Z</time>
      </trkpt>
      <trkpt lat="46.16417" lon="6.3644">
        <ele>636</ele>
        <time>2018-07-14T07:25:44Z</time>
      </trkpt>
      <trkpt lat="46.16418" lon="6.36435">
        <ele>636</ele>
        <time>2018-07-14T07:25:45Z</time>
      </trkpt>
      <trkpt lat="46.16419" lon="6.36431">
        <ele>635</ele>
        <time>2018-07-14T07:25:46Z</time>
      </trkpt>
      <trkpt lat="46.16419" lon="6.36426">
        <ele>635</ele>
        <time>2018-07-14T07:25:47Z</time>
      </trkpt>
      <trkpt lat="46.16417" lon="6.364">
        <ele>635</ele>
        <time>2018-07-14T07:25:51Z</time>
      </trkpt>
      <trkpt lat="46.16412" lon="6.36363">
        <ele>635</ele>
        <time>2018-07-14T07:25:57Z</time>
      </trkpt>
      <trkpt lat="46.16412" lon="6.36347">
        <ele>635</ele>
        <time>2018-07-14T07:26:00Z</time>
      </trkpt>
      <trkpt lat="46.16418" lon="6.36303">
        <ele>637</ele>
        <time>2018-07-14T07:26:08Z</time>
      </trkpt>
      <trkpt lat="46.16435" lon="6.36259">
        <ele>637</ele>
        <time>2018-07-14T07:26:16Z</time>
      </trkpt>
      <trkpt lat="46.16444" lon="6.36231">
        <ele>636</ele>
        <time>2018-07-14T07:26:21Z</time>
      </trkpt>
      <trkpt lat="46.16448" lon="6.36206">
        <ele>638</ele>
        <time>2018-07-14T07:26:25Z</time>
      </trkpt>
      <trkpt lat="46.16453" lon="6.36152">
        <ele>638</ele>
        <time>2018-07-14T07:26:33Z</time>
      </trkpt>
      <trkpt lat="46.16457" lon="6.361">
        <ele>638</ele>
        <time>2018-07-14T07:26:41Z</time>
      </trkpt>
      <trkpt lat="46.1646" lon="6.36074">
        <ele>639</ele>
        <time>2018-07-14T07:26:45Z</time>
      </trkpt>
      <trkpt lat="46.16463" lon="6.36067">
        <ele>639</ele>
        <time>2018-07-14T07:26:46Z</time>
      </trkpt>
      <trkpt lat="46.16484" lon="6.36025">
        <ele>639</ele>
        <time>2018-07-14T07:26:54Z</time>
      </trkpt>
      <trkpt lat="46.16513" lon="6.35982">
        <ele>637</ele>
        <time>2018-07-14T07:27:03Z</time>
      </trkpt>
      <trkpt lat="46.16538" lon="6.35944">
        <ele>641</ele>
        <time>2018-07-14T07:27:16Z</time>
      </trkpt>
      <trkpt lat="46.16564" lon="6.35906">
        <ele>645</ele>
        <time>2018-07-14T07:27:29Z</time>
      </trkpt>
      <trkpt lat="46.16576" lon="6.35877">
        <ele>647</ele>
        <time>2018-07-14T07:27:38Z</time>
      </trkpt>
      <trkpt lat="46.16591" lon="6.35815">
        <ele>650</ele>
        <time>2018-07-14T07:27:56Z</time>
      </trkpt>
      <trkpt lat="46.16607" lon="6.35767">
        <ele>654</ele>
        <time>2018-07-14T07:28:10Z</time>
      </trkpt>
      <trkpt lat="46.16623" lon="6.3572">
        <ele>656</ele>
        <time>2018-07-14T07:28:24Z</time>
      </trkpt>
      <trkpt lat="46.1664" lon="6.35674">
        <ele>661</ele>
        <time>2018-07-14T07:28:39Z</time>
      </trkpt>
      <trkpt lat="46.16654" lon="6.3565">
        <ele>662</ele>
        <time>2018-07-14T07:28:48Z</time>
      </trkpt>
      <trkpt lat="46.16687" lon="6.3561">
        <ele>666</ele>
        <time>2018-07-14T07:29:06Z</time>
      </trkpt>
      <trkpt lat="46.16699" lon="6.35594">
        <ele>667</ele>
        <time>2018-07-14T07:29:13Z</time>
      </trkpt>
      <trkpt lat="46.16711" lon="6.3557">
        <ele>669</ele>
        <time>2018-07-14T07:29:22Z</time>
      </trkpt>
      <trkpt lat="46.16741" lon="6.35498">
        <ele>672</ele>
        <time>2018-07-14T07:29:47Z</time>
      </trkpt>
      <trkpt lat="46.16759" lon="6.3545">
        <ele>676</ele>
        <time>2018-07-14T07:30:03Z</time>
      </trkpt>
      <trkpt lat="46.1677" lon="6.35412">
        <ele>680</ele>
        <time>2018-07-14T07:30:15Z</time>
      </trkpt>
      <trkpt lat="46.16779" lon="6.35362">
        <ele>687</ele>
        <time>2018-07-14T07:30:31Z</time>
      </trkpt>
      <trkpt lat="46.16789" lon="6.35335">
        <ele>689</ele>
        <time>2018-07-14T07:30:40Z</time>
      </trkpt>
      <trkpt lat="46.16801" lon="6.35313">
        <ele>690</ele>
        <time>2018-07-14T07:30:49Z</time>
      </trkpt>
      <trkpt lat="46.16829" lon="6.35278">
        <ele>691</ele>
        <time>2018-07-14T07:31:05Z</time>
      </trkpt>
      <trkpt lat="46.16843" lon="6.35256">
        <ele>692</ele>
        <time>2018-07-14T07:31:14Z</time>
      </trkpt>
      <trkpt lat="46.16853" lon="6.3523">
        <ele>695</ele>
        <time>2018-07-14T07:31:23Z</time>
      </trkpt>
      <trkpt lat="46.16866" lon="6.35181">
        <ele>702</ele>
        <time>2018-07-14T07:31:40Z</time>
      </trkpt>
      <trkpt lat="46.16881" lon="6.35134">
        <ele>704</ele>
        <time>2018-07-14T07:31:56Z</time>
      </trkpt>
      <trkpt lat="46.16882" lon="6.35131">
        <ele>705</ele>
        <time>2018-07-14T07:31:57Z</time>
      </trkpt>
      <trkpt lat="46.16904" lon="6.3509">
        <ele>708</ele>
        <time>2018-07-14T07:32:13Z</time>
      </trkpt>
      <trkpt lat="46.16912" lon="6.35072">
        <ele>712</ele>
        <time>2018-07-14T07:32:20Z</time>
      </trkpt>
      <trkpt lat="46.16913" lon="6.35069">
        <ele>712</ele>
        <time>2018-07-14T07:32:21Z</time>
      </trkpt>
      <trkpt lat="46.16914" lon="6.35066">
        <ele>712</ele>
        <time>2018-07-14T07:32:22Z</time>
      </trkpt>
      <trkpt lat="46.16919" lon="6.35038">
        <ele>714</ele>
        <time>2018-07-14T07:32:31Z</time>
      </trkpt>
      <trkpt lat="46.16919" lon="6.35003">
        <ele>714</ele>
        <time>2018-07-14T07:32:41Z</time>
      </trkpt>
      <trkpt lat="46.16921" lon="6.3497">
        <ele>716</ele>
        <time>2018-07-14T07:32:51Z</time>
      </trkpt>
      <trkpt lat="46.16927" lon="6.34937">
        <ele>718</ele>
        <time>2018-07-14T07:33:01Z</time>
      </trkpt>
      <trkpt lat="46.16942" lon="6.34893">
        <ele>723</ele>
        <time>2018-07-14T07:33:16Z</time>
      </trkpt>
      <trkpt lat="46.16951" lon="6.34863">
        <ele>724</ele>
        <time>2018-07-14T07:33:26Z</time>
      </trkpt>
      <trkpt lat="46.1696" lon="6.34834">
        <ele>726</ele>
        <time>2018-07-14T07:33:36Z</time>
      </trkpt>
      <trkpt lat="46.16969" lon="6.34812">
        <ele>728</ele>
        <time>2018-07-14T07:33:44Z</time>
      </trkpt>
      <trkpt lat="46.16991" lon="6.34782">
        <ele>734</ele>
        <time>2018-07-14T07:33:58Z</time>
      </trkpt>
      <trkpt lat="46.17019" lon="6.3475">
        <ele>739</ele>
        <time>2018-07-14T07:34:14Z</time>
      </trkpt>
      <trkpt lat="46.17046" lon="6.34713">
        <ele>741</ele>
        <time>2018-07-14T07:34:32Z</time>
      </trkpt>
      <trkpt lat="46.17057" lon="6.34699">
        <ele>742</ele>
        <time>2018-07-14T07:34:39Z</time>
      </trkpt>
      <trkpt lat="46.17061" lon="6.34697">
        <ele>742</ele>
        <time>2018-07-14T07:34:41Z</time>
      </trkpt>
      <trkpt lat="46.17063" lon="6.34696">
        <ele>742</ele>
        <time>2018-07-14T07:34:42Z</time>
      </trkpt>
      <trkpt lat="46.17064" lon="6.34695">
        <ele>742</ele>
        <time>2018-07-14T07:34:43Z</time>
      </trkpt>
      <trkpt lat="46.17066" lon="6.34695">
        <ele>742</ele>
        <time>2018-07-14T07:34:44Z</time>
      </trkpt>
      <trkpt lat="46.17068" lon="6.34694">
        <ele>742</ele>
        <time>2018-07-14T07:34:45Z</time>
      </trkpt>
      <trkpt lat="46.1707" lon="6.34694">
        <ele>742</ele>
        <time>2018-07-14T07:34:46Z</time>
      </trkpt>
      <trkpt lat="46.17074" lon="6.34695">
        <ele>742</ele>
        <time>2018-07-14T07:34:48Z</time>
      </trkpt>
      <trkpt lat="46.17076" lon="6.34696">
        <ele>743</ele>
        <time>2018-07-14T07:34:49Z</time>
      </trkpt>
      <trkpt lat="46.17078" lon="6.34697">
        <ele>742</ele>
        <time>2018-07-14T07:34:50Z</time>
      </trkpt>
      <trkpt lat="46.17081" lon="6.34699">
        <ele>742</ele>
        <time>2018-07-14T07:34:52Z</time>
      </trkpt>
      <trkpt lat="46.17083" lon="6.347">
        <ele>743</ele>
        <time>2018-07-14T07:34:53Z</time>
      </trkpt>
      <trkpt lat="46.17085" lon="6.34702">
        <ele>743</ele>
        <time>2018-07-14T07:34:54Z</time>
      </trkpt>
      <trkpt lat="46.17086" lon="6.34703">
        <ele>744</ele>
        <time>2018-07-14T07:34:55Z</time>
      </trkpt>
      <trkpt lat="46.17089" lon="6.34707">
        <ele>745</ele>
        <time>2018-07-14T07:34:57Z</time>
      </trkpt>
      <trkpt lat="46.1709" lon="6.34709">
        <ele>745</ele>
        <time>2018-07-14T07:34:58Z</time>
      </trkpt>
      <trkpt lat="46.17091" lon="6.34712">
        <ele>745</ele>
        <time>2018-07-14T07:34:59Z</time>
      </trkpt>
      <trkpt lat="46.17092" lon="6.34714">
        <ele>745</ele>
        <time>2018-07-14T07:35:00Z</time>
      </trkpt>
      <trkpt lat="46.17092" lon="6.34717">
        <ele>745</ele>
        <time>2018-07-14T07:35:01Z</time>
      </trkpt>
      <trkpt lat="46.17097" lon="6.34769">
        <ele>752</ele>
        <time>2018-07-14T07:35:19Z</time>
      </trkpt>
      <trkpt lat="46.17101" lon="6.34807">
        <ele>756</ele>
        <time>2018-07-14T07:35:32Z</time>
      </trkpt>
      <trkpt lat="46.17103" lon="6.34815">
        <ele>757</ele>
        <time>2018-07-14T07:35:35Z</time>
      </trkpt>
      <trkpt lat="46.17104" lon="6.34817">
        <ele>757</ele>
        <time>2018-07-14T07:35:36Z</time>
      </trkpt>
      <trkpt lat="46.17105" lon="6.34819">
        <ele>757</ele>
        <time>2018-07-14T07:35:37Z</time>
      </trkpt>
      <trkpt lat="46.17107" lon="6.34821">
        <ele>757</ele>
        <time>2018-07-14T07:35:38Z</time>
      </trkpt>
      <trkpt lat="46.17108" lon="6.34823">
        <ele>757</ele>
        <time>2018-07-14T07:35:39Z</time>
      </trkpt>
      <trkpt lat="46.1711" lon="6.34825">
        <ele>757</ele>
        <time>2018-07-14T07:35:40Z</time>
      </trkpt>
      <trkpt lat="46.17112" lon="6.34826">
        <ele>757</ele>
        <time>2018-07-14T07:35:41Z</time>
      </trkpt>
      <trkpt lat="46.17114" lon="6.34827">
        <ele>757</ele>
        <time>2018-07-14T07:35:42Z</time>
      </trkpt>
      <trkpt lat="46.17116" lon="6.34828">
        <ele>757</ele>
        <time>2018-07-14T07:35:43Z</time>
      </trkpt>
      <trkpt lat="46.17117" lon="6.34828">
        <ele>757</ele>
        <time>2018-07-14T07:35:44Z</time>
      </trkpt>
      <trkpt lat="46.17119" lon="6.34828">
        <ele>758</ele>
        <time>2018-07-14T07:35:45Z</time>
      </trkpt>
      <trkpt lat="46.17121" lon="6.34828">
        <ele>758</ele>
        <time>2018-07-14T07:35:46Z</time>
      </trkpt>
      <trkpt lat="46.17123" lon="6.34828">
        <ele>758</ele>
        <time>2018-07-14T07:35:47Z</time>
      </trkpt>
      <trkpt lat="46.17125" lon="6.34827">
        <ele>759</ele>
        <time>2018-07-14T07:35:48Z</time>
      </trkpt>
      <trkpt lat="46.17127" lon="6.34826">
        <ele>759</ele>
        <time>2018-07-14T07:35:49Z</time>
      </trkpt>
      <trkpt lat="46.17129" lon="6.34825">
        <ele>760</ele>
        <time>2018-07-14T07:35:50Z</time>
      </trkpt>
      <trkpt lat="46.1713" lon="6.34823">
        <ele>760</ele>
        <time>2018-07-14T07:35:51Z</time>
      </trkpt>
      <trkpt lat="46.17132" lon="6.34821">
        <ele>760</ele>
        <time>2018-07-14T07:35:52Z</time>
      </trkpt>
      <trkpt lat="46.17133" lon="6.34818">
        <ele>760</ele>
        <time>2018-07-14T07:35:53Z</time>
      </trkpt>
      <trkpt lat="46.17135" lon="6.34816">
        <ele>759</ele>
        <time>2018-07-14T07:35:54Z</time>
      </trkpt>
      <trkpt lat="46.17144" lon="6.3478">
        <ele>763</ele>
        <time>2018-07-14T07:36:07Z</time>
      </trkpt>
      <trkpt lat="46.17154" lon="6.34761">
        <ele>765</ele>
        <time>2018-07-14T07:36:15Z</time>
      </trkpt>
      <trkpt lat="46.17156" lon="6.34759">
        <ele>765</ele>
        <time>2018-07-14T07:36:16Z</time>
      </trkpt>
      <trkpt lat="46.17196" lon="6.34729">
        <ele>768</ele>
        <time>2018-07-14T07:36:38Z</time>
      </trkpt>
      <trkpt lat="46.17234" lon="6.34687">
        <ele>774</ele>
        <time>2018-07-14T07:37:01Z</time>
      </trkpt>
      <trkpt lat="46.17263" lon="6.34654">
        <ele>778</ele>
        <time>2018-07-14T07:37:19Z</time>
      </trkpt>
      <trkpt lat="46.17291" lon="6.3462">
        <ele>781</ele>
        <time>2018-07-14T07:37:37Z</time>
      </trkpt>
      <trkpt lat="46.17319" lon="6.34583">
        <ele>786</ele>
        <time>2018-07-14T07:37:57Z</time>
      </trkpt>
      <trkpt lat="46.17344" lon="6.34543">
        <ele>791</ele>
        <time>2018-07-14T07:38:15Z</time>
      </trkpt>
      <trkpt lat="46.17357" lon="6.34527">
        <ele>794</ele>
        <time>2018-07-14T07:38:24Z</time>
      </trkpt>
      <trkpt lat="46.17372" lon="6.34513">
        <ele>796</ele>
        <time>2018-07-14T07:38:33Z</time>
      </trkpt>
      <trkpt lat="46.17407" lon="6.34493">
        <ele>798</ele>
        <time>2018-07-14T07:38:51Z</time>
      </trkpt>
      <trkpt lat="46.17424" lon="6.3448">
        <ele>798</ele>
        <time>2018-07-14T07:39:00Z</time>
      </trkpt>
      <trkpt lat="46.17438" lon="6.34465">
        <ele>798</ele>
        <time>2018-07-14T07:39:09Z</time>
      </trkpt>
      <trkpt lat="46.17455" lon="6.34439">
        <ele>801</ele>
        <time>2018-07-14T07:39:21Z</time>
      </trkpt>
      <trkpt lat="46.17457" lon="6.34437">
        <ele>801</ele>
        <time>2018-07-14T07:39:22Z</time>
      </trkpt>
      <trkpt lat="46.17459" lon="6.34436">
        <ele>801</ele>
        <time>2018-07-14T07:39:23Z</time>
      </trkpt>
      <trkpt lat="46.1746" lon="6.34435">
        <ele>802</ele>
        <time>2018-07-14T07:39:24Z</time>
      </trkpt>
      <trkpt lat="46.17462" lon="6.34435">
        <ele>803</ele>
        <time>2018-07-14T07:39:25Z</time>
      </trkpt>
      <trkpt lat="46.17464" lon="6.34435">
        <ele>803</ele>
        <time>2018-07-14T07:39:26Z</time>
      </trkpt>
      <trkpt lat="46.17465" lon="6.34435">
        <ele>804</ele>
        <time>2018-07-14T07:39:27Z</time>
      </trkpt>
      <trkpt lat="46.17467" lon="6.34435">
        <ele>805</ele>
        <time>2018-07-14T07:39:28Z</time>
      </trkpt>
      <trkpt lat="46.17468" lon="6.34436">
        <ele>805</ele>
        <time>2018-07-14T07:39:29Z</time>
      </trkpt>
      <trkpt lat="46.17471" lon="6.34438">
        <ele>806</ele>
        <time>2018-07-14T07:39:31Z</time>
      </trkpt>
      <trkpt lat="46.17473" lon="6.34439">
        <ele>807</ele>
        <time>2018-07-14T07:39:32Z</time>
      </trkpt>
      <trkpt lat="46.17474" lon="6.34441">
        <ele>807</ele>
        <time>2018-07-14T07:39:33Z</time>
      </trkpt>
      <trkpt lat="46.17475" lon="6.34443">
        <ele>807</ele>
        <time>2018-07-14T07:39:34Z</time>
      </trkpt>
      <trkpt lat="46.17476" lon="6.34444">
        <ele>808</ele>
        <time>2018-07-14T07:39:35Z</time>
      </trkpt>
      <trkpt lat="46.17479" lon="6.34451">
        <ele>811</ele>
        <time>2018-07-14T07:39:38Z</time>
      </trkpt>
      <trkpt lat="46.17488" lon="6.34489">
        <ele>814</ele>
        <time>2018-07-14T07:39:53Z</time>
      </trkpt>
      <trkpt lat="46.17493" lon="6.34515">
        <ele>816</ele>
        <time>2018-07-14T07:40:03Z</time>
      </trkpt>
      <trkpt lat="46.17494" lon="6.3454">
        <ele>819</ele>
        <time>2018-07-14T07:40:12Z</time>
      </trkpt>
      <trkpt lat="46.1749" lon="6.34568">
        <ele>821</ele>
        <time>2018-07-14T07:40:22Z</time>
      </trkpt>
      <trkpt lat="46.17482" lon="6.34597">
        <ele>823</ele>
        <time>2018-07-14T07:40:33Z</time>
      </trkpt>
      <trkpt lat="46.17467" lon="6.34645">
        <ele>826</ele>
        <time>2018-07-14T07:40:51Z</time>
      </trkpt>
      <trkpt lat="46.17453" lon="6.34693">
        <ele>830</ele>
        <time>2018-07-14T07:41:09Z</time>
      </trkpt>
      <trkpt lat="46.17438" lon="6.34741">
        <ele>834</ele>
        <time>2018-07-14T07:41:26Z</time>
      </trkpt>
      <trkpt lat="46.17437" lon="6.34747">
        <ele>835</ele>
        <time>2018-07-14T07:41:28Z</time>
      </trkpt>
      <trkpt lat="46.17436" lon="6.34749">
        <ele>835</ele>
        <time>2018-07-14T07:41:29Z</time>
      </trkpt>
      <trkpt lat="46.17436" lon="6.34752">
        <ele>836</ele>
        <time>2018-07-14T07:41:30Z</time>
      </trkpt>
      <trkpt lat="46.17435" lon="6.34763">
        <ele>838</ele>
        <time>2018-07-14T07:41:34Z</time>
      </trkpt>
      <trkpt lat="46.17435" lon="6.34766">
        <ele>839</ele>
        <time>2018-07-14T07:41:35Z</time>
      </trkpt>
      <trkpt lat="46.17436" lon="6.34768">
        <ele>839</ele>
        <time>2018-07-14T07:41:36Z</time>
      </trkpt>
      <trkpt lat="46.17447" lon="6.34798">
        <ele>841</ele>
        <time>2018-07-14T07:41:49Z</time>
      </trkpt>
      <trkpt lat="46.17448" lon="6.348">
        <ele>841</ele>
        <time>2018-07-14T07:41:50Z</time>
      </trkpt>
      <trkpt lat="46.17449" lon="6.34802">
        <ele>841</ele>
        <time>2018-07-14T07:41:51Z</time>
      </trkpt>
      <trkpt lat="46.17451" lon="6.34814">
        <ele>842</ele>
        <time>2018-07-14T07:41:56Z</time>
      </trkpt>
      <trkpt lat="46.17451" lon="6.34817">
        <ele>843</ele>
        <time>2018-07-14T07:41:57Z</time>
      </trkpt>
      <trkpt lat="46.17449" lon="6.34839">
        <ele>845</ele>
        <time>2018-07-14T07:42:05Z</time>
      </trkpt>
      <trkpt lat="46.17439" lon="6.34874">
        <ele>851</ele>
        <time>2018-07-14T07:42:19Z</time>
      </trkpt>
      <trkpt lat="46.17438" lon="6.34881">
        <ele>851</ele>
        <time>2018-07-14T07:42:22Z</time>
      </trkpt>
      <trkpt lat="46.17437" lon="6.34883">
        <ele>852</ele>
        <time>2018-07-14T07:42:23Z</time>
      </trkpt>
      <trkpt lat="46.17437" lon="6.34885">
        <ele>852</ele>
        <time>2018-07-14T07:42:24Z</time>
      </trkpt>
      <trkpt lat="46.17437" lon="6.34888">
        <ele>852</ele>
        <time>2018-07-14T07:42:25Z</time>
      </trkpt>
      <trkpt lat="46.17438" lon="6.3489">
        <ele>853</ele>
        <time>2018-07-14T07:42:26Z</time>
      </trkpt>
      <trkpt lat="46.17438" lon="6.34893">
        <ele>853</ele>
        <time>2018-07-14T07:42:27Z</time>
      </trkpt>
      <trkpt lat="46.17438" lon="6.34895">
        <ele>853</ele>
        <time>2018-07-14T07:42:28Z</time>
      </trkpt>
      <trkpt lat="46.17439" lon="6.34897">
        <ele>854</ele>
        <time>2018-07-14T07:42:29Z</time>
      </trkpt>
      <trkpt lat="46.17441" lon="6.34899">
        <ele>853</ele>
        <time>2018-07-14T07:42:31Z</time>
      </trkpt>
      <trkpt lat="46.17443" lon="6.349">
        <ele>853</ele>
        <time>2018-07-14T07:42:32Z</time>
      </trkpt>
      <trkpt lat="46.17444" lon="6.34901">
        <ele>853</ele>
        <time>2018-07-14T07:42:33Z</time>
      </trkpt>
      <trkpt lat="46.17446" lon="6.34901">
        <ele>854</ele>
        <time>2018-07-14T07:42:34Z</time>
      </trkpt>
      <trkpt lat="46.17448" lon="6.34901">
        <ele>854</ele>
        <time>2018-07-14T07:42:35Z</time>
      </trkpt>
      <trkpt lat="46.17449" lon="6.34901">
        <ele>854</ele>
        <time>2018-07-14T07:42:36Z</time>
      </trkpt>
      <trkpt lat="46.17461" lon="6.34897">
        <ele>856</ele>
        <time>2018-07-14T07:42:42Z</time>
      </trkpt>
      <trkpt lat="46.17481" lon="6.34884">
        <ele>857</ele>
        <time>2018-07-14T07:42:52Z</time>
      </trkpt>
      <trkpt lat="46.17509" lon="6.3486">
        <ele>860</ele>
        <time>2018-07-14T07:43:07Z</time>
      </trkpt>
      <trkpt lat="46.17534" lon="6.3483">
        <ele>863</ele>
        <time>2018-07-14T07:43:22Z</time>
      </trkpt>
      <trkpt lat="46.17562" lon="6.34786">
        <ele>865</ele>
        <time>2018-07-14T07:43:41Z</time>
      </trkpt>
      <trkpt lat="46.17582" lon="6.34755">
        <ele>868</ele>
        <time>2018-07-14T07:43:55Z</time>
      </trkpt>
      <trkpt lat="46.17598" lon="6.34729">
        <ele>870</ele>
        <time>2018-07-14T07:44:07Z</time>
      </trkpt>
      <trkpt lat="46.1761" lon="6.34705">
        <ele>874</ele>
        <time>2018-07-14T07:44:17Z</time>
      </trkpt>
      <trkpt lat="46.17621" lon="6.34683">
        <ele>877</ele>
        <time>2018-07-14T07:44:27Z</time>
      </trkpt>
      <trkpt lat="46.17623" lon="6.34679">
        <ele>877</ele>
        <time>2018-07-14T07:44:29Z</time>
      </trkpt>
      <trkpt lat="46.17625" lon="6.34675">
        <ele>877</ele>
        <time>2018-07-14T07:44:31Z</time>
      </trkpt>
      <trkpt lat="46.17625" lon="6.34673">
        <ele>878</ele>
        <time>2018-07-14T07:44:32Z</time>
      </trkpt>
      <trkpt lat="46.17626" lon="6.34672">
        <ele>878</ele>
        <time>2018-07-14T07:44:33Z</time>
      </trkpt>
      <trkpt lat="46.17628" lon="6.3467">
        <ele>878</ele>
        <time>2018-07-14T07:44:34Z</time>
      </trkpt>
      <trkpt lat="46.17641" lon="6.34658">
        <ele>879</ele>
        <time>2018-07-14T07:44:42Z</time>
      </trkpt>
      <trkpt lat="46.1766" lon="6.34648">
        <ele>882</ele>
        <time>2018-07-14T07:44:54Z</time>
      </trkpt>
      <trkpt lat="46.17675" lon="6.34639">
        <ele>887</ele>
        <time>2018-07-14T07:45:03Z</time>
      </trkpt>
      <trkpt lat="46.17682" lon="6.34636">
        <ele>886</ele>
        <time>2018-07-14T07:45:07Z</time>
      </trkpt>
      <trkpt lat="46.17688" lon="6.34637">
        <ele>887</ele>
        <time>2018-07-14T07:45:10Z</time>
      </trkpt>
      <trkpt lat="46.17689" lon="6.34637">
        <ele>886</ele>
        <time>2018-07-14T07:45:11Z</time>
      </trkpt>
      <trkpt lat="46.17692" lon="6.34638">
        <ele>887</ele>
        <time>2018-07-14T07:45:13Z</time>
      </trkpt>
      <trkpt lat="46.17693" lon="6.34641">
        <ele>888</ele>
        <time>2018-07-14T07:45:15Z</time>
      </trkpt>
      <trkpt lat="46.17694" lon="6.34645">
        <ele>888</ele>
        <time>2018-07-14T07:45:17Z</time>
      </trkpt>
      <trkpt lat="46.17694" lon="6.34648">
        <ele>889</ele>
        <time>2018-07-14T07:45:19Z</time>
      </trkpt>
      <trkpt lat="46.17693" lon="6.34652">
        <ele>890</ele>
        <time>2018-07-14T07:45:21Z</time>
      </trkpt>
      <trkpt lat="46.17692" lon="6.34657">
        <ele>891</ele>
        <time>2018-07-14T07:45:23Z</time>
      </trkpt>
      <trkpt lat="46.17691" lon="6.3466">
        <ele>891</ele>
        <time>2018-07-14T07:45:24Z</time>
      </trkpt>
      <trkpt lat="46.17691" lon="6.34662">
        <ele>891</ele>
        <time>2018-07-14T07:45:25Z</time>
      </trkpt>
      <trkpt lat="46.17691" lon="6.34667">
        <ele>892</ele>
        <time>2018-07-14T07:45:27Z</time>
      </trkpt>
      <trkpt lat="46.17692" lon="6.34669">
        <ele>892</ele>
        <time>2018-07-14T07:45:28Z</time>
      </trkpt>
      <trkpt lat="46.17693" lon="6.34671">
        <ele>892</ele>
        <time>2018-07-14T07:45:29Z</time>
      </trkpt>
      <trkpt lat="46.17694" lon="6.34673">
        <ele>892</ele>
        <time>2018-07-14T07:45:30Z</time>
      </trkpt>
      <trkpt lat="46.17696" lon="6.34673">
        <ele>892</ele>
        <time>2018-07-14T07:45:31Z</time>
      </trkpt>
      <trkpt lat="46.17698" lon="6.34673">
        <ele>893</ele>
        <time>2018-07-14T07:45:32Z</time>
      </trkpt>
      <trkpt lat="46.17699" lon="6.34673">
        <ele>893</ele>
        <time>2018-07-14T07:45:33Z</time>
      </trkpt>
      <trkpt lat="46.17701" lon="6.34673">
        <ele>892</ele>
        <time>2018-07-14T07:45:34Z</time>
      </trkpt>
      <trkpt lat="46.17703" lon="6.34673">
        <ele>892</ele>
        <time>2018-07-14T07:45:35Z</time>
      </trkpt>
      <trkpt lat="46.17705" lon="6.34671">
        <ele>893</ele>
        <time>2018-07-14T07:45:37Z</time>
      </trkpt>
      <trkpt lat="46.17707" lon="6.3467">
        <ele>893</ele>
        <time>2018-07-14T07:45:41Z</time>
      </trkpt>
      <trkpt lat="46.17708" lon="6.34672">
        <ele>894</ele>
        <time>2018-07-14T07:46:13Z</time>
      </trkpt>
      <trkpt lat="46.1771" lon="6.34672">
        <ele>892</ele>
        <time>2018-07-14T07:51:22Z</time>
      </trkpt>
      <trkpt lat="46.17711" lon="6.34669">
        <ele>894</ele>
        <time>2018-07-14T07:51:52Z</time>
      </trkpt>
      <trkpt lat="46.1773" lon="6.34645">
        <ele>896</ele>
        <time>2018-07-14T07:52:07Z</time>
      </trkpt>
      <trkpt lat="46.17761" lon="6.3462">
        <ele>895</ele>
        <time>2018-07-14T07:52:20Z</time>
      </trkpt>
      <trkpt lat="46.17775" lon="6.34607">
        <ele>897</ele>
        <time>2018-07-14T07:52:25Z</time>
      </trkpt>
      <trkpt lat="46.17778" lon="6.34604">
        <ele>897</ele>
        <time>2018-07-14T07:52:26Z</time>
      </trkpt>
      <trkpt lat="46.17785" lon="6.3459">
        <ele>897</ele>
        <time>2018-07-14T07:52:30Z</time>
      </trkpt>
      <trkpt lat="46.17786" lon="6.34587">
        <ele>897</ele>
        <time>2018-07-14T07:52:31Z</time>
      </trkpt>
      <trkpt lat="46.17802" lon="6.34537">
        <ele>898</ele>
        <time>2018-07-14T07:52:44Z</time>
      </trkpt>
      <trkpt lat="46.17808" lon="6.34523">
        <ele>898</ele>
        <time>2018-07-14T07:52:48Z</time>
      </trkpt>
      <trkpt lat="46.17828" lon="6.34493">
        <ele>897</ele>
        <time>2018-07-14T07:52:54Z</time>
      </trkpt>
      <trkpt lat="46.17838" lon="6.34481">
        <ele>897</ele>
        <time>2018-07-14T07:52:57Z</time>
      </trkpt>
      <trkpt lat="46.17843" lon="6.34479">
        <ele>898</ele>
        <time>2018-07-14T07:52:58Z</time>
      </trkpt>
      <trkpt lat="46.17866" lon="6.34467">
        <ele>899</ele>
        <time>2018-07-14T07:53:02Z</time>
      </trkpt>
      <trkpt lat="46.17882" lon="6.34441">
        <ele>895</ele>
        <time>2018-07-14T07:53:06Z</time>
      </trkpt>
      <trkpt lat="46.17897" lon="6.34427">
        <ele>897</ele>
        <time>2018-07-14T07:53:09Z</time>
      </trkpt>
      <trkpt lat="46.17902" lon="6.34425">
        <ele>898</ele>
        <time>2018-07-14T07:53:10Z</time>
      </trkpt>
      <trkpt lat="46.17906" lon="6.34423">
        <ele>897</ele>
        <time>2018-07-14T07:53:11Z</time>
      </trkpt>
      <trkpt lat="46.17945" lon="6.34422">
        <ele>900</ele>
        <time>2018-07-14T07:53:23Z</time>
      </trkpt>
      <trkpt lat="46.17975" lon="6.3441">
        <ele>907</ele>
        <time>2018-07-14T07:53:37Z</time>
      </trkpt>
      <trkpt lat="46.17998" lon="6.34406">
        <ele>909</ele>
        <time>2018-07-14T07:53:43Z</time>
      </trkpt>
      <trkpt lat="46.18004" lon="6.34407">
        <ele>910</ele>
        <time>2018-07-14T07:53:47Z</time>
      </trkpt>
      <trkpt lat="46.18027" lon="6.3441">
        <ele>912</ele>
        <time>2018-07-14T07:53:57Z</time>
      </trkpt>
      <trkpt lat="46.18032" lon="6.34409">
        <ele>912</ele>
        <time>2018-07-14T07:53:59Z</time>
      </trkpt>
      <trkpt lat="46.18038" lon="6.34407">
        <ele>913</ele>
        <time>2018-07-14T07:54:01Z</time>
      </trkpt>
      <trkpt lat="46.1805" lon="6.34401">
        <ele>915</ele>
        <time>2018-07-14T07:54:06Z</time>
      </trkpt>
      <trkpt lat="46.18083" lon="6.34376">
        <ele>919</ele>
        <time>2018-07-14T07:54:20Z</time>
      </trkpt>
      <trkpt lat="46.18103" lon="6.34357">
        <ele>920</ele>
        <time>2018-07-14T07:54:29Z</time>
      </trkpt>
      <trkpt lat="46.18112" lon="6.34352">
        <ele>920</ele>
        <time>2018-07-14T07:54:33Z</time>
      </trkpt>
      <trkpt lat="46.18121" lon="6.34343">
        <ele>920</ele>
        <time>2018-07-14T07:54:38Z</time>
      </trkpt>
      <trkpt lat="46.18145" lon="6.34316">
        <ele>925</ele>
        <time>2018-07-14T07:54:48Z</time>
      </trkpt>
      <trkpt lat="46.18159" lon="6.34287">
        <ele>925</ele>
        <time>2018-07-14T07:54:57Z</time>
      </trkpt>
      <trkpt lat="46.1816" lon="6.34284">
        <ele>926</ele>
        <time>2018-07-14T07:54:58Z</time>
      </trkpt>
      <trkpt lat="46.18171" lon="6.34235">
        <ele>928</ele>
        <time>2018-07-14T07:55:11Z</time>
      </trkpt>
      <trkpt lat="46.18182" lon="6.34205">
        <ele>928</ele>
        <time>2018-07-14T07:55:20Z</time>
      </trkpt>
      <trkpt lat="46.18198" lon="6.34177">
        <ele>928</ele>
        <time>2018-07-14T07:55:29Z</time>
      </trkpt>
      <trkpt lat="46.18224" lon="6.34139">
        <ele>928</ele>
        <time>2018-07-14T07:55:41Z</time>
      </trkpt>
      <trkpt lat="46.18252" lon="6.34094">
        <ele>928</ele>
        <time>2018-07-14T07:55:54Z</time>
      </trkpt>
      <trkpt lat="46.18271" lon="6.34054">
        <ele>929</ele>
        <time>2018-07-14T07:56:09Z</time>
      </trkpt>
      <trkpt lat="46.18274" lon="6.34048">
        <ele>929</ele>
        <time>2018-07-14T07:56:12Z</time>
      </trkpt>
      <trkpt lat="46.18278" lon="6.34035">
        <ele>930</ele>
        <time>2018-07-14T07:56:16Z</time>
      </trkpt>
      <trkpt lat="46.18286" lon="6.33993">
        <ele>933</ele>
        <time>2018-07-14T07:56:27Z</time>
      </trkpt>
      <trkpt lat="46.18289" lon="6.33954">
        <ele>931</ele>
        <time>2018-07-14T07:56:36Z</time>
      </trkpt>
      <trkpt lat="46.18289" lon="6.33949">
        <ele>932</ele>
        <time>2018-07-14T07:56:37Z</time>
      </trkpt>
      <trkpt lat="46.18288" lon="6.33945">
        <ele>933</ele>
        <time>2018-07-14T07:56:38Z</time>
      </trkpt>
      <trkpt lat="46.18287" lon="6.3394">
        <ele>933</ele>
        <time>2018-07-14T07:56:39Z</time>
      </trkpt>
      <trkpt lat="46.18282" lon="6.33927">
        <ele>932</ele>
        <time>2018-07-14T07:56:40Z</time>
      </trkpt>
      <trkpt lat="46.18277" lon="6.33914">
        <ele>932</ele>
        <time>2018-07-14T07:56:42Z</time>
      </trkpt>
      <trkpt lat="46.18276" lon="6.33907">
        <ele>932</ele>
        <time>2018-07-14T07:56:43Z</time>
      </trkpt>
      <trkpt lat="46.18277" lon="6.339">
        <ele>932</ele>
        <time>2018-07-14T07:56:44Z</time>
      </trkpt>
      <trkpt lat="46.18279" lon="6.33893">
        <ele>933</ele>
        <time>2018-07-14T07:56:45Z</time>
      </trkpt>
      <trkpt lat="46.18286" lon="6.33871">
        <ele>931</ele>
        <time>2018-07-14T07:56:48Z</time>
      </trkpt>
      <trkpt lat="46.18306" lon="6.33827">
        <ele>931</ele>
        <time>2018-07-14T07:56:54Z</time>
      </trkpt>
      <trkpt lat="46.18323" lon="6.3378">
        <ele>929</ele>
        <time>2018-07-14T07:56:59Z</time>
      </trkpt>
      <trkpt lat="46.18325" lon="6.33771">
        <ele>929</ele>
        <time>2018-07-14T07:57:00Z</time>
      </trkpt>
      <trkpt lat="46.18325" lon="6.33763">
        <ele>929</ele>
        <time>2018-07-14T07:57:01Z</time>
      </trkpt>
      <trkpt lat="46.18326" lon="6.33753">
        <ele>928</ele>
        <time>2018-07-14T07:57:02Z</time>
      </trkpt>
      <trkpt lat="46.18325" lon="6.33742">
        <ele>927</ele>
        <time>2018-07-14T07:57:03Z</time>
      </trkpt>
      <trkpt lat="46.18323" lon="6.33732">
        <ele>927</ele>
        <time>2018-07-14T07:57:04Z</time>
      </trkpt>
      <trkpt lat="46.18305" lon="6.33713">
        <ele>926</ele>
        <time>2018-07-14T07:57:06Z</time>
      </trkpt>
      <trkpt lat="46.18287" lon="6.33682">
        <ele>923</ele>
        <time>2018-07-14T07:57:10Z</time>
      </trkpt>
      <trkpt lat="46.18276" lon="6.33669">
        <ele>922</ele>
        <time>2018-07-14T07:57:11Z</time>
      </trkpt>
      <trkpt lat="46.18269" lon="6.33645">
        <ele>921</ele>
        <time>2018-07-14T07:57:13Z</time>
      </trkpt>
      <trkpt lat="46.18263" lon="6.33632">
        <ele>918</ele>
        <time>2018-07-14T07:57:14Z</time>
      </trkpt>
      <trkpt lat="46.18262" lon="6.33619">
        <ele>917</ele>
        <time>2018-07-14T07:57:15Z</time>
      </trkpt>
      <trkpt lat="46.18265" lon="6.33601">
        <ele>915</ele>
        <time>2018-07-14T07:57:16Z</time>
      </trkpt>
      <trkpt lat="46.18279" lon="6.33535">
        <ele>905</ele>
        <time>2018-07-14T07:57:21Z</time>
      </trkpt>
      <trkpt lat="46.18293" lon="6.33462">
        <ele>897</ele>
        <time>2018-07-14T07:57:26Z</time>
      </trkpt>
      <trkpt lat="46.18305" lon="6.33406">
        <ele>893</ele>
        <time>2018-07-14T07:57:31Z</time>
      </trkpt>
      <trkpt lat="46.18306" lon="6.33395">
        <ele>891</ele>
        <time>2018-07-14T07:57:32Z</time>
      </trkpt>
      <trkpt lat="46.18307" lon="6.33385">
        <ele>890</ele>
        <time>2018-07-14T07:57:33Z</time>
      </trkpt>
      <trkpt lat="46.18305" lon="6.33375">
        <ele>890</ele>
        <time>2018-07-14T07:57:34Z</time>
      </trkpt>
      <trkpt lat="46.183" lon="6.33366">
        <ele>888</ele>
        <time>2018-07-14T07:57:35Z</time>
      </trkpt>
      <trkpt lat="46.18295" lon="6.33358">
        <ele>887</ele>
        <time>2018-07-14T07:57:36Z</time>
      </trkpt>
      <trkpt lat="46.18289" lon="6.33352">
        <ele>887</ele>
        <time>2018-07-14T07:57:37Z</time>
      </trkpt>
      <trkpt lat="46.1821" lon="6.33317">
        <ele>873</ele>
        <time>2018-07-14T07:57:43Z</time>
      </trkpt>
      <trkpt lat="46.18147" lon="6.33285">
        <ele>865</ele>
        <time>2018-07-14T07:57:48Z</time>
      </trkpt>
      <trkpt lat="46.18121" lon="6.33272">
        <ele>862</ele>
        <time>2018-07-14T07:57:51Z</time>
      </trkpt>
      <trkpt lat="46.18114" lon="6.33269">
        <ele>862</ele>
        <time>2018-07-14T07:57:52Z</time>
      </trkpt>
      <trkpt lat="46.18106" lon="6.3327">
        <ele>861</ele>
        <time>2018-07-14T07:57:53Z</time>
      </trkpt>
      <trkpt lat="46.18099" lon="6.33272">
        <ele>859</ele>
        <time>2018-07-14T07:57:54Z</time>
      </trkpt>
      <trkpt lat="46.18093" lon="6.33274">
        <ele>858</ele>
        <time>2018-07-14T07:57:55Z</time>
      </trkpt>
      <trkpt lat="46.18048" lon="6.33314">
        <ele>854</ele>
        <time>2018-07-14T07:58:01Z</time>
      </trkpt>
      <trkpt lat="46.18013" lon="6.33354">
        <ele>847</ele>
        <time>2018-07-14T07:58:06Z</time>
      </trkpt>
      <trkpt lat="46.17985" lon="6.33382">
        <ele>841</ele>
        <time>2018-07-14T07:58:14Z</time>
      </trkpt>
      <trkpt lat="46.17982" lon="6.33382">
        <ele>839</ele>
        <time>2018-07-14T07:58:15Z</time>
      </trkpt>
      <trkpt lat="46.1798" lon="6.33381">
        <ele>839</ele>
        <time>2018-07-14T07:58:16Z</time>
      </trkpt>
      <trkpt lat="46.17979" lon="6.3338">
        <ele>838</ele>
        <time>2018-07-14T07:58:17Z</time>
      </trkpt>
      <trkpt lat="46.1798" lon="6.33368">
        <ele>837</ele>
        <time>2018-07-14T07:58:18Z</time>
      </trkpt>
      <trkpt lat="46.17982" lon="6.33361">
        <ele>836</ele>
        <time>2018-07-14T07:58:19Z</time>
      </trkpt>
      <trkpt lat="46.17989" lon="6.3331">
        <ele>831</ele>
        <time>2018-07-14T07:58:25Z</time>
      </trkpt>
      <trkpt lat="46.18001" lon="6.33259">
        <ele>829</ele>
        <time>2018-07-14T07:58:30Z</time>
      </trkpt>
      <trkpt lat="46.1802" lon="6.33202">
        <ele>825</ele>
        <time>2018-07-14T07:58:35Z</time>
      </trkpt>
      <trkpt lat="46.18036" lon="6.33153">
        <ele>824</ele>
        <time>2018-07-14T07:58:39Z</time>
      </trkpt>
      <trkpt lat="46.1806" lon="6.33093">
        <ele>818</ele>
        <time>2018-07-14T07:58:44Z</time>
      </trkpt>
      <trkpt lat="46.18081" lon="6.33036">
        <ele>813</ele>
        <time>2018-07-14T07:58:49Z</time>
      </trkpt>
      <trkpt lat="46.18099" lon="6.32999">
        <ele>815</ele>
        <time>2018-07-14T07:58:53Z</time>
      </trkpt>
      <trkpt lat="46.1811" lon="6.32963">
        <ele>813</ele>
        <time>2018-07-14T07:58:57Z</time>
      </trkpt>
      <trkpt lat="46.18115" lon="6.32955">
        <ele>812</ele>
        <time>2018-07-14T07:58:58Z</time>
      </trkpt>
      <trkpt lat="46.18119" lon="6.32948">
        <ele>809</ele>
        <time>2018-07-14T07:58:59Z</time>
      </trkpt>
      <trkpt lat="46.18126" lon="6.32942">
        <ele>810</ele>
        <time>2018-07-14T07:59:00Z</time>
      </trkpt>
      <trkpt lat="46.18158" lon="6.32918">
        <ele>811</ele>
        <time>2018-07-14T07:59:05Z</time>
      </trkpt>
      <trkpt lat="46.18191" lon="6.32894">
        <ele>810</ele>
        <time>2018-07-14T07:59:10Z</time>
      </trkpt>
      <trkpt lat="46.18226" lon="6.32867">
        <ele>894</ele>
        <time>2018-07-14T07:59:16Z</time>
      </trkpt>
      <trkpt lat="46.18259" lon="6.32842">
        <ele>823</ele>
        <time>2018-07-14T07:59:21Z</time>
      </trkpt>
      <trkpt lat="46.18271" lon="6.32832">
        <ele>816</ele>
        <time>2018-07-14T07:59:23Z</time>
      </trkpt>
      <trkpt lat="46.18286" lon="6.32826">
        <ele>814</ele>
        <time>2018-07-14T07:59:25Z</time>
      </trkpt>
      <trkpt lat="46.18319" lon="6.32811">
        <ele>810</ele>
        <time>2018-07-14T07:59:30Z</time>
      </trkpt>
      <trkpt lat="46.18355" lon="6.32798">
        <ele>817</ele>
        <time>2018-07-14T07:59:36Z</time>
      </trkpt>
      <trkpt lat="46.18364" lon="6.32792">
        <ele>817</ele>
        <time>2018-07-14T07:59:37Z</time>
      </trkpt>
      <trkpt lat="46.18404" lon="6.32755">
        <ele>807</ele>
        <time>2018-07-14T07:59:42Z</time>
      </trkpt>
      <trkpt lat="46.18431" lon="6.32722">
        <ele>804</ele>
        <time>2018-07-14T07:59:46Z</time>
      </trkpt>
      <trkpt lat="46.18439" lon="6.32712">
        <ele>802</ele>
        <time>2018-07-14T07:59:48Z</time>
      </trkpt>
      <trkpt lat="46.18444" lon="6.32708">
        <ele>801</ele>
        <time>2018-07-14T07:59:49Z</time>
      </trkpt>
      <trkpt lat="46.18476" lon="6.32687">
        <ele>798</ele>
        <time>2018-07-14T07:59:54Z</time>
      </trkpt>
      <trkpt lat="46.18511" lon="6.32667">
        <ele>799</ele>
        <time>2018-07-14T07:59:59Z</time>
      </trkpt>
      <trkpt lat="46.18519" lon="6.32663">
        <ele>799</ele>
        <time>2018-07-14T08:00:00Z</time>
      </trkpt>
      <trkpt lat="46.18522" lon="6.32656">
        <ele>798</ele>
        <time>2018-07-14T08:00:01Z</time>
      </trkpt>
      <trkpt lat="46.18539" lon="6.32635">
        <ele>791</ele>
        <time>2018-07-14T08:00:04Z</time>
      </trkpt>
      <trkpt lat="46.18552" lon="6.32621">
        <ele>792</ele>
        <time>2018-07-14T08:00:06Z</time>
      </trkpt>
      <trkpt lat="46.1856" lon="6.32615">
        <ele>792</ele>
        <time>2018-07-14T08:00:07Z</time>
      </trkpt>
      <trkpt lat="46.18598" lon="6.32593">
        <ele>794</ele>
        <time>2018-07-14T08:00:12Z</time>
      </trkpt>
      <trkpt lat="46.18636" lon="6.32575">
        <ele>796</ele>
        <time>2018-07-14T08:00:17Z</time>
      </trkpt>
      <trkpt lat="46.18672" lon="6.32556">
        <ele>798</ele>
        <time>2018-07-14T08:00:22Z</time>
      </trkpt>
      <trkpt lat="46.18695" lon="6.32545">
        <ele>797</ele>
        <time>2018-07-14T08:00:26Z</time>
      </trkpt>
      <trkpt lat="46.18713" lon="6.3254">
        <ele>800</ele>
        <time>2018-07-14T08:00:30Z</time>
      </trkpt>
      <trkpt lat="46.18734" lon="6.32525">
        <ele>803</ele>
        <time>2018-07-14T08:00:35Z</time>
      </trkpt>
      <trkpt lat="46.18753" lon="6.32501">
        <ele>799</ele>
        <time>2018-07-14T08:00:38Z</time>
      </trkpt>
      <trkpt lat="46.18757" lon="6.32495">
        <ele>799</ele>
        <time>2018-07-14T08:00:39Z</time>
      </trkpt>
      <trkpt lat="46.18764" lon="6.32482">
        <ele>797</ele>
        <time>2018-07-14T08:00:41Z</time>
      </trkpt>
      <trkpt lat="46.18773" lon="6.32453">
        <ele>789</ele>
        <time>2018-07-14T08:00:44Z</time>
      </trkpt>
      <trkpt lat="46.18786" lon="6.32407">
        <ele>789</ele>
        <time>2018-07-14T08:00:49Z</time>
      </trkpt>
      <trkpt lat="46.18798" lon="6.32375">
        <ele>743</ele>
        <time>2018-07-14T08:00:52Z</time>
      </trkpt>
      <trkpt lat="46.18803" lon="6.32366">
        <ele>754</ele>
        <time>2018-07-14T08:00:53Z</time>
      </trkpt>
      <trkpt lat="46.18812" lon="6.32349">
        <ele>766</ele>
        <time>2018-07-14T08:00:55Z</time>
      </trkpt>
      <trkpt lat="46.18839" lon="6.32318">
        <ele>779</ele>
        <time>2018-07-14T08:01:00Z</time>
      </trkpt>
      <trkpt lat="46.18862" lon="6.32296">
        <ele>784</ele>
        <time>2018-07-14T08:01:05Z</time>
      </trkpt>
      <trkpt lat="46.1889" lon="6.32263">
        <ele>788</ele>
        <time>2018-07-14T08:01:12Z</time>
      </trkpt>
      <trkpt lat="46.1892" lon="6.32229">
        <ele>794</ele>
        <time>2018-07-14T08:01:20Z</time>
      </trkpt>
      <trkpt lat="46.18948" lon="6.32198">
        <ele>796</ele>
        <time>2018-07-14T08:01:27Z</time>
      </trkpt>
      <trkpt lat="46.18953" lon="6.32194">
        <ele>797</ele>
        <time>2018-07-14T08:01:28Z</time>
      </trkpt>
      <trkpt lat="46.18959" lon="6.32191">
        <ele>797</ele>
        <time>2018-07-14T08:01:29Z</time>
      </trkpt>
      <trkpt lat="46.18964" lon="6.32189">
        <ele>797</ele>
        <time>2018-07-14T08:01:30Z</time>
      </trkpt>
      <trkpt lat="46.18967" lon="6.32188">
        <ele>797</ele>
        <time>2018-07-14T08:01:31Z</time>
      </trkpt>
      <trkpt lat="46.18976" lon="6.32191">
        <ele>797</ele>
        <time>2018-07-14T08:01:35Z</time>
      </trkpt>
      <trkpt lat="46.18981" lon="6.32191">
        <ele>797</ele>
        <time>2018-07-14T08:01:41Z</time>
      </trkpt>
      <trkpt lat="46.18983" lon="6.3219">
        <ele>796</ele>
        <time>2018-07-14T08:01:42Z</time>
      </trkpt>
      <trkpt lat="46.19" lon="6.32183">
        <ele>797</ele>
        <time>2018-07-14T08:01:45Z</time>
      </trkpt>
      <trkpt lat="46.19011" lon="6.32174">
        <ele>796</ele>
        <time>2018-07-14T08:01:48Z</time>
      </trkpt>
      <trkpt lat="46.19016" lon="6.32168">
        <ele>795</ele>
        <time>2018-07-14T08:01:49Z</time>
      </trkpt>
      <trkpt lat="46.19022" lon="6.32168">
        <ele>795</ele>
        <time>2018-07-14T08:01:50Z</time>
      </trkpt>
      <trkpt lat="46.1905" lon="6.32138">
        <ele>794</ele>
        <time>2018-07-14T08:01:56Z</time>
      </trkpt>
      <trkpt lat="46.19056" lon="6.32134">
        <ele>795</ele>
        <time>2018-07-14T08:01:57Z</time>
      </trkpt>
      <trkpt lat="46.19072" lon="6.32118">
        <ele>794</ele>
        <time>2018-07-14T08:02:00Z</time>
      </trkpt>
      <trkpt lat="46.19076" lon="6.32112">
        <ele>794</ele>
        <time>2018-07-14T08:02:01Z</time>
      </trkpt>
      <trkpt lat="46.19098" lon="6.32065">
        <ele>791</ele>
        <time>2018-07-14T08:02:07Z</time>
      </trkpt>
      <trkpt lat="46.19108" lon="6.32049">
        <ele>789</ele>
        <time>2018-07-14T08:02:09Z</time>
      </trkpt>
      <trkpt lat="46.19134" lon="6.32022">
        <ele>787</ele>
        <time>2018-07-14T08:02:13Z</time>
      </trkpt>
      <trkpt lat="46.1914" lon="6.32017">
        <ele>787</ele>
        <time>2018-07-14T08:02:14Z</time>
      </trkpt>
      <trkpt lat="46.19168" lon="6.31976">
        <ele>786</ele>
        <time>2018-07-14T08:02:19Z</time>
      </trkpt>
      <trkpt lat="46.19172" lon="6.31965">
        <ele>785</ele>
        <time>2018-07-14T08:02:20Z</time>
      </trkpt>
      <trkpt lat="46.19176" lon="6.31953">
        <ele>784</ele>
        <time>2018-07-14T08:02:21Z</time>
      </trkpt>
      <trkpt lat="46.19185" lon="6.31911">
        <ele>783</ele>
        <time>2018-07-14T08:02:25Z</time>
      </trkpt>
      <trkpt lat="46.19193" lon="6.31876">
        <ele>780</ele>
        <time>2018-07-14T08:02:29Z</time>
      </trkpt>
      <trkpt lat="46.19193" lon="6.31854">
        <ele>778</ele>
        <time>2018-07-14T08:02:32Z</time>
      </trkpt>
      <trkpt lat="46.19196" lon="6.31849">
        <ele>779</ele>
        <time>2018-07-14T08:02:33Z</time>
      </trkpt>
      <trkpt lat="46.19199" lon="6.31845">
        <ele>779</ele>
        <time>2018-07-14T08:02:34Z</time>
      </trkpt>
      <trkpt lat="46.19203" lon="6.31844">
        <ele>778</ele>
        <time>2018-07-14T08:02:35Z</time>
      </trkpt>
      <trkpt lat="46.19226" lon="6.31842">
        <ele>778</ele>
        <time>2018-07-14T08:02:40Z</time>
      </trkpt>
      <trkpt lat="46.19237" lon="6.31838">
        <ele>778</ele>
        <time>2018-07-14T08:02:43Z</time>
      </trkpt>
      <trkpt lat="46.19248" lon="6.31829">
        <ele>779</ele>
        <time>2018-07-14T08:02:46Z</time>
      </trkpt>
      <trkpt lat="46.19251" lon="6.31824">
        <ele>779</ele>
        <time>2018-07-14T08:02:47Z</time>
      </trkpt>
      <trkpt lat="46.1927" lon="6.31782">
        <ele>779</ele>
        <time>2018-07-14T08:02:53Z</time>
      </trkpt>
      <trkpt lat="46.19273" lon="6.31775">
        <ele>776</ele>
        <time>2018-07-14T08:02:54Z</time>
      </trkpt>
      <trkpt lat="46.19283" lon="6.31764">
        <ele>777</ele>
        <time>2018-07-14T08:02:56Z</time>
      </trkpt>
      <trkpt lat="46.19287" lon="6.31757">
        <ele>777</ele>
        <time>2018-07-14T08:02:57Z</time>
      </trkpt>
      <trkpt lat="46.19291" lon="6.3175">
        <ele>777</ele>
        <time>2018-07-14T08:02:58Z</time>
      </trkpt>
      <trkpt lat="46.19295" lon="6.31739">
        <ele>775</ele>
        <time>2018-07-14T08:02:59Z</time>
      </trkpt>
      <trkpt lat="46.19296" lon="6.3173">
        <ele>774</ele>
        <time>2018-07-14T08:03:00Z</time>
      </trkpt>
      <trkpt lat="46.193" lon="6.31686">
        <ele>775</ele>
        <time>2018-07-14T08:03:04Z</time>
      </trkpt>
      <trkpt lat="46.19311" lon="6.31668">
        <ele>776</ele>
        <time>2018-07-14T08:03:06Z</time>
      </trkpt>
      <trkpt lat="46.19337" lon="6.31634">
        <ele>775</ele>
        <time>2018-07-14T08:03:11Z</time>
      </trkpt>
      <trkpt lat="46.19367" lon="6.31591">
        <ele>776</ele>
        <time>2018-07-14T08:03:17Z</time>
      </trkpt>
      <trkpt lat="46.19392" lon="6.31558">
        <ele>776</ele>
        <time>2018-07-14T08:03:22Z</time>
      </trkpt>
      <trkpt lat="46.1942" lon="6.31517">
        <ele>776</ele>
        <time>2018-07-14T08:03:27Z</time>
      </trkpt>
      <trkpt lat="46.19439" lon="6.31485">
        <ele>774</ele>
        <time>2018-07-14T08:03:31Z</time>
      </trkpt>
      <trkpt lat="46.19461" lon="6.31444">
        <ele>774</ele>
        <time>2018-07-14T08:03:37Z</time>
      </trkpt>
      <trkpt lat="46.19463" lon="6.31435">
        <ele>771</ele>
        <time>2018-07-14T08:03:38Z</time>
      </trkpt>
      <trkpt lat="46.19482" lon="6.31403">
        <ele>773</ele>
        <time>2018-07-14T08:03:43Z</time>
      </trkpt>
      <trkpt lat="46.1949" lon="6.31396">
        <ele>772</ele>
        <time>2018-07-14T08:03:45Z</time>
      </trkpt>
      <trkpt lat="46.19518" lon="6.31356">
        <ele>770</ele>
        <time>2018-07-14T08:03:51Z</time>
      </trkpt>
      <trkpt lat="46.19546" lon="6.31321">
        <ele>772</ele>
        <time>2018-07-14T08:03:57Z</time>
      </trkpt>
      <trkpt lat="46.1955" lon="6.31315">
        <ele>772</ele>
        <time>2018-07-14T08:03:58Z</time>
      </trkpt>
      <trkpt lat="46.19554" lon="6.31307">
        <ele>773</ele>
        <time>2018-07-14T08:03:59Z</time>
      </trkpt>
      <trkpt lat="46.19575" lon="6.3126">
        <ele>774</ele>
        <time>2018-07-14T08:04:04Z</time>
      </trkpt>
      <trkpt lat="46.19601" lon="6.31213">
        <ele>773</ele>
        <time>2018-07-14T08:04:10Z</time>
      </trkpt>
      <trkpt lat="46.19626" lon="6.31169">
        <ele>771</ele>
        <time>2018-07-14T08:04:16Z</time>
      </trkpt>
      <trkpt lat="46.1965" lon="6.31131">
        <ele>770</ele>
        <time>2018-07-14T08:04:21Z</time>
      </trkpt>
      <trkpt lat="46.19678" lon="6.31087">
        <ele>771</ele>
        <time>2018-07-14T08:04:27Z</time>
      </trkpt>
      <trkpt lat="46.19706" lon="6.31047">
        <ele>771</ele>
        <time>2018-07-14T08:04:32Z</time>
      </trkpt>
      <trkpt lat="46.19735" lon="6.31014">
        <ele>772</ele>
        <time>2018-07-14T08:04:37Z</time>
      </trkpt>
      <trkpt lat="46.19768" lon="6.30983">
        <ele>771</ele>
        <time>2018-07-14T08:04:42Z</time>
      </trkpt>
      <trkpt lat="46.19804" lon="6.30955">
        <ele>772</ele>
        <time>2018-07-14T08:04:48Z</time>
      </trkpt>
      <trkpt lat="46.19839" lon="6.30925">
        <ele>773</ele>
        <time>2018-07-14T08:04:54Z</time>
      </trkpt>
      <trkpt lat="46.19865" lon="6.30897">
        <ele>771</ele>
        <time>2018-07-14T08:04:59Z</time>
      </trkpt>
      <trkpt lat="46.19894" lon="6.30861">
        <ele>768</ele>
        <time>2018-07-14T08:05:05Z</time>
      </trkpt>
      <trkpt lat="46.19919" lon="6.30828">
        <ele>764</ele>
        <time>2018-07-14T08:05:10Z</time>
      </trkpt>
      <trkpt lat="46.19951" lon="6.30793">
        <ele>764</ele>
        <time>2018-07-14T08:05:16Z</time>
      </trkpt>
      <trkpt lat="46.19984" lon="6.30759">
        <ele>767</ele>
        <time>2018-07-14T08:05:22Z</time>
      </trkpt>
      <trkpt lat="46.20016" lon="6.30732">
        <ele>771</ele>
        <time>2018-07-14T08:05:28Z</time>
      </trkpt>
      <trkpt lat="46.2005" lon="6.30709">
        <ele>774</ele>
        <time>2018-07-14T08:05:34Z</time>
      </trkpt>
      <trkpt lat="46.20085" lon="6.30692">
        <ele>825</ele>
        <time>2018-07-14T08:05:39Z</time>
      </trkpt>
      <trkpt lat="46.20111" lon="6.3068">
        <ele>791</ele>
        <time>2018-07-14T08:05:43Z</time>
      </trkpt>
      <trkpt lat="46.20146" lon="6.30656">
        <ele>779</ele>
        <time>2018-07-14T08:05:49Z</time>
      </trkpt>
      <trkpt lat="46.20154" lon="6.30652">
        <ele>777</ele>
        <time>2018-07-14T08:05:52Z</time>
      </trkpt>
      <trkpt lat="46.20155" lon="6.30649">
        <ele>774</ele>
        <time>2018-07-14T08:05:53Z</time>
      </trkpt>
      <trkpt lat="46.20157" lon="6.30645">
        <ele>773</ele>
        <time>2018-07-14T08:05:54Z</time>
      </trkpt>
      <trkpt lat="46.20158" lon="6.30633">
        <ele>772</ele>
        <time>2018-07-14T08:05:55Z</time>
      </trkpt>
      <trkpt lat="46.20156" lon="6.30626">
        <ele>772</ele>
        <time>2018-07-14T08:05:56Z</time>
      </trkpt>
      <trkpt lat="46.20153" lon="6.30617">
        <ele>772</ele>
        <time>2018-07-14T08:05:57Z</time>
      </trkpt>
      <trkpt lat="46.20138" lon="6.30591">
        <ele>770</ele>
        <time>2018-07-14T08:06:00Z</time>
      </trkpt>
      <trkpt lat="46.2012" lon="6.30571">
        <ele>768</ele>
        <time>2018-07-14T08:06:03Z</time>
      </trkpt>
      <trkpt lat="46.20082" lon="6.30536">
        <ele>782</ele>
        <time>2018-07-14T08:06:08Z</time>
      </trkpt>
      <trkpt lat="46.20042" lon="6.30502">
        <ele>767</ele>
        <time>2018-07-14T08:06:13Z</time>
      </trkpt>
      <trkpt lat="46.19999" lon="6.30468">
        <ele>759</ele>
        <time>2018-07-14T08:06:18Z</time>
      </trkpt>
      <trkpt lat="46.19958" lon="6.30435">
        <ele>755</ele>
        <time>2018-07-14T08:06:23Z</time>
      </trkpt>
      <trkpt lat="46.19906" lon="6.30405">
        <ele>747</ele>
        <time>2018-07-14T08:06:28Z</time>
      </trkpt>
      <trkpt lat="46.19896" lon="6.304">
        <ele>746</ele>
        <time>2018-07-14T08:06:29Z</time>
      </trkpt>
      <trkpt lat="46.19886" lon="6.30397">
        <ele>745</ele>
        <time>2018-07-14T08:06:30Z</time>
      </trkpt>
      <trkpt lat="46.19874" lon="6.30397">
        <ele>744</ele>
        <time>2018-07-14T08:06:31Z</time>
      </trkpt>
      <trkpt lat="46.1984" lon="6.30405">
        <ele>742</ele>
        <time>2018-07-14T08:06:34Z</time>
      </trkpt>
      <trkpt lat="46.1983" lon="6.30412">
        <ele>742</ele>
        <time>2018-07-14T08:06:35Z</time>
      </trkpt>
      <trkpt lat="46.19801" lon="6.30435">
        <ele>740</ele>
        <time>2018-07-14T08:06:38Z</time>
      </trkpt>
      <trkpt lat="46.1978" lon="6.30444">
        <ele>738</ele>
        <time>2018-07-14T08:06:40Z</time>
      </trkpt>
      <trkpt lat="46.19727" lon="6.3046">
        <ele>734</ele>
        <time>2018-07-14T08:06:45Z</time>
      </trkpt>
      <trkpt lat="46.19708" lon="6.30462">
        <ele>731</ele>
        <time>2018-07-14T08:06:47Z</time>
      </trkpt>
      <trkpt lat="46.197" lon="6.30463">
        <ele>730</ele>
        <time>2018-07-14T08:06:48Z</time>
      </trkpt>
      <trkpt lat="46.19693" lon="6.30462">
        <ele>729</ele>
        <time>2018-07-14T08:06:49Z</time>
      </trkpt>
      <trkpt lat="46.19685" lon="6.3046">
        <ele>728</ele>
        <time>2018-07-14T08:06:50Z</time>
      </trkpt>
      <trkpt lat="46.19679" lon="6.30454">
        <ele>727</ele>
        <time>2018-07-14T08:06:51Z</time>
      </trkpt>
      <trkpt lat="46.19675" lon="6.30446">
        <ele>726</ele>
        <time>2018-07-14T08:06:52Z</time>
      </trkpt>
      <trkpt lat="46.19671" lon="6.30436">
        <ele>725</ele>
        <time>2018-07-14T08:06:53Z</time>
      </trkpt>
      <trkpt lat="46.19669" lon="6.30426">
        <ele>724</ele>
        <time>2018-07-14T08:06:54Z</time>
      </trkpt>
      <trkpt lat="46.19671" lon="6.30416">
        <ele>724</ele>
        <time>2018-07-14T08:06:55Z</time>
      </trkpt>
      <trkpt lat="46.19676" lon="6.30406">
        <ele>723</ele>
        <time>2018-07-14T08:06:56Z</time>
      </trkpt>
      <trkpt lat="46.1968" lon="6.30398">
        <ele>723</ele>
        <time>2018-07-14T08:06:57Z</time>
      </trkpt>
      <trkpt lat="46.19696" lon="6.30385">
        <ele>722</ele>
        <time>2018-07-14T08:06:59Z</time>
      </trkpt>
      <trkpt lat="46.19705" lon="6.30378">
        <ele>720</ele>
        <time>2018-07-14T08:07:00Z</time>
      </trkpt>
      <trkpt lat="46.19712" lon="6.30368">
        <ele>718</ele>
        <time>2018-07-14T08:07:01Z</time>
      </trkpt>
      <trkpt lat="46.19721" lon="6.30354">
        <ele>716</ele>
        <time>2018-07-14T08:07:02Z</time>
      </trkpt>
      <trkpt lat="46.19755" lon="6.30267">
        <ele>708</ele>
        <time>2018-07-14T08:07:08Z</time>
      </trkpt>
      <trkpt lat="46.19786" lon="6.30188">
        <ele>701</ele>
        <time>2018-07-14T08:07:13Z</time>
      </trkpt>
      <trkpt lat="46.19799" lon="6.30158">
        <ele>698</ele>
        <time>2018-07-14T08:07:15Z</time>
      </trkpt>
      <trkpt lat="46.19815" lon="6.30133">
        <ele>696</ele>
        <time>2018-07-14T08:07:17Z</time>
      </trkpt>
      <trkpt lat="46.19858" lon="6.30074">
        <ele>691</ele>
        <time>2018-07-14T08:07:22Z</time>
      </trkpt>
      <trkpt lat="46.19894" lon="6.30034">
        <ele>688</ele>
        <time>2018-07-14T08:07:27Z</time>
      </trkpt>
      <trkpt lat="46.199" lon="6.30026">
        <ele>688</ele>
        <time>2018-07-14T08:07:28Z</time>
      </trkpt>
      <trkpt lat="46.19905" lon="6.3002">
        <ele>686</ele>
        <time>2018-07-14T08:07:29Z</time>
      </trkpt>
      <trkpt lat="46.19909" lon="6.3001">
        <ele>681</ele>
        <time>2018-07-14T08:07:30Z</time>
      </trkpt>
      <trkpt lat="46.1991" lon="6.30002">
        <ele>713</ele>
        <time>2018-07-14T08:07:31Z</time>
      </trkpt>
      <trkpt lat="46.1991" lon="6.29993">
        <ele>710</ele>
        <time>2018-07-14T08:07:32Z</time>
      </trkpt>
      <trkpt lat="46.19907" lon="6.29984">
        <ele>707</ele>
        <time>2018-07-14T08:07:33Z</time>
      </trkpt>
      <trkpt lat="46.19899" lon="6.2997">
        <ele>698</ele>
        <time>2018-07-14T08:07:35Z</time>
      </trkpt>
      <trkpt lat="46.19862" lon="6.29937">
        <ele>678</ele>
        <time>2018-07-14T08:07:40Z</time>
      </trkpt>
      <trkpt lat="46.19826" lon="6.29915">
        <ele>671</ele>
        <time>2018-07-14T08:07:44Z</time>
      </trkpt>
      <trkpt lat="46.19782" lon="6.29896">
        <ele>666</ele>
        <time>2018-07-14T08:07:48Z</time>
      </trkpt>
      <trkpt lat="46.19746" lon="6.2988">
        <ele>663</ele>
        <time>2018-07-14T08:07:53Z</time>
      </trkpt>
      <trkpt lat="46.1973" lon="6.2986">
        <ele>659</ele>
        <time>2018-07-14T08:07:57Z</time>
      </trkpt>
      <trkpt lat="46.19726" lon="6.29854">
        <ele>659</ele>
        <time>2018-07-14T08:07:58Z</time>
      </trkpt>
      <trkpt lat="46.19717" lon="6.29836">
        <ele>657</ele>
        <time>2018-07-14T08:08:01Z</time>
      </trkpt>
      <trkpt lat="46.19701" lon="6.29793">
        <ele>653</ele>
        <time>2018-07-14T08:08:08Z</time>
      </trkpt>
      <trkpt lat="46.19686" lon="6.29773">
        <ele>652</ele>
        <time>2018-07-14T08:08:13Z</time>
      </trkpt>
      <trkpt lat="46.19684" lon="6.29761">
        <ele>649</ele>
        <time>2018-07-14T08:08:15Z</time>
      </trkpt>
      <trkpt lat="46.19684" lon="6.29749">
        <ele>649</ele>
        <time>2018-07-14T08:08:17Z</time>
      </trkpt>
      <trkpt lat="46.19681" lon="6.29738">
        <ele>651</ele>
        <time>2018-07-14T08:08:21Z</time>
      </trkpt>
      <trkpt lat="46.19681" lon="6.29737">
        <ele>650</ele>
        <time>2018-07-14T08:08:23Z</time>
      </trkpt>
      <trkpt lat="46.19681" lon="6.29733">
        <ele>645</ele>
        <time>2018-07-14T08:08:36Z</time>
      </trkpt>
      <trkpt lat="46.19685" lon="6.29728">
        <ele>646</ele>
        <time>2018-07-14T08:08:42Z</time>
      </trkpt>
      <trkpt lat="46.19686" lon="6.29718">
        <ele>645</ele>
        <time>2018-07-14T08:09:19Z</time>
      </trkpt>
      <trkpt lat="46.19681" lon="6.29717">
        <ele>645</ele>
        <time>2018-07-14T08:09:22Z</time>
      </trkpt>
      <trkpt lat="46.1968" lon="6.29715">
        <ele>644</ele>
        <time>2018-07-14T08:09:23Z</time>
      </trkpt>
      <trkpt lat="46.19675" lon="6.29706">
        <ele>643</ele>
        <time>2018-07-14T08:09:27Z</time>
      </trkpt>
      <trkpt lat="46.19674" lon="6.29705">
        <ele>644</ele>
        <time>2018-07-14T08:09:28Z</time>
      </trkpt>
      <trkpt lat="46.19671" lon="6.29705">
        <ele>644</ele>
        <time>2018-07-14T08:09:30Z</time>
      </trkpt>
      <trkpt lat="46.19671" lon="6.29708">
        <ele>645</ele>
        <time>2018-07-14T08:09:47Z</time>
      </trkpt>
      <trkpt lat="46.19673" lon="6.29711">
        <ele>644</ele>
        <time>2018-07-14T08:09:49Z</time>
      </trkpt>
      <trkpt lat="46.19682" lon="6.29728">
        <ele>644</ele>
        <time>2018-07-14T08:09:54Z</time>
      </trkpt>
      <trkpt lat="46.19684" lon="6.29728">
        <ele>644</ele>
        <time>2018-07-14T08:09:55Z</time>
      </trkpt>
      <trkpt lat="46.19686" lon="6.29728">
        <ele>646</ele>
        <time>2018-07-14T08:09:56Z</time>
      </trkpt>
      <trkpt lat="46.19688" lon="6.29727">
        <ele>645</ele>
        <time>2018-07-14T08:09:57Z</time>
      </trkpt>
      <trkpt lat="46.19708" lon="6.29718">
        <ele>645</ele>
        <time>2018-07-14T08:10:02Z</time>
      </trkpt>
      <trkpt lat="46.19734" lon="6.29703">
        <ele>645</ele>
        <time>2018-07-14T08:10:13Z</time>
      </trkpt>
      <trkpt lat="46.19736" lon="6.29702">
        <ele>645</ele>
        <time>2018-07-14T08:10:14Z</time>
      </trkpt>
      <trkpt lat="46.19747" lon="6.29699">
        <ele>645</ele>
        <time>2018-07-14T08:10:15Z</time>
      </trkpt>
      <trkpt lat="46.19775" lon="6.29702">
        <ele>645</ele>
        <time>2018-07-14T08:10:21Z</time>
      </trkpt>
      <trkpt lat="46.19778" lon="6.29704">
        <ele>644</ele>
        <time>2018-07-14T08:10:22Z</time>
      </trkpt>
      <trkpt lat="46.19782" lon="6.29706">
        <ele>644</ele>
        <time>2018-07-14T08:10:23Z</time>
      </trkpt>
      <trkpt lat="46.19812" lon="6.29704">
        <ele>645</ele>
        <time>2018-07-14T08:10:29Z</time>
      </trkpt>
      <trkpt lat="46.19822" lon="6.29705">
        <ele>644</ele>
        <time>2018-07-14T08:10:31Z</time>
      </trkpt>
      <trkpt lat="46.19856" lon="6.29703">
        <ele>645</ele>
        <time>2018-07-14T08:10:36Z</time>
      </trkpt>
      <trkpt lat="46.19891" lon="6.29696">
        <ele>643</ele>
        <time>2018-07-14T08:10:41Z</time>
      </trkpt>
      <trkpt lat="46.19919" lon="6.29696">
        <ele>641</ele>
        <time>2018-07-14T08:10:45Z</time>
      </trkpt>
      <trkpt lat="46.19923" lon="6.29699">
        <ele>639</ele>
        <time>2018-07-14T08:10:46Z</time>
      </trkpt>
      <trkpt lat="46.19969" lon="6.29689">
        <ele>639</ele>
        <time>2018-07-14T08:10:51Z</time>
      </trkpt>
      <trkpt lat="46.19994" lon="6.29683">
        <ele>637</ele>
        <time>2018-07-14T08:10:54Z</time>
      </trkpt>
      <trkpt lat="46.20034" lon="6.2969">
        <ele>637</ele>
        <time>2018-07-14T08:10:59Z</time>
      </trkpt>
      <trkpt lat="46.20063" lon="6.29702">
        <ele>635</ele>
        <time>2018-07-14T08:11:03Z</time>
      </trkpt>
      <trkpt lat="46.20107" lon="6.29709">
        <ele>633</ele>
        <time>2018-07-14T08:11:08Z</time>
      </trkpt>
      <trkpt lat="46.20154" lon="6.29714">
        <ele>633</ele>
        <time>2018-07-14T08:11:13Z</time>
      </trkpt>
      <trkpt lat="46.20198" lon="6.29723">
        <ele>632</ele>
        <time>2018-07-14T08:11:18Z</time>
      </trkpt>
      <trkpt lat="46.20223" lon="6.29724">
        <ele>631</ele>
        <time>2018-07-14T08:11:21Z</time>
      </trkpt>
      <trkpt lat="46.20253" lon="6.29712">
        <ele>630</ele>
        <time>2018-07-14T08:11:24Z</time>
      </trkpt>
      <trkpt lat="46.20264" lon="6.2971">
        <ele>631</ele>
        <time>2018-07-14T08:11:25Z</time>
      </trkpt>
      <trkpt lat="46.20319" lon="6.29712">
        <ele>629</ele>
        <time>2018-07-14T08:11:30Z</time>
      </trkpt>
      <trkpt lat="46.20381" lon="6.29722">
        <ele>618</ele>
        <time>2018-07-14T08:11:35Z</time>
      </trkpt>
      <trkpt lat="46.20446" lon="6.29727">
        <ele>613</ele>
        <time>2018-07-14T08:11:40Z</time>
      </trkpt>
      <trkpt lat="46.20485" lon="6.29724">
        <ele>608</ele>
        <time>2018-07-14T08:11:43Z</time>
      </trkpt>
      <trkpt lat="46.20525" lon="6.29713">
        <ele>605</ele>
        <time>2018-07-14T08:11:46Z</time>
      </trkpt>
      <trkpt lat="46.20589" lon="6.29715">
        <ele>600</ele>
        <time>2018-07-14T08:11:51Z</time>
      </trkpt>
      <trkpt lat="46.20656" lon="6.2972">
        <ele>592</ele>
        <time>2018-07-14T08:11:56Z</time>
      </trkpt>
      <trkpt lat="46.20713" lon="6.29726">
        <ele>589</ele>
        <time>2018-07-14T08:12:01Z</time>
      </trkpt>
      <trkpt lat="46.20764" lon="6.29729">
        <ele>585</ele>
        <time>2018-07-14T08:12:06Z</time>
      </trkpt>
      <trkpt lat="46.20799" lon="6.29736">
        <ele>581</ele>
        <time>2018-07-14T08:12:10Z</time>
      </trkpt>
      <trkpt lat="46.20821" lon="6.29736">
        <ele>582</ele>
        <time>2018-07-14T08:12:12Z</time>
      </trkpt>
      <trkpt lat="46.2084" lon="6.2974">
        <ele>582</ele>
        <time>2018-07-14T08:12:14Z</time>
      </trkpt>
      <trkpt lat="46.2088" lon="6.29754">
        <ele>581</ele>
        <time>2018-07-14T08:12:19Z</time>
      </trkpt>
      <trkpt lat="46.20902" lon="6.29764">
        <ele>581</ele>
        <time>2018-07-14T08:12:22Z</time>
      </trkpt>
      <trkpt lat="46.20939" lon="6.29798">
        <ele>580</ele>
        <time>2018-07-14T08:12:28Z</time>
      </trkpt>
      <trkpt lat="46.20956" lon="6.29816">
        <ele>581</ele>
        <time>2018-07-14T08:12:31Z</time>
      </trkpt>
      <trkpt lat="46.20991" lon="6.29843">
        <ele>580</ele>
        <time>2018-07-14T08:12:36Z</time>
      </trkpt>
      <trkpt lat="46.21043" lon="6.29904">
        <ele>581</ele>
        <time>2018-07-14T08:12:45Z</time>
      </trkpt>
      <trkpt lat="46.21056" lon="6.29915">
        <ele>581</ele>
        <time>2018-07-14T08:12:47Z</time>
      </trkpt>
      <trkpt lat="46.21065" lon="6.29934">
        <ele>580</ele>
        <time>2018-07-14T08:12:49Z</time>
      </trkpt>
      <trkpt lat="46.2107" lon="6.2994">
        <ele>581</ele>
        <time>2018-07-14T08:12:50Z</time>
      </trkpt>
      <trkpt lat="46.21095" lon="6.29961">
        <ele>582</ele>
        <time>2018-07-14T08:12:54Z</time>
      </trkpt>
      <trkpt lat="46.21133" lon="6.29996">
        <ele>583</ele>
        <time>2018-07-14T08:13:00Z</time>
      </trkpt>
      <trkpt lat="46.21165" lon="6.30025">
        <ele>582</ele>
        <time>2018-07-14T08:13:06Z</time>
      </trkpt>
      <trkpt lat="46.21192" lon="6.3004">
        <ele>582</ele>
        <time>2018-07-14T08:13:11Z</time>
      </trkpt>
      <trkpt lat="46.21196" lon="6.30045">
        <ele>582</ele>
        <time>2018-07-14T08:13:13Z</time>
      </trkpt>
      <trkpt lat="46.212" lon="6.30051">
        <ele>583</ele>
        <time>2018-07-14T08:13:16Z</time>
      </trkpt>
      <trkpt lat="46.21203" lon="6.3006">
        <ele>583</ele>
        <time>2018-07-14T08:13:17Z</time>
      </trkpt>
      <trkpt lat="46.21205" lon="6.30068">
        <ele>583</ele>
        <time>2018-07-14T08:13:21Z</time>
      </trkpt>
      <trkpt lat="46.21206" lon="6.30068">
        <ele>584</ele>
        <time>2018-07-14T08:13:22Z</time>
      </trkpt>
      <trkpt lat="46.21207" lon="6.30067">
        <ele>584</ele>
        <time>2018-07-14T08:13:23Z</time>
      </trkpt>
      <trkpt lat="46.21208" lon="6.30065">
        <ele>586</ele>
        <time>2018-07-14T08:13:24Z</time>
      </trkpt>
      <trkpt lat="46.21207" lon="6.30054">
        <ele>586</ele>
        <time>2018-07-14T08:13:25Z</time>
      </trkpt>
      <trkpt lat="46.21206" lon="6.30047">
        <ele>586</ele>
        <time>2018-07-14T08:13:26Z</time>
      </trkpt>
      <trkpt lat="46.21204" lon="6.3004">
        <ele>586</ele>
        <time>2018-07-14T08:13:27Z</time>
      </trkpt>
      <trkpt lat="46.21201" lon="6.30033">
        <ele>585</ele>
        <time>2018-07-14T08:13:28Z</time>
      </trkpt>
      <trkpt lat="46.21199" lon="6.30001">
        <ele>585</ele>
        <time>2018-07-14T08:13:32Z</time>
      </trkpt>
      <trkpt lat="46.21201" lon="6.29986">
        <ele>584</ele>
        <time>2018-07-14T08:13:34Z</time>
      </trkpt>
      <trkpt lat="46.21203" lon="6.29981">
        <ele>586</ele>
        <time>2018-07-14T08:13:35Z</time>
      </trkpt>
      <trkpt lat="46.21216" lon="6.29955">
        <ele>586</ele>
        <time>2018-07-14T08:13:40Z</time>
      </trkpt>
      <trkpt lat="46.21254" lon="6.29914">
        <ele>586</ele>
        <time>2018-07-14T08:13:53Z</time>
      </trkpt>
      <trkpt lat="46.21287" lon="6.29883">
        <ele>590</ele>
        <time>2018-07-14T08:14:02Z</time>
      </trkpt>
      <trkpt lat="46.2132" lon="6.29852">
        <ele>590</ele>
        <time>2018-07-14T08:14:09Z</time>
      </trkpt>
      <trkpt lat="46.21332" lon="6.29845">
        <ele>590</ele>
        <time>2018-07-14T08:14:11Z</time>
      </trkpt>
      <trkpt lat="46.21344" lon="6.29839">
        <ele>589</ele>
        <time>2018-07-14T08:14:13Z</time>
      </trkpt>
      <trkpt lat="46.2135" lon="6.29834">
        <ele>589</ele>
        <time>2018-07-14T08:14:14Z</time>
      </trkpt>
      <trkpt lat="46.21354" lon="6.29824">
        <ele>587</ele>
        <time>2018-07-14T08:14:15Z</time>
      </trkpt>
      <trkpt lat="46.21355" lon="6.29816">
        <ele>588</ele>
        <time>2018-07-14T08:14:16Z</time>
      </trkpt>
      <trkpt lat="46.21353" lon="6.2981">
        <ele>589</ele>
        <time>2018-07-14T08:14:17Z</time>
      </trkpt>
      <trkpt lat="46.21346" lon="6.29804">
        <ele>588</ele>
        <time>2018-07-14T08:14:18Z</time>
      </trkpt>
      <trkpt lat="46.21312" lon="6.29776">
        <ele>589</ele>
        <time>2018-07-14T08:14:24Z</time>
      </trkpt>
      <trkpt lat="46.21279" lon="6.29749">
        <ele>590</ele>
        <time>2018-07-14T08:14:29Z</time>
      </trkpt>
      <trkpt lat="46.21245" lon="6.29719">
        <ele>590</ele>
        <time>2018-07-14T08:14:34Z</time>
      </trkpt>
      <trkpt lat="46.21211" lon="6.29686">
        <ele>589</ele>
        <time>2018-07-14T08:14:39Z</time>
      </trkpt>
      <trkpt lat="46.21183" lon="6.29653">
        <ele>592</ele>
        <time>2018-07-14T08:14:44Z</time>
      </trkpt>
      <trkpt lat="46.2115" lon="6.29615">
        <ele>591</ele>
        <time>2018-07-14T08:14:50Z</time>
      </trkpt>
      <trkpt lat="46.2112" lon="6.29584">
        <ele>592</ele>
        <time>2018-07-14T08:14:55Z</time>
      </trkpt>
      <trkpt lat="46.21086" lon="6.29555">
        <ele>592</ele>
        <time>2018-07-14T08:15:00Z</time>
      </trkpt>
      <trkpt lat="46.21049" lon="6.29527">
        <ele>590</ele>
        <time>2018-07-14T08:15:05Z</time>
      </trkpt>
      <trkpt lat="46.21011" lon="6.29504">
        <ele>591</ele>
        <time>2018-07-14T08:15:10Z</time>
      </trkpt>
      <trkpt lat="46.20973" lon="6.29481">
        <ele>592</ele>
        <time>2018-07-14T08:15:15Z</time>
      </trkpt>
      <trkpt lat="46.20934" lon="6.29457">
        <ele>591</ele>
        <time>2018-07-14T08:15:20Z</time>
      </trkpt>
      <trkpt lat="46.20897" lon="6.29435">
        <ele>589</ele>
        <time>2018-07-14T08:15:25Z</time>
      </trkpt>
      <trkpt lat="46.2086" lon="6.29413">
        <ele>589</ele>
        <time>2018-07-14T08:15:30Z</time>
      </trkpt>
      <trkpt lat="46.2082" lon="6.29383">
        <ele>587</ele>
        <time>2018-07-14T08:15:36Z</time>
      </trkpt>
      <trkpt lat="46.20787" lon="6.29353">
        <ele>587</ele>
        <time>2018-07-14T08:15:41Z</time>
      </trkpt>
      <trkpt lat="46.20759" lon="6.29325">
        <ele>587</ele>
        <time>2018-07-14T08:15:45Z</time>
      </trkpt>
      <trkpt lat="46.20745" lon="6.29309">
        <ele>587</ele>
        <time>2018-07-14T08:15:47Z</time>
      </trkpt>
      <trkpt lat="46.20734" lon="6.29291">
        <ele>587</ele>
        <time>2018-07-14T08:15:49Z</time>
      </trkpt>
      <trkpt lat="46.2072" lon="6.29259">
        <ele>586</ele>
        <time>2018-07-14T08:15:52Z</time>
      </trkpt>
      <trkpt lat="46.20719" lon="6.29246">
        <ele>585</ele>
        <time>2018-07-14T08:15:53Z</time>
      </trkpt>
      <trkpt lat="46.20712" lon="6.29198">
        <ele>584</ele>
        <time>2018-07-14T08:15:57Z</time>
      </trkpt>
      <trkpt lat="46.20712" lon="6.29185">
        <ele>584</ele>
        <time>2018-07-14T08:15:58Z</time>
      </trkpt>
      <trkpt lat="46.20714" lon="6.2916">
        <ele>584</ele>
        <time>2018-07-14T08:16:00Z</time>
      </trkpt>
      <trkpt lat="46.20716" lon="6.29148">
        <ele>584</ele>
        <time>2018-07-14T08:16:01Z</time>
      </trkpt>
      <trkpt lat="46.20721" lon="6.29136">
        <ele>584</ele>
        <time>2018-07-14T08:16:02Z</time>
      </trkpt>
      <trkpt lat="46.20735" lon="6.29104">
        <ele>585</ele>
        <time>2018-07-14T08:16:05Z</time>
      </trkpt>
      <trkpt lat="46.2075" lon="6.29056">
        <ele>585</ele>
        <time>2018-07-14T08:16:09Z</time>
      </trkpt>
      <trkpt lat="46.20752" lon="6.29044">
        <ele>584</ele>
        <time>2018-07-14T08:16:10Z</time>
      </trkpt>
      <trkpt lat="46.20756" lon="6.29011">
        <ele>587</ele>
        <time>2018-07-14T08:16:13Z</time>
      </trkpt>
      <trkpt lat="46.20755" lon="6.28999">
        <ele>588</ele>
        <time>2018-07-14T08:16:14Z</time>
      </trkpt>
      <trkpt lat="46.20751" lon="6.28963">
        <ele>587</ele>
        <time>2018-07-14T08:16:17Z</time>
      </trkpt>
      <trkpt lat="46.20748" lon="6.28952">
        <ele>587</ele>
        <time>2018-07-14T08:16:18Z</time>
      </trkpt>
      <trkpt lat="46.2073" lon="6.28909">
        <ele>588</ele>
        <time>2018-07-14T08:16:22Z</time>
      </trkpt>
      <trkpt lat="46.20702" lon="6.28854">
        <ele>581</ele>
        <time>2018-07-14T08:16:27Z</time>
      </trkpt>
      <trkpt lat="46.20671" lon="6.28808">
        <ele>580</ele>
        <time>2018-07-14T08:16:32Z</time>
      </trkpt>
      <trkpt lat="46.20641" lon="6.28761">
        <ele>578</ele>
        <time>2018-07-14T08:16:37Z</time>
      </trkpt>
      <trkpt lat="46.20609" lon="6.28714">
        <ele>577</ele>
        <time>2018-07-14T08:16:42Z</time>
      </trkpt>
      <trkpt lat="46.20597" lon="6.28691">
        <ele>576</ele>
        <time>2018-07-14T08:16:46Z</time>
      </trkpt>
      <trkpt lat="46.20598" lon="6.28685">
        <ele>576</ele>
        <time>2018-07-14T08:16:47Z</time>
      </trkpt>
      <trkpt lat="46.20602" lon="6.28681">
        <ele>577</ele>
        <time>2018-07-14T08:16:48Z</time>
      </trkpt>
      <trkpt lat="46.20628" lon="6.28661">
        <ele>579</ele>
        <time>2018-07-14T08:16:53Z</time>
      </trkpt>
      <trkpt lat="46.20632" lon="6.28656">
        <ele>579</ele>
        <time>2018-07-14T08:16:54Z</time>
      </trkpt>
      <trkpt lat="46.20646" lon="6.2864">
        <ele>576</ele>
        <time>2018-07-14T08:16:57Z</time>
      </trkpt>
      <trkpt lat="46.20652" lon="6.28636">
        <ele>577</ele>
        <time>2018-07-14T08:16:58Z</time>
      </trkpt>
      <trkpt lat="46.20666" lon="6.28635">
        <ele>578</ele>
        <time>2018-07-14T08:17:00Z</time>
      </trkpt>
      <trkpt lat="46.20671" lon="6.28634">
        <ele>578</ele>
        <time>2018-07-14T08:17:01Z</time>
      </trkpt>
      <trkpt lat="46.20677" lon="6.28626">
        <ele>578</ele>
        <time>2018-07-14T08:17:02Z</time>
      </trkpt>
      <trkpt lat="46.20681" lon="6.28618">
        <ele>576</ele>
        <time>2018-07-14T08:17:03Z</time>
      </trkpt>
      <trkpt lat="46.20682" lon="6.28609">
        <ele>576</ele>
        <time>2018-07-14T08:17:04Z</time>
      </trkpt>
      <trkpt lat="46.20679" lon="6.28602">
        <ele>576</ele>
        <time>2018-07-14T08:17:05Z</time>
      </trkpt>
      <trkpt lat="46.20675" lon="6.28596">
        <ele>576</ele>
        <time>2018-07-14T08:17:06Z</time>
      </trkpt>
      <trkpt lat="46.20664" lon="6.28584">
        <ele>576</ele>
        <time>2018-07-14T08:17:08Z</time>
      </trkpt>
      <trkpt lat="46.20642" lon="6.28541">
        <ele>575</ele>
        <time>2018-07-14T08:17:13Z</time>
      </trkpt>
      <trkpt lat="46.20627" lon="6.28499">
        <ele>574</ele>
        <time>2018-07-14T08:17:17Z</time>
      </trkpt>
      <trkpt lat="46.20605" lon="6.28446">
        <ele>573</ele>
        <time>2018-07-14T08:17:22Z</time>
      </trkpt>
      <trkpt lat="46.20582" lon="6.28388">
        <ele>571</ele>
        <time>2018-07-14T08:17:27Z</time>
      </trkpt>
      <trkpt lat="46.20563" lon="6.2833">
        <ele>571</ele>
        <time>2018-07-14T08:17:32Z</time>
      </trkpt>
      <trkpt lat="46.20542" lon="6.28273">
        <ele>571</ele>
        <time>2018-07-14T08:17:37Z</time>
      </trkpt>
      <trkpt lat="46.20521" lon="6.28216">
        <ele>568</ele>
        <time>2018-07-14T08:17:42Z</time>
      </trkpt>
      <trkpt lat="46.20503" lon="6.28164">
        <ele>567</ele>
        <time>2018-07-14T08:17:47Z</time>
      </trkpt>
      <trkpt lat="46.20493" lon="6.28137">
        <ele>565</ele>
        <time>2018-07-14T08:17:50Z</time>
      </trkpt>
      <trkpt lat="46.20491" lon="6.28109">
        <ele>565</ele>
        <time>2018-07-14T08:17:53Z</time>
      </trkpt>
      <trkpt lat="46.2049" lon="6.28102">
        <ele>565</ele>
        <time>2018-07-14T08:17:54Z</time>
      </trkpt>
      <trkpt lat="46.20485" lon="6.28095">
        <ele>565</ele>
        <time>2018-07-14T08:17:55Z</time>
      </trkpt>
      <trkpt lat="46.20468" lon="6.2807">
        <ele>565</ele>
        <time>2018-07-14T08:17:59Z</time>
      </trkpt>
      <trkpt lat="46.20448" lon="6.28013">
        <ele>564</ele>
        <time>2018-07-14T08:18:05Z</time>
      </trkpt>
      <trkpt lat="46.20429" lon="6.2796">
        <ele>563</ele>
        <time>2018-07-14T08:18:10Z</time>
      </trkpt>
      <trkpt lat="46.20408" lon="6.27895">
        <ele>563</ele>
        <time>2018-07-14T08:18:16Z</time>
      </trkpt>
      <trkpt lat="46.20385" lon="6.27849">
        <ele>561</ele>
        <time>2018-07-14T08:18:20Z</time>
      </trkpt>
      <trkpt lat="46.20363" lon="6.27777">
        <ele>560</ele>
        <time>2018-07-14T08:18:26Z</time>
      </trkpt>
      <trkpt lat="46.20337" lon="6.27716">
        <ele>559</ele>
        <time>2018-07-14T08:18:31Z</time>
      </trkpt>
      <trkpt lat="46.20314" lon="6.27652">
        <ele>557</ele>
        <time>2018-07-14T08:18:36Z</time>
      </trkpt>
      <trkpt lat="46.20291" lon="6.27587">
        <ele>557</ele>
        <time>2018-07-14T08:18:41Z</time>
      </trkpt>
      <trkpt lat="46.20269" lon="6.27523">
        <ele>556</ele>
        <time>2018-07-14T08:18:46Z</time>
      </trkpt>
      <trkpt lat="46.20246" lon="6.27457">
        <ele>554</ele>
        <time>2018-07-14T08:18:51Z</time>
      </trkpt>
      <trkpt lat="46.20225" lon="6.27401">
        <ele>554</ele>
        <time>2018-07-14T08:18:56Z</time>
      </trkpt>
      <trkpt lat="46.20211" lon="6.27362">
        <ele>554</ele>
        <time>2018-07-14T08:19:01Z</time>
      </trkpt>
      <trkpt lat="46.20205" lon="6.27353">
        <ele>554</ele>
        <time>2018-07-14T08:19:02Z</time>
      </trkpt>
      <trkpt lat="46.20203" lon="6.27344">
        <ele>554</ele>
        <time>2018-07-14T08:19:03Z</time>
      </trkpt>
      <trkpt lat="46.20202" lon="6.27334">
        <ele>554</ele>
        <time>2018-07-14T08:19:04Z</time>
      </trkpt>
      <trkpt lat="46.20202" lon="6.27324">
        <ele>554</ele>
        <time>2018-07-14T08:19:05Z</time>
      </trkpt>
      <trkpt lat="46.20211" lon="6.27268">
        <ele>552</ele>
        <time>2018-07-14T08:19:10Z</time>
      </trkpt>
      <trkpt lat="46.20211" lon="6.27257">
        <ele>552</ele>
        <time>2018-07-14T08:19:11Z</time>
      </trkpt>
      <trkpt lat="46.20203" lon="6.27195">
        <ele>551</ele>
        <time>2018-07-14T08:19:16Z</time>
      </trkpt>
      <trkpt lat="46.20192" lon="6.27131">
        <ele>550</ele>
        <time>2018-07-14T08:19:21Z</time>
      </trkpt>
      <trkpt lat="46.20185" lon="6.27064">
        <ele>548</ele>
        <time>2018-07-14T08:19:26Z</time>
      </trkpt>
      <trkpt lat="46.20177" lon="6.27">
        <ele>550</ele>
        <time>2018-07-14T08:19:31Z</time>
      </trkpt>
      <trkpt lat="46.20167" lon="6.26932">
        <ele>549</ele>
        <time>2018-07-14T08:19:36Z</time>
      </trkpt>
      <trkpt lat="46.20156" lon="6.26851">
        <ele>549</ele>
        <time>2018-07-14T08:19:42Z</time>
      </trkpt>
      <trkpt lat="46.20149" lon="6.26783">
        <ele>551</ele>
        <time>2018-07-14T08:19:47Z</time>
      </trkpt>
      <trkpt lat="46.20138" lon="6.26711">
        <ele>549</ele>
        <time>2018-07-14T08:19:52Z</time>
      </trkpt>
      <trkpt lat="46.20128" lon="6.26639">
        <ele>546</ele>
        <time>2018-07-14T08:19:57Z</time>
      </trkpt>
      <trkpt lat="46.20118" lon="6.26555">
        <ele>545</ele>
        <time>2018-07-14T08:20:03Z</time>
      </trkpt>
      <trkpt lat="46.20114" lon="6.26485">
        <ele>543</ele>
        <time>2018-07-14T08:20:08Z</time>
      </trkpt>
      <trkpt lat="46.20113" lon="6.26446">
        <ele>541</ele>
        <time>2018-07-14T08:20:11Z</time>
      </trkpt>
      <trkpt lat="46.20122" lon="6.26425">
        <ele>543</ele>
        <time>2018-07-14T08:20:13Z</time>
      </trkpt>
      <trkpt lat="46.20119" lon="6.26415">
        <ele>543</ele>
        <time>2018-07-14T08:20:14Z</time>
      </trkpt>
      <trkpt lat="46.20116" lon="6.26404">
        <ele>542</ele>
        <time>2018-07-14T08:20:15Z</time>
      </trkpt>
      <trkpt lat="46.20108" lon="6.26402">
        <ele>541</ele>
        <time>2018-07-14T08:20:16Z</time>
      </trkpt>
      <trkpt lat="46.20102" lon="6.26403">
        <ele>541</ele>
        <time>2018-07-14T08:20:17Z</time>
      </trkpt>
      <trkpt lat="46.20096" lon="6.26406">
        <ele>541</ele>
        <time>2018-07-14T08:20:18Z</time>
      </trkpt>
      <trkpt lat="46.20085" lon="6.26418">
        <ele>541</ele>
        <time>2018-07-14T08:20:20Z</time>
      </trkpt>
      <trkpt lat="46.20078" lon="6.26423">
        <ele>541</ele>
        <time>2018-07-14T08:20:21Z</time>
      </trkpt>
      <trkpt lat="46.20071" lon="6.26425">
        <ele>542</ele>
        <time>2018-07-14T08:20:22Z</time>
      </trkpt>
      <trkpt lat="46.2005" lon="6.26428">
        <ele>541</ele>
        <time>2018-07-14T08:20:25Z</time>
      </trkpt>
      <trkpt lat="46.20042" lon="6.26428">
        <ele>542</ele>
        <time>2018-07-14T08:20:26Z</time>
      </trkpt>
      <trkpt lat="46.20035" lon="6.26427">
        <ele>541</ele>
        <time>2018-07-14T08:20:27Z</time>
      </trkpt>
      <trkpt lat="46.19997" lon="6.26417">
        <ele>541</ele>
        <time>2018-07-14T08:20:32Z</time>
      </trkpt>
      <trkpt lat="46.19956" lon="6.26405">
        <ele>539</ele>
        <time>2018-07-14T08:20:37Z</time>
      </trkpt>
      <trkpt lat="46.19913" lon="6.26395">
        <ele>539</ele>
        <time>2018-07-14T08:20:42Z</time>
      </trkpt>
      <trkpt lat="46.19861" lon="6.26382">
        <ele>537</ele>
        <time>2018-07-14T08:20:48Z</time>
      </trkpt>
      <trkpt lat="46.1982" lon="6.26368">
        <ele>536</ele>
        <time>2018-07-14T08:20:53Z</time>
      </trkpt>
      <trkpt lat="46.19779" lon="6.26355">
        <ele>537</ele>
        <time>2018-07-14T08:20:58Z</time>
      </trkpt>
      <trkpt lat="46.19737" lon="6.26341">
        <ele>535</ele>
        <time>2018-07-14T08:21:03Z</time>
      </trkpt>
      <trkpt lat="46.19729" lon="6.26336">
        <ele>535</ele>
        <time>2018-07-14T08:21:04Z</time>
      </trkpt>
      <trkpt lat="46.19722" lon="6.26329">
        <ele>535</ele>
        <time>2018-07-14T08:21:05Z</time>
      </trkpt>
      <trkpt lat="46.19715" lon="6.26321">
        <ele>535</ele>
        <time>2018-07-14T08:21:06Z</time>
      </trkpt>
      <trkpt lat="46.19709" lon="6.26311">
        <ele>535</ele>
        <time>2018-07-14T08:21:07Z</time>
      </trkpt>
      <trkpt lat="46.19686" lon="6.26253">
        <ele>534</ele>
        <time>2018-07-14T08:21:12Z</time>
      </trkpt>
      <trkpt lat="46.1967" lon="6.26203">
        <ele>533</ele>
        <time>2018-07-14T08:21:16Z</time>
      </trkpt>
      <trkpt lat="46.1966" lon="6.26136">
        <ele>531</ele>
        <time>2018-07-14T08:21:21Z</time>
      </trkpt>
      <trkpt lat="46.1965" lon="6.2607">
        <ele>529</ele>
        <time>2018-07-14T08:21:26Z</time>
      </trkpt>
      <trkpt lat="46.19642" lon="6.26007">
        <ele>529</ele>
        <time>2018-07-14T08:21:31Z</time>
      </trkpt>
      <trkpt lat="46.1963" lon="6.25939">
        <ele>527</ele>
        <time>2018-07-14T08:21:36Z</time>
      </trkpt>
      <trkpt lat="46.19617" lon="6.25869">
        <ele>525</ele>
        <time>2018-07-14T08:21:41Z</time>
      </trkpt>
      <trkpt lat="46.19609" lon="6.25783">
        <ele>524</ele>
        <time>2018-07-14T08:21:47Z</time>
      </trkpt>
      <trkpt lat="46.19611" lon="6.2574">
        <ele>525</ele>
        <time>2018-07-14T08:21:50Z</time>
      </trkpt>
      <trkpt lat="46.19613" lon="6.25726">
        <ele>525</ele>
        <time>2018-07-14T08:21:51Z</time>
      </trkpt>
      <trkpt lat="46.1963" lon="6.25643">
        <ele>523</ele>
        <time>2018-07-14T08:21:57Z</time>
      </trkpt>
      <trkpt lat="46.19645" lon="6.25571">
        <ele>519</ele>
        <time>2018-07-14T08:22:02Z</time>
      </trkpt>
      <trkpt lat="46.1966" lon="6.25503">
        <ele>517</ele>
        <time>2018-07-14T08:22:07Z</time>
      </trkpt>
      <trkpt lat="46.19674" lon="6.25444">
        <ele>515</ele>
        <time>2018-07-14T08:22:12Z</time>
      </trkpt>
      <trkpt lat="46.19676" lon="6.2542">
        <ele>515</ele>
        <time>2018-07-14T08:22:14Z</time>
      </trkpt>
      <trkpt lat="46.19679" lon="6.25407">
        <ele>514</ele>
        <time>2018-07-14T08:22:15Z</time>
      </trkpt>
      <trkpt lat="46.197" lon="6.25349">
        <ele>511</ele>
        <time>2018-07-14T08:22:20Z</time>
      </trkpt>
      <trkpt lat="46.19722" lon="6.25295">
        <ele>508</ele>
        <time>2018-07-14T08:22:25Z</time>
      </trkpt>
      <trkpt lat="46.19725" lon="6.25285">
        <ele>508</ele>
        <time>2018-07-14T08:22:26Z</time>
      </trkpt>
      <trkpt lat="46.19726" lon="6.25276">
        <ele>507</ele>
        <time>2018-07-14T08:22:27Z</time>
      </trkpt>
      <trkpt lat="46.19726" lon="6.25254">
        <ele>507</ele>
        <time>2018-07-14T08:22:30Z</time>
      </trkpt>
      <trkpt lat="46.19726" lon="6.2525">
        <ele>506</ele>
        <time>2018-07-14T08:22:32Z</time>
      </trkpt>
      <trkpt lat="46.19725" lon="6.25248">
        <ele>505</ele>
        <time>2018-07-14T08:22:34Z</time>
      </trkpt>
      <trkpt lat="46.19723" lon="6.25245">
        <ele>504</ele>
        <time>2018-07-14T08:22:47Z</time>
      </trkpt>
      <trkpt lat="46.19717" lon="6.25214">
        <ele>507</ele>
        <time>2018-07-14T08:23:06Z</time>
      </trkpt>
      <trkpt lat="46.19716" lon="6.25213">
        <ele>506</ele>
        <time>2018-07-14T08:23:08Z</time>
      </trkpt>
      <trkpt lat="46.19714" lon="6.25212">
        <ele>504</ele>
        <time>2018-07-14T08:23:09Z</time>
      </trkpt>
      <trkpt lat="46.19712" lon="6.25211">
        <ele>504</ele>
        <time>2018-07-14T08:23:10Z</time>
      </trkpt>
      <trkpt lat="46.19676" lon="6.25208">
        <ele>501</ele>
        <time>2018-07-14T08:23:16Z</time>
      </trkpt>
      <trkpt lat="46.19654" lon="6.25202">
        <ele>502</ele>
        <time>2018-07-14T08:23:19Z</time>
      </trkpt>
      <trkpt lat="46.19621" lon="6.25185">
        <ele>501</ele>
        <time>2018-07-14T08:23:23Z</time>
      </trkpt>
      <trkpt lat="46.19597" lon="6.25167">
        <ele>502</ele>
        <time>2018-07-14T08:23:26Z</time>
      </trkpt>
      <trkpt lat="46.19556" lon="6.25145">
        <ele>502</ele>
        <time>2018-07-14T08:23:31Z</time>
      </trkpt>
      <trkpt lat="46.19518" lon="6.25131">
        <ele>503</ele>
        <time>2018-07-14T08:23:36Z</time>
      </trkpt>
      <trkpt lat="46.19478" lon="6.25118">
        <ele>503</ele>
        <time>2018-07-14T08:23:41Z</time>
      </trkpt>
      <trkpt lat="46.19438" lon="6.25109">
        <ele>504</ele>
        <time>2018-07-14T08:23:46Z</time>
      </trkpt>
      <trkpt lat="46.19421" lon="6.25102">
        <ele>504</ele>
        <time>2018-07-14T08:23:48Z</time>
      </trkpt>
      <trkpt lat="46.19417" lon="6.25094">
        <ele>503</ele>
        <time>2018-07-14T08:23:49Z</time>
      </trkpt>
      <trkpt lat="46.19411" lon="6.25089">
        <ele>504</ele>
        <time>2018-07-14T08:23:50Z</time>
      </trkpt>
      <trkpt lat="46.19405" lon="6.25086">
        <ele>502</ele>
        <time>2018-07-14T08:23:51Z</time>
      </trkpt>
      <trkpt lat="46.19399" lon="6.25086">
        <ele>503</ele>
        <time>2018-07-14T08:23:52Z</time>
      </trkpt>
      <trkpt lat="46.19394" lon="6.25088">
        <ele>502</ele>
        <time>2018-07-14T08:23:53Z</time>
      </trkpt>
      <trkpt lat="46.19378" lon="6.25096">
        <ele>504</ele>
        <time>2018-07-14T08:23:56Z</time>
      </trkpt>
      <trkpt lat="46.19359" lon="6.25099">
        <ele>505</ele>
        <time>2018-07-14T08:23:59Z</time>
      </trkpt>
      <trkpt lat="46.19323" lon="6.25101">
        <ele>506</ele>
        <time>2018-07-14T08:24:05Z</time>
      </trkpt>
      <trkpt lat="46.19284" lon="6.25103">
        <ele>504</ele>
        <time>2018-07-14T08:24:12Z</time>
      </trkpt>
      <trkpt lat="46.1928" lon="6.25104">
        <ele>504</ele>
        <time>2018-07-14T08:24:13Z</time>
      </trkpt>
      <trkpt lat="46.19276" lon="6.25103">
        <ele>505</ele>
        <time>2018-07-14T08:24:16Z</time>
      </trkpt>
      <trkpt lat="46.19273" lon="6.25101">
        <ele>504</ele>
        <time>2018-07-14T08:24:18Z</time>
      </trkpt>
      <trkpt lat="46.19272" lon="6.25099">
        <ele>504</ele>
        <time>2018-07-14T08:24:21Z</time>
      </trkpt>
      <trkpt lat="46.19274" lon="6.25097">
        <ele>503</ele>
        <time>2018-07-14T08:24:25Z</time>
      </trkpt>
      <trkpt lat="46.19276" lon="6.25095">
        <ele>503</ele>
        <time>2018-07-14T08:24:32Z</time>
      </trkpt>
      <trkpt lat="46.19277" lon="6.25092">
        <ele>504</ele>
        <time>2018-07-14T08:24:34Z</time>
      </trkpt>
      <trkpt lat="46.19277" lon="6.2509">
        <ele>504</ele>
        <time>2018-07-14T08:24:35Z</time>
      </trkpt>
      <trkpt lat="46.19282" lon="6.25053">
        <ele>505</ele>
        <time>2018-07-14T08:24:42Z</time>
      </trkpt>
      <trkpt lat="46.19281" lon="6.25047">
        <ele>505</ele>
        <time>2018-07-14T08:24:43Z</time>
      </trkpt>
      <trkpt lat="46.19281" lon="6.25042">
        <ele>505</ele>
        <time>2018-07-14T08:24:44Z</time>
      </trkpt>
      <trkpt lat="46.19284" lon="6.25032">
        <ele>506</ele>
        <time>2018-07-14T08:24:46Z</time>
      </trkpt>
      <trkpt lat="46.19284" lon="6.25027">
        <ele>506</ele>
        <time>2018-07-14T08:24:47Z</time>
      </trkpt>
      <trkpt lat="46.19284" lon="6.25025">
        <ele>507</ele>
        <time>2018-07-14T08:24:48Z</time>
      </trkpt>
      <trkpt lat="46.19286" lon="6.25024">
        <ele>507</ele>
        <time>2018-07-14T08:24:49Z</time>
      </trkpt>
      <trkpt lat="46.1929" lon="6.25022">
        <ele>504</ele>
        <time>2018-07-14T08:24:53Z</time>
      </trkpt>
      <trkpt lat="46.1929" lon="6.2502">
        <ele>503</ele>
        <time>2018-07-14T08:25:42Z</time>
      </trkpt>
      <trkpt lat="46.19288" lon="6.25019">
        <ele>504</ele>
        <time>2018-07-14T08:25:45Z</time>
      </trkpt>
      <trkpt lat="46.19288" lon="6.25019">
        <ele>504</ele>
        <time>2018-07-14T08:39:45Z</time>
      </trkpt>
    </trkseg>
  </trk>
</gpx>